[[{"header":{"parameterUnit":"m.s-1","parameterCategory":1,"la1":31.0,"la2":29.5877,"lo1":-88.7671,"lo2":-86.6584,"dy":0.0162,"dx":0.0185,"nx":115,"ny":88,"refTime":"2023-10-25T00:00:00:Z","depth":0,"parameterNumber":2,"parameterNumberName":"U-component_of_WINDS"},"data":[0.0,0.0,0.0,0.0,0.0,0.0,0.0,0.0,0.0,0.0,0.0,0.0,0.0,0.0,0.0,0.0,0.0,0.0,0.0,0.0,0.0,0.0,0.0,0.0,0.0,0.0,0.0,0.0,0.0,0.0,0.0,0.0,0.0,0.0,0.0,0.0,0.0,0.0,0.0,0.0,0.0,0.0,0.0,0.0,0.0,0.0,0.0,0.0,0.0,0.0,0.0,0.0,0.0,0.0,0.0,0.0,0.0,0.0,0.0,0.0,0.0,0.0,0.0,0.0,0.0,0.0,0.0,0.0,0.0,0.0,0.0,0.0,0.0,0.0,0.0,0.0,0.0,0.0,0.0,0.0,0.0,0.0,0.0,0.0,0.0,0.0,0.0,0.0,0.0,0.0,0.0,0.0,0.0,0.0,0.0,0.0,0.0,0.0,0.0,0.0,0.0,0.0,0.0,0.0,0.0,0.0,0.0,0.0,0.0,0.0,0.0,0.0,0.0,0.0,0.0,0.0,0.0,0.0,0.0,0.0,0.0,0.0,0.0,0.0,0.0,0.0,0.0,0.0,0.0,0.0,0.0,0.0,0.0,0.0,0.0,0.0,0.0,0.0,0.0,0.0,0.0,0.0,0.0,0.0,0.0,0.0,0.0,0.0,0.0,0.0,0.0,0.0,0.0,0.0,0.0,0.0,0.0,0.0,0.0,0.0,0.0,0.0,0.0,0.0,0.0,0.0,0.0,0.0,0.0,0.0,0.0,0.0,0.0,0.0,0.0,0.0,0.0,0.0,0.0,0.0,0.0,0.0,0.0,0.0,0.0,0.0,0.0,0.0,0.0,0.0,0.0,0.0,0.0,0.0,0.0,0.0,0.0,0.0,0.0,0.0,0.0,0.0,0.0,0.0,0.0,0.0,0.0,0.0,0.0,0.0,0.0,0.0,0.0,0.0,0.0,0.0,0.0,0.0,0.0,0.0,0.0,0.0,0.0,0.0,0.0,0.0,0.0,0.0,0.0,0.0,0.0,0.0,0.0,0.0,0.0,0.0,0.0,0.0,0.0,0.0,0.0,0.0,0.0,0.0,0.0,0.0,0.0,0.0,0.0,0.0,0.0,0.0,0.0,0.0,0.0,0.0,0.0,0.0,0.0,0.0,0.0,0.0,0.0,0.0,0.0,0.0,0.0,0.0,0.0,0.0,0.0,0.0,0.0,0.0,0.0,0.0,0.0,0.0,0.0,0.0,0.0,0.0,0.0,0.0,0.0,0.0,0.0,0.0,0.0,0.0,0.0,0.0,0.0,0.0,0.0,0.0,0.0,0.0,0.0,0.0,0.0,0.0,0.0,0.0,0.0,0.0,0.0,0.0,0.0,0.0,0.0,0.0,0.0,0.0,0.0,0.0,0.0,0.0,0.0,0.0,0.0,0.0,0.0,0.0,0.0,0.0,0.0,0.0,0.0,0.0,0.0,0.0,0.0,0.0,0.0,0.0,0.0,0.0,0.0,0.0,0.0,0.0,0.0,0.0,0.0,0.0,0.0,0.0,0.0,0.0,0.0,0.0,0.0,0.0,0.0,0.0,0.0,0.0,0.0,0.0,0.0,0.0,0.0,0.0,0.0,0.0,0.0,0.0,0.0,0.0,0.0,0.0,0.0,0.0,0.0,0.0,0.0,0.0,0.0,0.0,0.0,0.0,0.0,0.0,0.0,0.0,0.0,0.0,0.0,0.0,0.0,0.0,0.0,0.0,0.0,0.0,0.0,0.0,0.0,0.0,0.0,0.0,0.0,0.0,0.0,0.0,0.0,0.0,0.0,0.0,0.0,0.0,0.0,0.0,0.0,0.0,0.0,0.0,0.0,0.0,0.0,0.0,0.0,0.0,0.0,0.0,0.0,0.0,0.0,0.0,0.0,0.0,0.0,0.0,0.0,0.0,0.0,0.0,0.0,0.0,0.0,0.0,0.0,0.0,0.0,0.0,0.0,0.0,0.0,0.0,0.0,0.0,0.0,0.0,0.0,0.0,0.0,0.0,0.0,0.0,0.0,0.0,0.0,0.0,0.0,0.0,0.0,0.0,0.0,0.0,0.0,0.0,0.0,0.0,0.0,0.0,0.0,0.0,0.0,0.0,0.0,0.0,0.0,0.0,0.0,0.0,0.0,0.0,0.0,0.0,0.0,0.0,0.0,0.0,0.0,0.0,0.0,0.0,0.0,0.0,0.0,0.0,0.0,0.0,0.0,0.0,0.0,0.0,0.0,0.0,0.0,0.0,0.0,0.0,0.0,0.0,0.0,0.0,0.0,0.0,0.0,0.0,0.0,0.0,0.0,0.0,0.0,0.0,0.0,0.0,0.0,0.0,0.0,0.0,0.0,0.0,0.0,0.0,0.0,0.0,0.0,0.0,0.0,0.0,0.0,0.0,0.0,0.0,0.0,0.0,0.0,0.0,0.0,0.0,0.0,0.0,0.0,0.0,0.0,0.0,0.0,0.0,0.0,0.0,0.0,0.0,0.0,0.0,0.0,0.0,0.0,0.0,0.0,0.0,0.0,0.0,0.0,0.0,0.0,0.0,0.0,0.0,0.0,0.0,0.0,0.0,0.0,0.0,0.0,0.0,0.0,0.0,0.0,0.0,0.0,0.0,0.0,0.0,0.0,0.0,0.0,0.0,0.0,0.0,0.0,0.0,0.0,0.0,0.0,0.0,0.0,0.0,0.0,0.0,0.0,0.0,0.0,0.0,0.0,0.0,0.0,0.0,0.0,0.0,0.0,0.0,0.0,0.0,0.0,0.0,0.0,0.0,0.0,0.0,0.0,0.0,0.0,0.0,0.0,0.0,0.0,0.0,0.0,0.0,0.0,0.0,0.0,0.0,0.0,0.0,0.0,0.0,0.0,0.0,0.0,0.0,0.0,0.0,0.0,0.0,0.0,0.0,0.0,0.0,0.0,0.0,0.0,0.0,0.0,0.0,0.0,0.0,0.0,0.0,0.0,0.0,0.0,0.0,0.0,0.0,0.0,0.0,0.0,0.0,0.0,0.0,0.0,0.0,0.0,0.0,0.0,0.0,0.0,0.0,0.0,0.0,0.0,0.0,0.0,0.0,0.0,0.0,0.0,0.0,0.0,0.0,0.0,0.0,0.0,0.0,0.0,0.0,0.0,0.0,0.0,0.0,0.0,0.0,0.0,0.0,0.0,0.0,0.0,0.0,0.0,0.0,0.0,0.0,0.0,0.0,0.0,0.0,0.0,0.0,0.0,0.0,0.0,0.0,0.0,0.0,0.0,0.0,0.0,0.0,0.0,0.0,0.0,0.0,0.0,0.0,0.0,0.0,0.0,0.0,0.0,0.0,0.0,0.0,0.0,0.0,0.0,0.0,0.0,0.0,0.0,0.0,0.0,0.0,0.0,0.0,0.0,0.0,0.0,0.0,0.0,0.0,0.0,0.0,0.0,0.0,0.0,0.0,0.0,0.0,0.0,0.0,0.0,0.0,0.0,0.0,0.0,0.0,0.0,0.0,0.0,0.0,0.0,0.0,0.0,0.0,0.0,0.0,0.0,0.0,0.0,0.0,0.0,0.0,0.0,0.0,0.0,0.0,0.0,0.0,0.0,0.0,0.0,0.0,0.0,0.0,0.0,0.0,0.0,0.0,0.0,0.0,0.0,0.0,0.0,0.0,0.0,0.0,0.0,0.0,0.0,0.0,0.0,0.0,0.0,0.0,0.0,0.0,0.0,0.0,0.0,0.0,0.0,0.0,0.0,0.0,0.0,0.0,0.0,0.0,0.0,0.0,0.0,0.0,0.0,0.0,0.0,0.0,0.0,0.0,0.0,0.0,0.0,0.0,0.0,0.0,0.0,0.0,0.0,0.0,0.0,0.0,0.0,0.0,0.0,0.0,0.0,0.0,0.0,0.0,0.0,0.0,0.0,0.0,0.0,0.0,0.0,0.0,0.0,0.0,0.0,0.0,0.0,0.0,0.0,0.0,0.0,0.0,0.0,0.0,0.0,0.0,0.0,0.0,0.0,0.0,0.0,0.0,0.0,0.0,0.0,0.0,0.0,0.0,0.0,0.0,0.0,0.0,0.0,0.0,0.0,0.0,0.0,0.0,0.0,0.0,0.0,0.0,0.0,0.0,0.0,0.0,0.0,0.0,0.0,0.0,0.0,0.0,0.0,0.0,0.0,0.0,0.0,0.0,0.0,0.0,0.0,0.0,0.0,0.0,0.0,0.0,0.0,0.0,0.0,0.0,0.0,0.0,0.0,0.0,0.0,0.0,-3.7642,0.0,0.0,0.0,0.0,0.0,0.0,0.0,0.0,0.0,0.0,0.0,0.0,0.0,0.0,0.0,0.0,0.0,0.0,0.0,0.0,0.0,0.0,0.0,0.0,0.0,0.0,0.0,0.0,0.0,0.0,0.0,0.0,0.0,0.0,0.0,0.0,0.0,0.0,0.0,0.0,0.0,0.0,0.0,0.0,0.0,0.0,0.0,0.0,0.0,0.0,0.0,0.0,0.0,0.0,0.0,0.0,0.0,0.0,0.0,0.0,0.0,0.0,0.0,0.0,0.0,0.0,0.0,0.0,0.0,0.0,0.0,0.0,0.0,0.0,0.0,0.0,0.0,0.0,0.0,0.0,0.0,0.0,0.0,0.0,0.0,0.0,0.0,0.0,0.0,0.0,0.0,0.0,0.0,0.0,0.0,0.0,0.0,0.0,0.0,0.0,0.0,0.0,0.0,0.0,0.0,0.0,0.0,0.0,0.0,0.0,-3.9681,-3.8991,-3.8335,-3.8007,-3.7962,0.0,0.0,0.0,0.0,0.0,0.0,0.0,0.0,0.0,0.0,0.0,0.0,0.0,0.0,0.0,0.0,0.0,0.0,0.0,0.0,0.0,0.0,0.0,0.0,0.0,0.0,0.0,0.0,0.0,0.0,0.0,0.0,0.0,0.0,0.0,0.0,0.0,0.0,0.0,0.0,0.0,0.0,0.0,0.0,0.0,0.0,0.0,0.0,0.0,0.0,0.0,0.0,0.0,0.0,0.0,0.0,0.0,0.0,0.0,0.0,0.0,0.0,0.0,0.0,0.0,0.0,0.0,0.0,0.0,0.0,0.0,0.0,0.0,0.0,0.0,0.0,0.0,0.0,0.0,0.0,0.0,0.0,0.0,0.0,0.0,0.0,0.0,0.0,0.0,0.0,0.0,0.0,0.0,0.0,0.0,0.0,0.0,0.0,0.0,0.0,0.0,0.0,0.0,0.0,0.0,0.0,0.0,0.0,0.0,0.0,0.0,0.0,-3.9196,-3.8681,-3.8277,0.0,0.0,0.0,0.0,0.0,0.0,0.0,0.0,0.0,0.0,0.0,0.0,0.0,0.0,0.0,0.0,0.0,0.0,0.0,0.0,0.0,0.0,0.0,0.0,0.0,0.0,0.0,0.0,0.0,0.0,0.0,0.0,0.0,0.0,0.0,0.0,0.0,0.0,0.0,0.0,0.0,0.0,0.0,0.0,0.0,0.0,0.0,0.0,0.0,0.0,0.0,0.0,0.0,0.0,0.0,0.0,0.0,0.0,0.0,0.0,0.0,0.0,0.0,0.0,0.0,0.0,0.0,0.0,0.0,0.0,0.0,0.0,0.0,0.0,0.0,0.0,0.0,0.0,0.0,0.0,0.0,0.0,0.0,0.0,0.0,0.0,0.0,0.0,0.0,0.0,0.0,0.0,0.0,0.0,0.0,0.0,0.0,0.0,0.0,0.0,0.0,0.0,0.0,0.0,0.0,0.0,0.0,0.0,0.0,0.0,-4.2813,-4.1275,-4.134,0.0,-3.9323,0.0,0.0,0.0,0.0,0.0,0.0,0.0,0.0,0.0,0.0,0.0,0.0,0.0,0.0,0.0,0.0,0.0,0.0,0.0,0.0,0.0,0.0,0.0,0.0,0.0,0.0,0.0,0.0,0.0,0.0,0.0,0.0,0.0,0.0,0.0,0.0,0.0,0.0,0.0,0.0,0.0,0.0,0.0,0.0,0.0,0.0,0.0,0.0,0.0,0.0,0.0,0.0,0.0,0.0,0.0,0.0,0.0,0.0,0.0,0.0,0.0,0.0,0.0,0.0,0.0,0.0,0.0,0.0,0.0,0.0,0.0,0.0,0.0,0.0,0.0,0.0,0.0,0.0,0.0,0.0,0.0,0.0,0.0,0.0,0.0,0.0,0.0,0.0,0.0,0.0,0.0,0.0,0.0,0.0,0.0,0.0,0.0,0.0,0.0,0.0,0.0,0.0,0.0,0.0,0.0,0.0,0.0,0.0,0.0,0.0,-4.3578,-4.2427,-4.1525,-4.0727,0.0,0.0,0.0,0.0,0.0,0.0,0.0,0.0,0.0,0.0,0.0,0.0,0.0,0.0,0.0,0.0,0.0,0.0,0.0,0.0,0.0,0.0,0.0,0.0,0.0,0.0,0.0,0.0,0.0,0.0,0.0,0.0,0.0,0.0,0.0,0.0,0.0,0.0,0.0,0.0,0.0,0.0,0.0,0.0,0.0,0.0,0.0,0.0,0.0,0.0,0.0,0.0,0.0,0.0,0.0,0.0,0.0,0.0,0.0,0.0,0.0,0.0,0.0,0.0,0.0,0.0,0.0,0.0,0.0,0.0,0.0,0.0,0.0,0.0,0.0,0.0,0.0,0.0,0.0,0.0,0.0,0.0,0.0,0.0,0.0,0.0,0.0,0.0,0.0,0.0,0.0,0.0,0.0,0.0,0.0,0.0,0.0,0.0,0.0,0.0,0.0,0.0,0.0,0.0,0.0,0.0,0.0,0.0,0.0,0.0,-4.4488,-4.3932,-4.3094,-4.1698,-4.0889,-4.0862,0.0,0.0,0.0,0.0,0.0,0.0,0.0,0.0,0.0,0.0,0.0,0.0,0.0,0.0,0.0,0.0,0.0,0.0,0.0,0.0,0.0,0.0,0.0,0.0,0.0,0.0,0.0,0.0,0.0,0.0,0.0,0.0,0.0,0.0,0.0,0.0,0.0,0.0,0.0,0.0,0.0,0.0,0.0,0.0,0.0,0.0,0.0,0.0,0.0,0.0,0.0,0.0,0.0,0.0,0.0,0.0,0.0,0.0,0.0,0.0,0.0,0.0,0.0,0.0,0.0,0.0,0.0,0.0,0.0,0.0,0.0,0.0,0.0,0.0,0.0,0.0,0.0,0.0,0.0,0.0,0.0,0.0,0.0,0.0,0.0,0.0,0.0,0.0,0.0,0.0,0.0,0.0,0.0,0.0,0.0,0.0,0.0,0.0,0.0,0.0,0.0,0.0,0.0,0.0,0.0,0.0,0.0,0.0,-4.4025,-4.42,-4.3912,-4.3132,-4.2341,-4.1865,0.0,0.0,0.0,0.0,0.0,0.0,0.0,0.0,0.0,0.0,0.0,0.0,0.0,0.0,0.0,0.0,0.0,0.0,0.0,0.0,0.0,0.0,0.0,0.0,0.0,0.0,0.0,0.0,0.0,0.0,0.0,0.0,0.0,0.0,0.0,0.0,0.0,0.0,0.0,0.0,0.0,0.0,0.0,0.0,0.0,0.0,0.0,0.0,0.0,0.0,0.0,0.0,0.0,0.0,0.0,0.0,0.0,0.0,0.0,0.0,0.0,0.0,0.0,0.0,0.0,0.0,0.0,0.0,0.0,0.0,0.0,0.0,0.0,0.0,0.0,0.0,0.0,0.0,0.0,0.0,0.0,0.0,0.0,0.0,0.0,0.0,0.0,0.0,0.0,0.0,0.0,0.0,0.0,0.0,0.0,0.0,0.0,0.0,0.0,0.0,0.0,0.0,0.0,0.0,0.0,0.0,0.0,0.0,0.0,-4.4987,-4.463,-4.402,-4.3217,-4.2905,-4.2219,0.0,0.0,0.0,0.0,0.0,0.0,0.0,0.0,0.0,0.0,0.0,0.0,0.0,0.0,0.0,0.0,0.0,0.0,0.0,0.0,0.0,0.0,0.0,0.0,0.0,0.0,0.0,0.0,0.0,0.0,0.0,0.0,0.0,0.0,0.0,0.0,0.0,0.0,0.0,0.0,0.0,0.0,0.0,0.0,0.0,0.0,0.0,0.0,0.0,0.0,0.0,0.0,0.0,0.0,0.0,0.0,0.0,0.0,0.0,0.0,0.0,0.0,0.0,0.0,0.0,0.0,0.0,0.0,0.0,0.0,0.0,0.0,0.0,0.0,0.0,0.0,0.0,0.0,0.0,0.0,0.0,0.0,0.0,0.0,0.0,0.0,0.0,0.0,0.0,0.0,0.0,0.0,0.0,0.0,0.0,0.0,0.0,0.0,0.0,0.0,0.0,0.0,0.0,0.0,0.0,0.0,0.0,0.0,0.0,-4.5171,0.0,-4.4518,-4.3666,-4.3666,-4.295,0.0,0.0,0.0,0.0,0.0,0.0,0.0,0.0,0.0,0.0,0.0,0.0,0.0,0.0,0.0,0.0,0.0,0.0,0.0,0.0,0.0,0.0,0.0,0.0,0.0,0.0,0.0,0.0,0.0,0.0,0.0,0.0,0.0,0.0,0.0,0.0,0.0,0.0,0.0,0.0,0.0,0.0,0.0,0.0,0.0,0.0,0.0,0.0,0.0,0.0,0.0,0.0,0.0,0.0,0.0,0.0,0.0,0.0,0.0,0.0,0.0,0.0,0.0,0.0,0.0,0.0,0.0,0.0,0.0,0.0,0.0,0.0,0.0,0.0,0.0,0.0,0.0,0.0,0.0,0.0,0.0,0.0,0.0,0.0,0.0,0.0,0.0,0.0,0.0,0.0,0.0,0.0,0.0,0.0,0.0,0.0,0.0,0.0,0.0,0.0,0.0,0.0,0.0,0.0,0.0,0.0,0.0,0.0,-4.493,-4.441,-4.5364,-4.5373,-4.4524,-4.4597,-4.4214,0.0,0.0,0.0,0.0,0.0,0.0,0.0,0.0,0.0,0.0,0.0,0.0,0.0,0.0,0.0,0.0,0.0,0.0,0.0,0.0,0.0,0.0,0.0,0.0,0.0,0.0,0.0,0.0,0.0,0.0,0.0,0.0,0.0,0.0,0.0,0.0,0.0,0.0,0.0,0.0,0.0,0.0,0.0,0.0,0.0,0.0,0.0,0.0,0.0,0.0,0.0,0.0,0.0,0.0,0.0,0.0,0.0,0.0,0.0,0.0,0.0,0.0,0.0,0.0,0.0,0.0,0.0,0.0,0.0,0.0,0.0,0.0,0.0,0.0,0.0,0.0,0.0,0.0,0.0,0.0,0.0,0.0,0.0,0.0,0.0,0.0,0.0,0.0,0.0,0.0,0.0,0.0,0.0,0.0,0.0,0.0,0.0,0.0,0.0,0.0,0.0,0.0,0.0,0.0,0.0,0.0,0.0,0.0,0.0,-4.5415,-4.5622,-4.5099,-4.3851,-4.4858,-4.4433,0.0,0.0,0.0,0.0,0.0,0.0,0.0,0.0,0.0,0.0,0.0,0.0,0.0,0.0,0.0,0.0,0.0,0.0,0.0,0.0,0.0,0.0,0.0,0.0,0.0,0.0,0.0,0.0,0.0,0.0,0.0,0.0,0.0,0.0,0.0,0.0,0.0,0.0,0.0,0.0,0.0,0.0,0.0,0.0,0.0,0.0,0.0,0.0,0.0,0.0,0.0,0.0,0.0,0.0,0.0,0.0,0.0,0.0,0.0,0.0,0.0,0.0,0.0,0.0,0.0,0.0,0.0,0.0,0.0,0.0,0.0,0.0,0.0,0.0,0.0,0.0,0.0,0.0,0.0,0.0,0.0,0.0,0.0,0.0,0.0,0.0,0.0,0.0,0.0,0.0,0.0,0.0,0.0,0.0,0.0,0.0,0.0,0.0,0.0,0.0,0.0,0.0,0.0,0.0,0.0,0.0,0.0,0.0,0.0,-4.5783,-4.5708,-4.5199,-4.4232,-4.5228,-4.4807,-4.2853,0.0,0.0,0.0,0.0,0.0,0.0,0.0,0.0,0.0,0.0,0.0,0.0,0.0,0.0,0.0,0.0,0.0,0.0,0.0,0.0,0.0,0.0,0.0,0.0,0.0,0.0,0.0,0.0,0.0,0.0,0.0,0.0,0.0,0.0,0.0,0.0,0.0,0.0,0.0,0.0,0.0,0.0,0.0,0.0,0.0,0.0,0.0,0.0,0.0,0.0,0.0,0.0,0.0,0.0,0.0,0.0,0.0,0.0,0.0,0.0,0.0,0.0,0.0,0.0,0.0,0.0,0.0,0.0,0.0,0.0,0.0,0.0,0.0,0.0,0.0,0.0,0.0,0.0,0.0,0.0,0.0,0.0,0.0,0.0,0.0,0.0,0.0,0.0,0.0,0.0,0.0,0.0,0.0,0.0,0.0,0.0,0.0,0.0,0.0,0.0,0.0,0.0,0.0,0.0,0.0,0.0,0.0,0.0,-4.5587,-4.5587,-4.5557,-4.5495,-4.5615,-4.5248,0.0,0.0,0.0,0.0,0.0,0.0,0.0,0.0,0.0,0.0,0.0,0.0,0.0,0.0,0.0,0.0,0.0,0.0,0.0,0.0,0.0,0.0,0.0,0.0,0.0,0.0,0.0,0.0,0.0,0.0,0.0,0.0,0.0,0.0,0.0,0.0,0.0,0.0,0.0,0.0,0.0,0.0,0.0,0.0,0.0,0.0,0.0,0.0,0.0,0.0,0.0,0.0,0.0,0.0,0.0,0.0,0.0,0.0,0.0,0.0,0.0,0.0,0.0,0.0,0.0,0.0,0.0,0.0,0.0,0.0,0.0,0.0,0.0,0.0,0.0,0.0,0.0,0.0,0.0,0.0,0.0,0.0,0.0,0.0,0.0,0.0,0.0,0.0,0.0,0.0,0.0,0.0,0.0,0.0,0.0,0.0,0.0,0.0,0.0,0.0,0.0,0.0,0.0,0.0,0.0,0.0,0.0,0.0,0.0,-4.5467,-4.541,-4.5149,-4.4689,-4.5199,-4.509,0.0,0.0,0.0,0.0,0.0,0.0,0.0,0.0,0.0,0.0,0.0,0.0,0.0,0.0,0.0,0.0,0.0,0.0,0.0,0.0,0.0,0.0,0.0,0.0,0.0,0.0,0.0,0.0,0.0,0.0,0.0,0.0,0.0,0.0,0.0,0.0,0.0,0.0,0.0,0.0,0.0,0.0,0.0,0.0,0.0,0.0,0.0,0.0,0.0,0.0,0.0,0.0,0.0,0.0,0.0,0.0,0.0,0.0,0.0,0.0,0.0,0.0,0.0,0.0,0.0,0.0,0.0,0.0,0.0,0.0,0.0,0.0,0.0,0.0,0.0,0.0,0.0,0.0,0.0,0.0,0.0,0.0,0.0,0.0,0.0,0.0,0.0,0.0,0.0,0.0,0.0,0.0,0.0,0.0,0.0,0.0,0.0,0.0,0.0,0.0,0.0,0.0,0.0,0.0,0.0,0.0,0.0,0.0,-4.5288,-4.5154,-4.5246,-4.5102,-4.4734,-4.5151,-4.517,0.0,0.0,0.0,0.0,0.0,0.0,0.0,0.0,0.0,0.0,0.0,0.0,0.0,0.0,0.0,0.0,0.0,0.0,0.0,0.0,0.0,0.0,0.0,0.0,0.0,0.0,0.0,0.0,0.0,0.0,0.0,0.0,0.0,0.0,0.0,0.0,0.0,0.0,0.0,0.0,0.0,0.0,0.0,0.0,0.0,0.0,0.0,0.0,0.0,0.0,0.0,0.0,0.0,0.0,0.0,0.0,0.0,0.0,0.0,0.0,0.0,0.0,0.0,0.0,0.0,0.0,0.0,0.0,0.0,0.0,0.0,0.0,0.0,0.0,0.0,0.0,0.0,0.0,0.0,0.0,0.0,0.0,0.0,0.0,0.0,0.0,0.0,0.0,0.0,0.0,0.0,0.0,0.0,0.0,0.0,0.0,0.0,0.0,0.0,0.0,0.0,0.0,0.0,0.0,0.0,0.0,0.0,0.0,-4.5109,-4.48,-4.5121,-4.5286,-4.5246,-4.5338,-4.5348,0.0,0.0,0.0,0.0,0.0,0.0,0.0,0.0,0.0,0.0,0.0,0.0,0.0,0.0,0.0,0.0,0.0,0.0,0.0,0.0,0.0,0.0,0.0,0.0,0.0,0.0,0.0,0.0,0.0,0.0,0.0,0.0,0.0,0.0,0.0,0.0,0.0,0.0,0.0,0.0,0.0,0.0,0.0,0.0,0.0,0.0,0.0,0.0,0.0,0.0,0.0,0.0,0.0,0.0,0.0,0.0,0.0,0.0,0.0,0.0,0.0,0.0,0.0,0.0,0.0,0.0,0.0,0.0,0.0,0.0,0.0,0.0,0.0,0.0,0.0,0.0,0.0,0.0,0.0,0.0,0.0,0.0,0.0,0.0,0.0,0.0,0.0,0.0,0.0,0.0,0.0,0.0,0.0,0.0,0.0,0.0,0.0,0.0,0.0,0.0,0.0,0.0,0.0,0.0,0.0,0.0,0.0,0.0,-4.4868,-4.48,-4.5121,-4.5154,-4.4903,-4.5184,-4.5317,0.0,0.0,0.0,0.0,0.0,0.0,0.0,0.0,0.0,0.0,0.0,0.0,0.0,0.0,0.0,0.0,0.0,0.0,0.0,0.0,0.0,0.0,0.0,0.0,0.0,0.0,0.0,0.0,0.0,0.0,0.0,0.0,0.0,0.0,0.0,0.0,0.0,0.0,0.0,0.0,0.0,0.0,0.0,0.0,0.0,0.0,0.0,0.0,-3.7212,0.0,0.0,0.0,0.0,0.0,0.0,0.0,0.0,0.0,0.0,0.0,0.0,0.0,0.0,0.0,0.0,0.0,0.0,0.0,0.0,0.0,0.0,0.0,0.0,0.0,0.0,0.0,0.0,0.0,0.0,0.0,0.0,0.0,0.0,0.0,0.0,0.0,0.0,0.0,0.0,0.0,0.0,0.0,0.0,0.0,0.0,0.0,0.0,0.0,0.0,0.0,0.0,0.0,0.0,0.0,0.0,0.0,0.0,0.0,-4.4487,-4.4519,-4.4826,-4.4879,-4.4726,-4.4868,-4.5,0.0,0.0,0.0,0.0,0.0,0.0,0.0,0.0,0.0,0.0,0.0,0.0,0.0,0.0,0.0,0.0,0.0,0.0,0.0,0.0,0.0,0.0,0.0,0.0,0.0,0.0,0.0,0.0,0.0,0.0,0.0,0.0,0.0,0.0,0.0,0.0,0.0,0.0,0.0,0.0,0.0,0.0,0.0,0.0,0.0,0.0,0.0,0.0,0.0,0.0,0.0,0.0,0.0,0.0,0.0,0.0,0.0,0.0,0.0,0.0,0.0,0.0,0.0,0.0,0.0,0.0,0.0,0.0,0.0,0.0,0.0,0.0,0.0,0.0,0.0,0.0,0.0,0.0,0.0,0.0,0.0,0.0,0.0,0.0,0.0,0.0,0.0,0.0,0.0,0.0,0.0,0.0,0.0,0.0,0.0,0.0,0.0,0.0,0.0,0.0,0.0,0.0,0.0,0.0,0.0,0.0,0.0,-4.3818,-4.4076,-4.4114,-4.4364,-4.4501,-4.446,-4.446,-4.4533,-4.4631,0.0,0.0,0.0,0.0,0.0,0.0,0.0,0.0,0.0,0.0,0.0,0.0,0.0,0.0,0.0,0.0,0.0,0.0,0.0,0.0,0.0,0.0,0.0,0.0,0.0,0.0,0.0,0.0,0.0,0.0,0.0,0.0,0.0,0.0,0.0,0.0,0.0,0.0,-4.0073,-4.0971,0.0,0.0,0.0,0.0,0.0,0.0,0.0,0.0,-3.6658,0.0,0.0,0.0,0.0,0.0,0.0,0.0,0.0,0.0,0.0,0.0,0.0,0.0,0.0,0.0,0.0,0.0,0.0,0.0,0.0,0.0,0.0,0.0,0.0,0.0,0.0,0.0,0.0,0.0,0.0,0.0,0.0,0.0,0.0,0.0,0.0,0.0,0.0,0.0,0.0,0.0,0.0,0.0,0.0,0.0,0.0,0.0,0.0,0.0,0.0,0.0,0.0,0.0,0.0,0.0,0.0,-4.3251,-4.3644,-4.3836,-4.3788,-4.4028,-4.4073,-4.3849,-4.3852,-4.3881,-4.3958,0.0,0.0,0.0,0.0,0.0,0.0,0.0,0.0,0.0,0.0,0.0,0.0,0.0,0.0,0.0,0.0,0.0,0.0,0.0,0.0,0.0,0.0,0.0,0.0,0.0,0.0,0.0,0.0,0.0,0.0,0.0,0.0,0.0,0.0,0.0,0.0,0.0,0.0,0.0,-4.1294,-4.1705,0.0,0.0,0.0,0.0,0.0,0.0,0.0,0.0,-3.5616,0.0,0.0,0.0,0.0,0.0,0.0,0.0,0.0,0.0,0.0,0.0,0.0,0.0,0.0,0.0,0.0,0.0,0.0,0.0,0.0,0.0,0.0,0.0,0.0,0.0,0.0,0.0,0.0,0.0,0.0,0.0,0.0,0.0,0.0,0.0,0.0,0.0,0.0,0.0,0.0,0.0,0.0,0.0,0.0,0.0,0.0,0.0,0.0,0.0,0.0,0.0,0.0,0.0,0.0,0.0,-4.3123,-4.3051,-4.3141,-4.3525,-4.3689,-4.367,-4.354,-4.3542,-4.351,0.0,0.0,0.0,0.0,0.0,0.0,0.0,0.0,0.0,0.0,0.0,0.0,0.0,0.0,0.0,0.0,0.0,0.0,0.0,0.0,0.0,0.0,0.0,0.0,0.0,0.0,0.0,0.0,0.0,0.0,0.0,0.0,0.0,0.0,0.0,0.0,0.0,0.0,0.0,0.0,-4.1248,-4.1261,-4.1071,0.0,0.0,0.0,0.0,0.0,0.0,-3.6699,-3.5721,0.0,0.0,0.0,0.0,0.0,0.0,0.0,0.0,0.0,0.0,0.0,0.0,0.0,0.0,0.0,0.0,0.0,0.0,0.0,0.0,0.0,0.0,0.0,0.0,0.0,0.0,0.0,0.0,0.0,0.0,0.0,0.0,0.0,0.0,0.0,0.0,0.0,0.0,0.0,0.0,0.0,0.0,0.0,0.0,0.0,0.0,0.0,0.0,0.0,0.0,0.0,0.0,0.0,0.0,0.0,-4.3012,-4.2516,-4.2598,-4.3266,-4.332,-4.3301,-4.3284,-4.3213,-4.3142,0.0,0.0,0.0,0.0,0.0,0.0,0.0,0.0,0.0,0.0,0.0,0.0,0.0,0.0,0.0,0.0,0.0,0.0,0.0,0.0,0.0,0.0,0.0,0.0,0.0,0.0,0.0,0.0,0.0,0.0,0.0,0.0,0.0,0.0,0.0,0.0,0.0,0.0,0.0,0.0,0.0,-4.0663,-4.0373,-4.0345,0.0,0.0,0.0,0.0,-3.7542,-3.6882,0.0,0.0,0.0,0.0,0.0,0.0,0.0,0.0,0.0,0.0,0.0,0.0,0.0,0.0,0.0,0.0,0.0,0.0,0.0,0.0,0.0,0.0,0.0,0.0,0.0,0.0,0.0,0.0,0.0,0.0,0.0,0.0,0.0,0.0,0.0,0.0,0.0,0.0,0.0,0.0,0.0,0.0,0.0,0.0,0.0,0.0,0.0,0.0,0.0,0.0,0.0,0.0,0.0,0.0,0.0,0.0,-4.2863,-4.2575,-4.2575,-4.2939,-4.2957,-4.2957,-4.2957,-4.2557,-4.2575,0.0,0.0,0.0,0.0,0.0,0.0,0.0,0.0,0.0,0.0,0.0,0.0,0.0,0.0,0.0,0.0,0.0,0.0,0.0,0.0,0.0,0.0,0.0,0.0,0.0,0.0,0.0,0.0,0.0,0.0,0.0,0.0,0.0,0.0,0.0,0.0,0.0,0.0,0.0,0.0,0.0,-4.0097,-4.0945,-4.0519,-4.0163,0.0,0.0,-3.9481,-3.7882,-3.7523,0.0,0.0,0.0,0.0,0.0,0.0,0.0,0.0,0.0,0.0,0.0,0.0,0.0,0.0,0.0,0.0,0.0,0.0,0.0,0.0,0.0,0.0,0.0,0.0,0.0,0.0,0.0,0.0,0.0,0.0,0.0,0.0,0.0,0.0,0.0,0.0,0.0,0.0,0.0,0.0,0.0,0.0,0.0,0.0,0.0,0.0,0.0,0.0,0.0,0.0,0.0,0.0,0.0,0.0,0.0,-4.1432,-4.2056,-4.1635,-4.1613,-4.2098,-4.208,-4.2098,-4.2098,-4.1909,-4.1931,0.0,0.0,0.0,0.0,0.0,0.0,0.0,0.0,0.0,0.0,0.0,0.0,0.0,0.0,0.0,0.0,0.0,0.0,0.0,0.0,0.0,0.0,0.0,0.0,0.0,0.0,0.0,0.0,0.0,0.0,0.0,0.0,0.0,0.0,0.0,0.0,0.0,0.0,0.0,0.0,0.0,0.0,-3.9494,-3.9104,0.0,0.0,0.0,-3.8109,-3.6987,0.0,0.0,0.0,0.0,0.0,0.0,0.0,0.0,0.0,0.0,0.0,0.0,0.0,0.0,0.0,0.0,0.0,0.0,0.0,0.0,0.0,0.0,0.0,0.0,0.0,0.0,0.0,0.0,0.0,0.0,0.0,0.0,0.0,0.0,0.0,0.0,0.0,0.0,0.0,0.0,0.0,0.0,0.0,0.0,0.0,0.0,0.0,0.0,0.0,0.0,0.0,0.0,0.0,0.0,0.0,0.0,0.0,-4.1135,-4.0775,-4.0821,-4.1375,-4.1397,-4.1415,-4.1415,-4.1281,0.0,0.0,0.0,0.0,0.0,0.0,0.0,0.0,0.0,0.0,0.0,0.0,0.0,0.0,0.0,0.0,0.0,0.0,0.0,0.0,0.0,0.0,0.0,0.0,0.0,0.0,0.0,-3.3293,0.0,0.0,0.0,0.0,0.0,0.0,0.0,0.0,0.0,0.0,0.0,0.0,0.0,0.0,-3.9012,-3.7885,-3.7495,-3.7102,0.0,0.0,-3.6819,-3.6317,-3.6248,-3.6112,0.0,0.0,0.0,0.0,0.0,0.0,0.0,0.0,0.0,0.0,0.0,0.0,0.0,0.0,0.0,0.0,0.0,0.0,0.0,0.0,0.0,0.0,0.0,0.0,0.0,0.0,0.0,0.0,0.0,0.0,0.0,0.0,0.0,0.0,0.0,0.0,0.0,0.0,0.0,0.0,0.0,0.0,0.0,0.0,0.0,0.0,0.0,0.0,0.0,0.0,0.0,0.0,0.0,0.0,-3.9361,-4.025,-4.0375,-4.0631,-4.111,-4.1133,-4.1133,-4.111,-4.0703,-4.0744,0.0,0.0,0.0,0.0,0.0,0.0,0.0,0.0,0.0,0.0,0.0,0.0,0.0,0.0,0.0,0.0,0.0,0.0,0.0,0.0,0.0,0.0,0.0,0.0,0.0,0.0,0.0,0.0,0.0,0.0,0.0,0.0,0.0,0.0,0.0,0.0,0.0,0.0,0.0,0.0,0.0,-3.6916,-3.682,-3.6141,-3.5722,0.0,0.0,-3.6287,-3.6615,-3.6638,-3.6516,-3.6127,0.0,0.0,0.0,0.0,0.0,0.0,0.0,0.0,0.0,0.0,0.0,0.0,0.0,0.0,0.0,0.0,0.0,0.0,0.0,0.0,0.0,0.0,0.0,0.0,0.0,0.0,0.0,0.0,0.0,0.0,0.0,0.0,0.0,0.0,0.0,0.0,0.0,0.0,0.0,0.0,0.0,0.0,0.0,0.0,0.0,0.0,0.0,0.0,0.0,0.0,0.0,0.0,0.0,-3.8773,-3.9204,-3.9631,-3.9961,-4.0245,-4.0228,-4.0211,-4.0228,-3.9647,-3.9274,0.0,0.0,0.0,0.0,0.0,0.0,0.0,0.0,0.0,0.0,0.0,0.0,0.0,0.0,0.0,0.0,0.0,0.0,0.0,0.0,0.0,0.0,0.0,0.0,0.0,0.0,0.0,0.0,-3.2249,-3.2379,-3.306,0.0,0.0,0.0,0.0,0.0,0.0,0.0,0.0,0.0,0.0,-3.6299,-3.5994,-3.5508,0.0,0.0,-3.5599,-3.5825,-3.6088,-3.6255,-3.6405,-3.6622,-3.6336,0.0,0.0,0.0,0.0,0.0,0.0,0.0,0.0,0.0,0.0,0.0,0.0,0.0,0.0,0.0,0.0,0.0,0.0,0.0,0.0,0.0,0.0,0.0,0.0,0.0,0.0,0.0,0.0,0.0,0.0,0.0,0.0,0.0,0.0,0.0,0.0,0.0,0.0,0.0,0.0,0.0,0.0,0.0,0.0,0.0,0.0,0.0,0.0,0.0,0.0,0.0,0.0,-3.7814,-3.7934,-3.8529,-3.8909,-3.9001,-3.9017,-3.9017,-3.8974,-3.8541,-3.8114,0.0,0.0,0.0,0.0,0.0,0.0,0.0,0.0,0.0,0.0,0.0,0.0,0.0,0.0,0.0,0.0,0.0,0.0,0.0,0.0,0.0,0.0,0.0,0.0,0.0,0.0,0.0,0.0,-3.2005,-3.2118,-3.2743,0.0,0.0,0.0,0.0,0.0,0.0,0.0,0.0,0.0,0.0,-3.5323,-3.4991,-3.4823,-3.4816,-3.5015,-3.5184,-3.5334,-3.5588,-3.5744,-3.5989,-3.6474,0.0,0.0,0.0,0.0,0.0,0.0,0.0,0.0,0.0,0.0,0.0,0.0,0.0,0.0,0.0,0.0,0.0,0.0,0.0,0.0,0.0,0.0,0.0,0.0,0.0,0.0,0.0,0.0,0.0,0.0,-3.441,0.0,0.0,0.0,0.0,0.0,0.0,0.0,0.0,0.0,0.0,0.0,0.0,0.0,0.0,0.0,0.0,0.0,0.0,0.0,0.0,0.0,0.0,-3.6381,-3.6354,-3.7121,-3.7488,-3.7472,-3.7442,-3.7472,-3.7472,-3.7413,-3.7472,-3.7555,0.0,0.0,0.0,0.0,0.0,0.0,0.0,0.0,0.0,0.0,0.0,0.0,0.0,0.0,0.0,0.0,0.0,0.0,0.0,0.0,0.0,0.0,0.0,0.0,0.0,0.0,-3.2805,-3.2853,-3.2684,0.0,0.0,0.0,0.0,0.0,0.0,0.0,0.0,0.0,0.0,-3.3715,-3.3752,-3.3745,-3.3958,-3.4275,-3.4643,-3.4715,-3.4859,-3.5178,-3.5224,-3.5299,0.0,0.0,0.0,0.0,0.0,0.0,0.0,0.0,0.0,0.0,0.0,0.0,0.0,0.0,0.0,0.0,0.0,0.0,0.0,0.0,0.0,0.0,0.0,0.0,0.0,0.0,0.0,-3.2491,-3.2894,0.0,0.0,0.0,0.0,0.0,0.0,0.0,0.0,0.0,0.0,0.0,-3.2571,-3.196,0.0,0.0,0.0,0.0,0.0,0.0,0.0,0.0,0.0,0.0,0.0,0.0,-3.629,-3.6326,-3.7041,-3.7383,-3.7383,-3.7383,-3.7383,-3.7383,-3.6966,-3.6536,-3.607,0.0,0.0,0.0,0.0,0.0,0.0,0.0,0.0,0.0,0.0,0.0,0.0,0.0,0.0,0.0,0.0,0.0,0.0,0.0,0.0,0.0,0.0,0.0,0.0,0.0,-3.2612,0.0,0.0,0.0,0.0,0.0,0.0,0.0,0.0,0.0,0.0,0.0,-3.3264,-3.2581,-3.2765,-3.2953,-3.298,-3.3471,-3.3873,0.0,0.0,0.0,0.0,0.0,0.0,0.0,0.0,0.0,0.0,0.0,0.0,0.0,0.0,-3.3884,-3.3839,-3.4111,-3.4173,-3.3639,0.0,0.0,0.0,0.0,0.0,0.0,0.0,0.0,0.0,0.0,0.0,0.0,0.0,0.0,-3.2199,0.0,-3.2593,0.0,0.0,0.0,0.0,0.0,0.0,0.0,0.0,-3.1193,-3.1057,-3.1586,-3.1007,-3.1007,0.0,-3.1162,-3.1443,0.0,0.0,0.0,0.0,0.0,0.0,0.0,0.0,-3.5951,-3.5923,-3.6457,-3.6723,-3.6723,-3.6738,-3.6738,-3.6738,-3.6321,-3.5872,-3.5368,-3.4485,-3.3758,0.0,0.0,0.0,0.0,0.0,0.0,0.0,0.0,0.0,0.0,0.0,0.0,0.0,0.0,0.0,0.0,0.0,0.0,0.0,0.0,0.0,0.0,0.0,-3.2306,0.0,0.0,0.0,0.0,0.0,0.0,0.0,0.0,0.0,-3.2541,-3.2469,-3.2191,-3.1735,-3.2169,-3.2601,-3.2802,0.0,0.0,0.0,0.0,0.0,0.0,0.0,-3.4488,-3.4712,-3.4948,-3.5237,-3.5459,-3.522,-3.4937,-3.4695,0.0,0.0,-3.4219,-3.4395,-3.4478,-3.4058,-3.411,-3.407,-3.3537,-3.3348,-3.3378,0.0,0.0,0.0,0.0,0.0,0.0,0.0,0.0,-3.233,-3.228,0.0,-3.2294,0.0,0.0,0.0,0.0,0.0,-3.1449,0.0,0.0,-3.0126,-2.9753,-2.9779,-2.9779,-2.9792,-2.9779,-2.9818,-3.0292,-3.1088,-3.0788,0.0,0.0,0.0,0.0,0.0,0.0,-3.5202,-3.5018,-3.5337,-3.5472,-3.5472,-3.5472,-3.5424,-3.5392,-3.5392,-3.5377,-3.5329,-3.4072,-3.3295,-3.3039,-3.2017,0.0,0.0,0.0,0.0,0.0,0.0,0.0,0.0,0.0,0.0,0.0,0.0,0.0,0.0,0.0,0.0,0.0,0.0,0.0,0.0,-3.2078,0.0,0.0,0.0,0.0,0.0,0.0,0.0,0.0,0.0,0.0,-3.0716,-3.1131,-3.1324,-3.1221,0.0,0.0,0.0,0.0,-3.2979,-3.3396,-3.298,-3.2769,-3.3171,-3.3266,-3.3309,-3.3293,0.0,0.0,-3.4546,-3.4325,-3.4308,-3.5015,-3.4809,-3.4419,-3.3668,-3.3799,-3.4011,-3.4256,-3.4335,-3.4316,-3.4229,-3.3601,-3.3259,-2.9603,0.0,0.0,0.0,0.0,-2.9553,-2.9024,-2.8657,-2.85,-2.8539,-2.867,-2.8657,0.0,0.0,0.0,0.0,0.0,0.0,-2.8548,-2.856,-2.8068,-2.8211,-2.8882,-2.887,-2.9197,-2.9792,-2.9779,-2.9934,-3.0203,-3.006,-3.0963,-3.2795,0.0,0.0,0.0,0.0,-3.3907,-3.342,-3.4455,-3.482,-3.4288,-3.4288,-3.4022,-3.3443,-3.3429,-3.3429,-3.3443,-3.3051,-3.2583,-3.2047,-3.1704,0.0,0.0,0.0,0.0,0.0,0.0,0.0,0.0,0.0,0.0,0.0,0.0,0.0,0.0,0.0,0.0,0.0,0.0,0.0,-3.2092,-3.146,-3.1115,0.0,0.0,0.0,0.0,0.0,0.0,0.0,0.0,0.0,-3.0778,-3.0807,-3.0951,0.0,0.0,-3.2312,-3.2486,-3.2876,-3.3066,-3.2778,-3.2725,0.0,-3.233,-3.2602,-3.2792,-3.2792,-3.3145,-3.3477,-3.3668,-3.3607,-3.3591,-3.3832,-3.3771,-3.3687,-3.3795,-3.4554,-3.4981,-3.4689,-3.4737,-3.476,-3.4261,-3.4086,-3.4264,-2.8224,-2.9613,-2.9248,-2.8802,-2.8314,-2.7676,-2.7227,-2.6853,-2.6741,-2.673,-2.6853,-2.6853,-2.6853,-2.6853,-2.7098,0.0,0.0,0.0,-2.7354,-2.7354,-2.718,-2.7395,-2.7931,-2.8343,-2.8779,-2.93,-2.9663,-2.9779,-2.9779,-2.9779,-3.0652,-3.2284,0.0,0.0,-3.2782,-3.3155,-3.3045,-3.2536,-3.3478,-3.3768,-3.3339,-3.3304,-3.3094,-3.2629,-3.2593,-3.2593,-3.2607,-3.2335,-3.1942,-3.1482,-3.1273,-3.0953,0.0,0.0,0.0,0.0,0.0,0.0,0.0,0.0,0.0,0.0,0.0,-3.1474,-3.1462,0.0,0.0,0.0,-3.0241,-3.0784,-3.1233,-3.0509,0.0,0.0,0.0,0.0,0.0,0.0,0.0,-2.9298,-2.9231,-2.9403,-2.9962,-3.0062,-3.0474,-3.1694,-3.2103,-3.2355,-3.2611,0.0,-3.2791,-3.2381,-3.2225,-3.202,-3.1612,-3.1764,-3.2061,-3.2367,-3.2629,-3.2958,-3.324,-3.3293,-3.3293,-3.3293,-3.3293,-3.3372,-3.3575,-3.4382,-3.5011,-3.4891,-3.5134,-3.5307,-3.4998,-3.4891,-3.4941,-2.7459,-2.736,-2.6659,-2.6388,-2.6471,-2.6343,-2.6332,-2.6321,-2.6287,-2.6265,-2.6276,-2.6265,-2.6307,-2.6276,-2.6483,0.0,-2.6565,-2.6782,-2.6812,-2.6823,-2.6853,-2.6905,-2.7028,-2.7851,-2.8331,-2.841,-2.9209,-2.9585,-2.9546,-2.9585,-3.0037,-3.0944,-3.0981,-3.1375,-3.2164,-3.2393,-3.2357,-3.2105,-3.2429,-3.2536,-3.2451,-3.2451,-3.2415,-3.2357,-3.2393,-3.2357,-3.2343,-3.1709,-3.1281,-3.1093,-3.0679,-3.0352,-3.0157,0.0,0.0,0.0,0.0,0.0,0.0,0.0,0.0,0.0,0.0,0.0,0.0,0.0,0.0,0.0,-2.9,0.0,-2.9883,-2.9482,0.0,0.0,0.0,-2.8725,-2.8513,-2.8146,-2.7926,-2.7964,0.0,0.0,-2.88,-2.915,-3.0072,-3.1993,-3.2345,-3.2576,-3.3206,-3.2854,-3.2413,-3.2184,-3.1628,-3.1151,-3.0924,-3.0925,-3.1219,-3.1849,-3.2018,-3.2256,-3.2877,-3.3107,-3.3134,-3.3107,-3.3187,-3.3214,-3.3229,-3.3549,-3.3995,-3.4797,-3.5402,-3.5793,-3.5882,-3.561,-3.5353,-2.5522,-2.5189,-2.4977,-2.5468,-2.6321,-2.515,-2.4797,-2.4908,-2.4438,-2.4294,-2.4466,-2.4413,-2.4466,-2.4413,-2.4498,-2.4498,-2.4551,-2.4775,-2.4765,-2.4584,-2.4946,-2.539,-2.5902,-2.6276,-2.6812,-2.7395,-2.7649,-2.7718,-2.773,-2.7758,-2.8199,-2.9108,-2.9147,-2.9923,-3.1389,-3.1352,-3.1007,-3.0394,-3.1613,-3.1915,-3.1328,-3.1328,-3.1044,-3.0495,-3.047,-3.047,-3.047,-3.0279,-3.0177,-3.0139,-3.0012,-2.9936,-2.9897,-2.996,0.0,0.0,0.0,0.0,0.0,0.0,0.0,0.0,0.0,-2.9524,-2.9524,0.0,-2.9277,0.0,-2.7988,-2.8669,-2.9248,-2.9554,0.0,0.0,-2.9014,-2.8991,-2.8919,-2.8446,-2.8309,-2.8755,-2.8699,-2.8825,-2.944,-2.9821,-3.0312,-3.0958,-3.1558,-3.2275,-3.3157,-3.3178,-3.2756,-3.1843,-3.1514,-3.1079,-3.0187,-3.0266,-3.0643,-3.116,-3.1277,-3.1335,-3.1508,-3.1866,-3.2092,-3.212,-3.237,-3.259,-3.2617,-3.2861,-3.3219,-3.3649,-3.4552,-3.5351,-3.5436,-3.5613,-3.5786,-2.5225,-2.5,-2.4962,-2.5414,-2.5997,-2.4774,-2.4289,-2.4415,-2.4043,-2.388,-2.3815,-2.3583,-2.3493,-2.3493,-2.358,-2.3677,-2.3677,-2.3937,-2.3927,-2.3797,-2.4057,-2.4391,-2.4787,-2.5368,-2.5902,-2.64,-2.6853,-2.7098,-2.7098,-2.7098,-2.7354,-2.7879,-2.7879,-2.8573,-2.9973,-3.0279,-3.0203,-2.983,-3.0659,-3.0859,-3.0444,-3.0406,-3.0203,-2.9818,-2.9779,-2.9779,-2.9779,-2.9417,-2.9378,-2.9753,-2.9429,-2.9209,-2.9209,-2.9314,-2.9197,0.0,0.0,0.0,0.0,0.0,0.0,0.0,0.0,0.0,0.0,0.0,-2.8215,-2.7331,-2.7208,-2.7419,-2.8023,-2.8272,-2.825,-2.7955,-2.8143,-2.8223,-2.8235,-2.7945,-2.7874,-2.8239,-2.8158,-2.8204,-2.8533,-2.8794,-2.9135,-2.9666,-3.0152,-3.0869,-3.1951,-3.2305,-3.2041,-3.1122,-3.1001,-3.074,-2.9743,-2.9806,-3.0174,-3.0583,-3.0703,-3.0732,-3.097,-3.119,-3.1379,-3.1408,-3.1781,-3.2092,-3.2107,-3.2413,-3.2715,-3.2922,-3.3608,-3.4333,-3.4712,-3.522,-3.5579,-2.5284,-2.5284,-2.5284,-2.5284,-2.5226,-2.4468,-2.4262,-2.4502,-2.4434,-2.418,-2.376,-2.3276,-2.3101,-2.3101,-2.3319,-2.346,-2.346,-2.3667,-2.3754,-2.3711,-2.3754,-2.3797,-2.3787,-2.4787,-2.5274,-2.5326,-2.6235,-2.6689,-2.67,-2.67,-2.673,-2.6853,-2.6853,-2.7342,-2.8303,-2.904,-2.9507,-2.9624,-2.9624,-2.9714,-2.9779,-2.9714,-2.9624,-2.9624,-2.9507,-2.9456,-2.9417,-2.8712,-2.8673,-2.9378,-2.8712,-2.8343,-2.8343,-2.8343,-2.8051,0.0,-2.7476,0.0,0.0,0.0,0.0,0.0,0.0,0.0,0.0,-2.6577,-2.6812,-2.7493,-2.6584,-2.6118,-2.667,-2.6561,-2.6471,-2.6445,-2.6828,-2.7097,-2.7097,-2.7149,-2.719,-2.719,-2.719,-2.719,-2.7272,-2.719,-2.7563,-2.8414,-2.8542,-2.8963,-3.0112,-3.0725,-3.0742,-3.0144,-3.016,-2.9987,-2.9698,-2.9602,-2.9744,-3.0113,-3.019,-3.0342,-3.0703,-3.0837,-3.0911,-3.094,-3.1292,-3.161,-3.1667,-3.2035,-3.2315,-3.2437,-3.2841,-3.3339,-3.3962,-3.4592,-3.5025,-2.3094,-2.3094,-2.3094,-2.3103,-2.3085,-2.2936,-2.3675,-2.4922,-2.457,-2.4189,-2.3769,-2.333,-2.3101,-2.3101,-2.3144,-2.3188,-2.3188,-2.345,-2.3406,-2.3222,-2.3614,-2.3711,-2.358,-2.3917,-2.4133,-2.4133,-2.4337,-2.4413,-2.4423,-2.4423,-2.4776,-2.5462,-2.5683,-2.6235,-2.711,0.0,0.0,0.0,-2.8764,-2.9091,-2.9753,-2.9091,-2.8752,-2.87,-2.8011,0.0,-2.7597,-2.7447,-2.7435,-2.7609,-2.7435,0.0,0.0,0.0,0.0,0.0,0.0,0.0,0.0,0.0,0.0,0.0,-2.6138,-2.6224,-2.6193,-2.5421,-2.5327,-2.6135,-2.6075,-2.6023,-2.6065,-2.6403,-2.6427,-2.6065,-2.6373,-2.6622,-2.6663,-2.6962,-2.719,-2.719,-2.719,-2.719,-2.719,-2.719,-2.733,-2.7678,-2.739,-2.7353,-2.7786,-2.8988,-2.9434,-2.8743,-2.8745,-2.9068,-2.9554,-2.954,-2.9495,-2.9727,-2.9727,-2.9789,-2.9898,-3.0221,-3.0403,-3.0433,-3.0807,-3.1263,-3.1596,-3.1752,-3.1951,-3.2299,-3.2492,-3.2722,-3.3261,-3.3827,-3.4227,-2.2492,-2.2492,-2.2492,-2.2492,0.0,-2.2492,-2.298,-2.3825,-2.4114,-2.421,-2.4072,-2.3652,-2.3296,-2.3101,-2.3101,-2.3101,-2.3101,-2.3232,-2.3232,-2.3091,-2.3353,-2.3406,-2.3319,-2.3547,-2.3667,-2.3634,-2.3754,-2.3797,-2.3797,-2.3797,-2.4036,-2.4488,-2.4573,-2.5115,-2.5933,-2.6182,-2.6812,-2.7799,-2.781,-2.7999,-2.8422,-2.8051,-2.781,-2.7799,-2.7354,0.0,0.0,0.0,0.0,0.0,0.0,0.0,0.0,-2.6442,0.0,-2.5852,-2.581,-2.5799,-2.5799,-2.581,-2.5631,-2.5189,-2.5137,-2.5179,-2.5316,-2.4828,-2.4711,-2.5137,-2.5231,-2.523,-2.5211,-2.5626,-2.5797,-2.5623,-2.5926,-2.6207,-2.6249,-2.6592,-2.688,-2.688,-2.7056,-2.719,-2.719,-2.719,-2.7219,-2.733,-2.7175,-2.6845,-2.6582,-2.737,-2.7862,-2.755,-2.7607,-2.794,-2.85,-2.8643,-2.8817,-2.9022,-2.9257,-2.9352,-2.9352,-2.9696,-2.996,-3.0005,-3.0342,-3.0762,-3.097,-3.1175,-3.1495,-3.1908,-3.2064,-3.2231,-3.2707,-3.3224,-3.3595,-2.1937,-2.1937,-2.1937,-2.1937,-2.1937,-2.1937,-2.2038,-2.2282,0.0,0.0,0.0,-2.341,-2.299,-2.2599,-2.2599,-2.2589,-2.2589,-2.2589,-2.2589,-2.2589,-2.2775,-2.2862,-2.2872,-2.3232,-2.3416,-2.346,-2.358,-2.3667,-2.3667,-2.3667,-2.3667,-2.3667,-2.3711,-2.4155,-2.4851,-2.5105,-2.5621,-2.6483,-2.6782,-2.6946,-2.7069,-2.6946,-2.6853,-2.6812,-2.6659,-2.6577,-2.6588,-2.5913,-2.5872,-2.6577,-2.5955,-2.5579,-2.5589,-2.5579,-2.5253,-2.4583,-2.4569,-2.458,-2.4507,-2.4569,-2.458,-2.4507,-2.4507,-2.4507,-2.4507,-2.4507,-2.4507,-2.4507,-2.4507,-2.4507,-2.4507,-2.4828,-2.5073,-2.5084,-2.5506,-2.577,-2.5812,-2.6135,-2.6415,-2.6456,-2.6798,-2.7056,-2.7056,-2.7149,-2.719,-2.7167,-2.7093,-2.6686,-2.5877,-2.5978,-2.6377,-2.658,-2.6693,-2.6917,-2.7411,-2.7591,-2.7802,-2.8365,-2.8656,-2.8862,-2.9035,-2.9226,-2.9415,-2.9415,-2.9744,-2.9976,-3.0129,-3.0433,-3.0837,-3.1306,-3.1508,-3.168,-3.2104,-3.261,-3.305,-1.9783,-1.9732,-1.9732,-1.9732,-1.9724,-1.9783,-2.0277,-2.1159,-2.1902,-2.2056,-2.1773,-2.1342,-2.0959,-2.0602,-2.0593,-2.0593,-2.0593,-2.0593,-2.0593,-2.0638,-2.1516,-2.1917,-2.1917,-2.2784,-2.3144,-2.3188,-2.3178,-2.3188,-2.3188,-2.3188,-2.3178,-2.3222,-2.3406,-2.3711,-2.395,-2.4046,-2.4122,-2.4294,-2.5411,-2.6359,-2.7058,-2.637,-2.5913,-2.5704,-2.502,-2.4615,-2.4615,-2.4487,-2.4572,-2.4861,-2.4743,-2.47,-2.47,-2.47,-2.4615,-2.4518,-2.4869,-2.4921,-2.4538,-2.4859,-2.4921,-2.4549,-2.4507,-2.4507,-2.4507,-2.4507,-2.4507,-2.4507,-2.4507,-2.4507,-2.4497,-2.4583,-2.4625,-2.4668,-2.5041,-2.5285,-2.5327,-2.5717,-2.5968,-2.5979,-2.6343,-2.661,-2.6622,-2.6933,-2.7149,-2.7121,-2.6858,-2.6244,-2.5421,-2.4871,-2.5064,-2.5557,-2.5847,-2.6214,-2.6761,-2.6984,-2.7165,-2.7723,-2.7835,-2.8045,-2.8554,-2.8683,-2.8748,-2.8748,-2.8908,-2.904,-2.9373,-2.9484,-2.9794,-3.0238,-3.0689,-3.1072,-3.1203,-3.1836,-3.2477,-1.9272,-1.9272,-1.9272,-1.9272,-1.9272,-1.9272,-1.9576,-2.0055,-2.0167,-2.0696,-2.1362,-2.1182,-2.0733,-2.0212,-2.0187,-2.0187,-2.0187,-2.0187,-2.0187,-2.0232,-2.0692,-2.0872,-2.0917,-2.132,-2.1498,-2.1552,-2.1507,-2.1774,-2.2325,-2.2334,-2.2599,-2.3057,-2.3232,-2.3319,-2.345,-2.358,-2.3634,-2.3667,-2.4337,-2.4914,-2.5295,-2.4914,-2.4659,-2.4573,-2.4176,-2.397,-2.398,-2.397,-2.4024,-2.41,-2.411,-2.41,-2.4143,-2.4153,-2.4143,-2.412,-2.4571,-2.4788,-2.4715,-2.5021,-2.4983,-2.4549,-2.4507,-2.4507,-2.4507,-2.4507,-2.4507,-2.4507,-2.4507,-2.4507,-2.4507,-2.4507,-2.4507,-2.4507,-2.47,-2.4828,-2.4861,-2.5253,-2.5506,-2.5549,-2.5915,-2.6166,-2.6177,-2.6343,-2.6603,-2.6764,-2.6611,-2.6267,-2.5796,-2.5401,-2.502,-2.4872,-2.4862,-2.5182,-2.5742,-2.5881,-2.6136,-2.6629,-2.6854,-2.7204,-2.7729,-2.796,-2.8203,-2.8522,-2.8587,-2.8683,-2.8881,-2.8926,-2.9135,-2.9515,-2.9811,-3.0133,-3.0435,-3.1043,-3.1905,-1.9168,-1.9272,-1.922,-1.9227,-1.9272,-1.9272,-1.9272,-1.9242,-1.8979,-1.9533,-2.0579,-2.0616,-2.021,-1.9583,-1.955,-1.955,-1.955,-1.955,-1.9559,-1.955,-1.9778,-1.9914,-1.9914,-2.0104,-2.0187,-2.0187,-2.0187,-2.0602,-2.1284,-2.1382,-2.173,-2.2422,-2.2687,-2.2687,-2.2467,-2.2862,-2.3091,-2.3135,-2.344,-2.3711,-2.3797,-2.3797,-2.3787,-2.3754,-2.3754,-2.3754,-2.3754,-2.3711,-2.3754,-2.3797,-2.3797,-2.3797,-2.3797,-2.3797,-2.3797,-2.3837,-2.4354,-2.4805,-2.5066,-2.4838,-2.453,-2.4186,-2.3871,-2.3691,-2.3681,-2.3831,-2.41,-2.4401,-2.4368,-2.4282,-2.4239,-2.4239,-2.4196,-2.409,-2.4003,-2.4003,-2.4046,-2.4476,-2.4818,-2.4861,-2.5327,-2.5675,-2.5591,-2.5728,-2.601,-2.6318,-2.6377,-2.6342,-2.6303,-2.5949,-2.5367,-2.4794,-2.4453,-2.4522,-2.4778,-2.4838,-2.5111,-2.5616,-2.5906,-2.6321,-2.6765,-2.7136,-2.7384,-2.7762,-2.802,-2.8052,-2.8151,-2.8262,-2.8444,-2.8757,-2.9012,-2.9314,-2.9919,-3.0525,-3.1377,-1.8795,-1.922,-1.9018,-1.9078,-1.9272,-1.9279,-1.9272,-1.9228,-1.8928,-1.8706,-1.8671,-1.8268,-1.7988,-1.7581,-1.7645,-1.7645,-1.7652,-1.7598,-1.7645,-1.7738,-1.8519,-1.8926,-1.9018,-1.9778,-2.0187,-2.0141,-2.0096,-2.0141,-2.0322,-2.0367,-2.0413,-2.0548,-2.1364,-2.1373,-2.0737,-2.1418,-2.1872,-2.1882,-2.2731,-2.3353,-2.3754,-2.3797,-2.3721,-2.3547,-2.3547,-2.3547,-2.345,-2.3547,-2.3624,-2.3807,-2.3711,-2.3754,-2.3754,-2.3754,-2.3754,-2.3784,-2.4591,-2.5289,-2.5488,-2.4144,-2.3245,-2.3059,-2.2067,-2.1392,-2.1382,-2.1739,-2.2677,-2.3871,-2.3871,-2.359,-2.358,-2.359,-2.3353,-2.2843,-2.2755,-2.257,-2.2755,-2.3212,-2.3667,-2.3677,-2.4519,-2.502,-2.4488,-2.5062,-2.577,-2.5801,-2.588,-2.5912,-2.5979,-2.5914,-2.5763,-2.5508,-2.515,-2.4705,-2.4519,-2.4273,-2.4574,-2.5004,-2.5111,-2.5429,-2.5884,-2.6092,-2.6161,-2.6607,-2.6688,-2.6973,-2.7121,-2.7222,-2.7636,-2.7908,-2.8287,-2.8821,-2.9611,-3.0224,-3.0999,-1.8527,-1.8743,-1.8646,-1.8691,-1.8795,-1.8966,-1.9078,-1.9034,-1.8477,-1.8281,-1.8247,-1.7757,-1.7403,-1.7286,-1.7286,-1.7286,-1.7286,-1.7286,-1.7286,-1.7326,-1.7738,-1.7924,-1.7971,-1.8288,-1.8457,-1.8465,-1.8511,-1.8834,-1.9376,-1.9914,-2.0187,-2.0232,-2.0638,-2.0602,-2.0232,-2.0602,-2.0818,-2.0827,-2.1186,-2.1507,-2.1765,-2.2809,-2.3353,-2.3276,-2.3276,-2.296,-2.2511,-2.2422,-2.2192,-2.1712,-2.1667,-2.1667,-2.1676,-2.1667,-2.1676,-2.1722,-2.2631,-2.3242,-2.3353,-2.2977,-2.2643,-2.236,-2.1817,-2.1488,-2.145,-2.1319,-2.17,-2.2702,-2.2875,-2.2853,-2.2862,-2.2862,-2.2711,-2.2448,-2.2394,-2.2403,-2.2403,-2.2668,-2.2853,-2.2896,-2.3236,-2.3487,-2.327,-2.3747,-2.436,-2.4754,-2.5052,-2.5314,-2.5725,-2.6043,-2.6075,-2.5871,-2.5761,-2.5497,-2.4832,-2.4625,-2.4609,-2.4571,-2.4539,-2.4754,-2.5194,-2.5358,-2.5476,-2.5791,-2.6047,-2.6358,-2.6748,-2.6816,-2.7087,-2.7356,-2.7623,-2.8157,-2.8917,-2.9251,-2.9797,-1.8265,-1.837,-1.8422,-1.8422,-1.8422,-1.8646,-1.8708,-1.8572,-1.8053,-1.786,-1.792,-1.7384,-1.7099,-1.7138,-1.7232,-1.7286,-1.7286,-1.7286,-1.7286,-1.7286,-1.7286,-1.7286,-1.7286,-1.7286,-1.7286,-1.7286,-1.7333,-1.7692,-1.8427,-1.9376,-1.9687,-1.9513,-1.9695,-1.9687,-1.9467,-1.965,-1.9832,-1.9832,-2.0051,-2.0187,-2.0413,-2.1596,-2.2315,-2.2315,-2.2325,-2.2006,-2.1329,-2.1284,-2.0962,-2.0232,-2.0187,-2.0187,-2.0187,-2.0187,-2.0275,-2.042,-2.1181,-2.1748,-2.1778,-2.191,-2.1847,-2.1485,-2.1182,-2.0923,-2.0835,-2.0554,-2.0554,-2.1024,-2.1461,-2.1699,-2.202,-2.2106,-2.205,-2.1872,-2.1819,-2.1828,-2.1784,-2.1961,-2.2148,-2.2138,-2.2394,-2.2394,-2.2438,-2.2614,-2.2921,-2.3531,-2.3899,-2.4372,-2.4978,-2.5274,-2.5427,-2.5527,-2.5817,-2.5735,-2.5245,-2.513,-2.4912,-2.4579,-2.4455,-2.4555,-2.4754,-2.4778,-2.4814,-2.5099,-2.5441,-2.5721,-2.5965,-2.622,-2.6645,-2.7087,-2.739,-2.7623,-2.8157,-2.8352,-2.8661,-1.795,-1.837,-1.8422,-1.837,-1.8422,-1.8422,-1.8254,-1.8046,-1.7645,-1.7394,-1.7168,-1.6831,-1.6629,-1.6683,-1.7091,-1.7279,-1.7286,-1.7286,-1.7286,-1.7286,-1.7286,-1.7286,-1.7286,-1.7286,-1.7286,-1.7286,-1.7286,-1.7372,-1.7512,-1.838,-1.838,-1.7606,-1.8427,-1.8373,-1.7831,-1.8473,-1.888,-1.8926,-1.9604,-2.0104,-2.0096,-2.0232,-2.0322,-2.0322,-2.0367,-2.0421,-2.0277,-2.0277,-2.0187,-2.0187,-2.0051,-2.0096,-2.0141,-2.0096,-2.0241,-2.0682,-2.1092,-2.1525,-2.1652,-2.1032,-2.051,-2.0347,-1.9498,-1.8617,-1.8931,-1.9129,-1.9326,-1.92,-1.9852,-2.0365,-2.1035,-2.1309,-2.114,-2.0598,-2.0482,-2.051,-2.0464,-2.1132,-2.1392,-2.1526,-2.1872,-2.2138,-2.2262,-2.1837,-2.1872,-2.2306,-2.2526,-2.279,-2.3313,-2.34,-2.3869,-2.4565,-2.4903,-2.5024,-2.547,-2.5554,-2.5325,-2.4974,-2.4723,-2.4717,-2.4418,-2.4225,-2.4298,-2.4442,-2.4814,-2.5052,-2.5182,-2.5581,-2.6151,-2.6633,-2.7154,-2.7456,-2.7556,-2.8091,-2.8338,-1.7687,-1.7898,-1.8069,-1.8062,-1.7898,-1.8062,-1.7995,-1.7705,-1.7401,-1.7196,-1.7036,-1.6769,-1.6588,-1.6629,-1.6777,-1.6864,-1.6871,-1.7012,-1.7106,-1.7113,-1.7239,-1.7286,-1.7286,-1.7286,-1.7286,-1.7286,-1.7286,-1.7286,-1.7326,-1.7699,-1.7692,-1.7412,-1.7645,-1.7652,-1.7419,-1.7652,-1.7831,-1.7878,-1.8187,-1.8326,-1.8419,-1.8373,-1.8326,-1.8419,-1.955,-1.9914,-1.9338,-1.9285,-1.901,-1.8373,-1.8326,-1.8326,-1.8326,-1.8334,-1.8419,-1.8637,-1.9095,-1.946,-1.9615,-1.9666,-1.9698,-1.9639,-1.9242,-1.8906,-1.8979,-1.9132,-1.9176,-1.924,-1.9413,-1.9784,-2.0037,-2.0334,-2.0395,-2.0193,-2.02,-2.0309,-2.0337,-2.0564,-2.069,-2.0736,-2.0952,-2.1042,-2.1078,-2.0862,-2.0997,-2.1615,-2.1748,-2.2006,-2.2526,-2.2877,-2.3183,-2.3597,-2.3965,-2.4205,-2.4378,-2.5286,-2.5583,-2.5174,-2.4922,-2.4845,-2.462,-2.4251,-2.4256,-2.4281,-2.45,-2.4635,-2.485,-2.5406,-2.5896,-2.6104,-2.6598,-2.6952,-2.6998,-2.743,-2.761,-1.7589,-1.7641,-1.7799,-1.7747,-1.7635,-1.7799,-1.7635,-1.732,-1.7052,-1.6895,-1.667,-1.6435,-1.6353,-1.6353,-1.6353,-1.6346,-1.64,-1.669,-1.6878,-1.6878,-1.7012,-1.7044,-1.7044,-1.7044,-1.7052,-1.7099,-1.7153,-1.7239,-1.7286,-1.7286,-1.7286,-1.7286,-1.7286,-1.7286,-1.7286,-1.7286,-1.7286,-1.7286,-1.7286,-1.7333,-1.7286,-1.7286,-1.7286,-1.7466,-1.8603,-1.8972,-1.8334,-1.8334,-1.801,-1.7419,-1.7286,-1.7286,-1.7286,-1.7286,-1.733,-1.7483,-1.7999,-1.8357,-1.8496,-1.8972,-1.9324,-1.9279,-1.9272,-1.9272,-1.9272,-1.9272,-1.9272,-1.9324,-1.9354,-1.9453,-1.9499,-1.9675,-1.9878,-1.9924,-2.0082,-2.0159,-2.0004,-2.0178,-2.03,-2.0337,-2.0374,-2.0337,-2.0292,-2.0337,-2.0555,-2.0997,-2.1051,-2.1266,-2.1659,-2.1961,-2.235,-2.2536,-2.278,-2.3066,-2.3371,-2.4063,-2.4796,-2.4567,-2.4561,-2.4637,-2.4645,-2.4296,-2.4169,-2.4198,-2.4253,-2.4344,-2.4683,-2.5241,-2.5476,-2.5569,-2.6022,-2.6427,-2.653,-2.6701,-2.6871,-1.7529,-1.747,-1.7529,-1.7417,-1.7424,-1.7312,-1.7145,-1.6529,-1.6513,-1.6147,-1.5775,-1.5784,-1.5784,-1.5825,-1.5872,-1.5825,-1.5967,-1.6353,-1.6588,-1.6588,-1.6636,-1.6636,-1.6683,-1.6683,-1.6683,-1.6676,-1.6878,-1.7106,-1.7239,-1.7286,-1.7286,-1.7286,-1.7286,-1.7286,-1.7286,-1.7286,-1.7286,-1.7286,-1.7286,-1.7286,-1.7286,-1.7286,-1.7286,-1.7286,-1.7466,-1.7512,-1.7372,-1.7372,-1.7419,-1.7333,-1.7286,-1.7286,-1.7286,-1.7286,-1.7417,-1.7772,-1.8116,-1.8438,-1.8745,-1.9126,-1.9272,-1.9272,-1.9272,-1.9272,-1.9272,-1.9272,-1.9272,-1.9316,-1.9302,-1.9294,-1.9347,-1.9445,-1.9572,-1.9761,-1.9941,-1.9825,-1.9626,-1.9886,-2.0246,-2.0209,-2.0147,-2.0246,-2.0246,-2.0201,-2.0292,-2.0329,-2.0428,-2.0473,-2.06,-2.0736,-2.0781,-2.1221,-2.1615,-2.1863,-2.2296,-2.2785,-2.336,-2.3773,-2.396,-2.4045,-2.4241,-2.4088,-2.4067,-2.4071,-2.3936,-2.4047,-2.4127,-2.4593,-2.4635,-2.4826,-2.5358,-2.5709,-2.5697,-2.5767,-2.6208,-1.5695,-1.6287,-1.5535,-1.5695,-1.624,-1.5535,-1.4873,-1.4434,-1.4411,-1.4527,-1.4743,-1.4771,-1.5159,-1.5683,-1.5825,-1.5778,-1.5825,-1.5967,-1.6163,-1.6312,-1.6494,-1.6588,-1.6588,-1.6588,-1.6588,-1.6636,-1.6878,-1.7026,-1.7113,-1.7192,-1.7286,-1.7286,-1.7286,-1.7286,-1.7286,-1.7286,-1.7286,-1.7286,-1.7286,-1.7286,-1.7286,-1.7286,-1.7286,-1.7286,-1.7286,-1.7286,-1.7286,-1.7286,-1.7286,-1.7286,-1.7286,-1.7286,-1.7286,-1.7286,-1.7432,-1.7794,-1.8123,-1.8445,-1.8774,-1.9133,-1.9272,-1.9272,-1.9272,-1.9272,-1.9272,-1.9272,-1.9272,-1.9272,-1.9272,-1.9272,-1.9309,-1.9302,-1.9432,-1.9576,-1.9728,-1.9806,-1.9654,-1.9637,-1.9518,-1.9328,-1.9279,-1.9288,-1.9379,-1.9525,-1.9828,-1.9874,-2.0056,-2.0292,-2.0292,-2.0292,-2.0337,-2.06,-2.069,-2.0772,-2.1257,-2.1606,-2.1919,-2.2568,-2.2955,-2.3416,-2.368,-2.3833,-2.3849,-2.3972,-2.3837,-2.3851,-2.3887,-2.3906,-2.4008,-2.4007,-2.4383,-2.4551,-2.4552,-2.4838,-2.524,-1.4513,-1.5108,-1.4406,-1.4513,-1.5156,-1.4406,-1.3869,-1.3536,-1.3424,-1.3579,-1.3797,-1.3744,-1.4046,-1.4573,-1.4669,-1.4908,-1.5201,-1.5261,-1.5547,-1.6028,-1.6204,-1.6298,-1.6305,-1.6298,-1.6346,-1.6447,-1.6643,-1.6737,-1.6831,-1.6965,-1.7044,-1.7052,-1.7052,-1.7052,-1.7052,-1.7052,-1.7052,-1.7052,-1.7005,-1.7044,-1.7052,-1.7044,-1.7099,-1.72,-1.7192,-1.7239,-1.7286,-1.7286,-1.7286,-1.7308,-1.7388,-1.7508,-1.7516,-1.7633,-1.7838,-1.8138,-1.8364,-1.8628,-1.895,-1.9169,-1.9272,-1.9272,-1.9272,-1.9272,-1.9272,-1.9272,-1.9272,-1.9272,-1.9272,-1.9272,-1.9272,-1.9272,-1.9332,-1.9403,-1.9583,-1.9691,-1.9705,-1.9444,-1.9303,-1.9186,-1.9129,-1.9003,-1.9065,-1.9052,-1.9342,-1.9371,-1.9737,-2.0056,-2.0065,-2.0201,-2.0246,-2.0292,-2.0374,-2.0419,-2.0337,-2.0464,-2.0555,-2.1194,-2.1826,-2.251,-2.304,-2.3204,-2.3309,-2.3833,-2.3926,-2.4078,-2.4145,-2.3743,-2.3663,-2.3605,-2.3594,-2.3629,-2.3779,-2.3913,-2.4276,-1.3922,-1.397,-1.3917,-1.3868,-1.397,-1.3809,-1.3512,-1.3393,-1.3158,-1.2995,-1.2904,-1.2736,-1.277,-1.2759,-1.3044,-1.3505,-1.4052,-1.4196,-1.4621,-1.5201,-1.5439,-1.5486,-1.5825,-1.592,-1.5974,-1.617,-1.6218,-1.6359,-1.6588,-1.6629,-1.6581,-1.6683,-1.6683,-1.6636,-1.6683,-1.6636,-1.6636,-1.6683,-1.6636,-1.6636,-1.6643,-1.6678,-1.6779,-1.7037,-1.7079,-1.7148,-1.729,-1.7345,-1.7388,-1.7359,-1.7677,-1.7845,-1.7889,-1.8138,-1.8379,-1.8672,-1.8774,-1.8979,-1.9177,-1.925,-1.9272,-1.9272,-1.9272,-1.9272,-1.9272,-1.9272,-1.9272,-1.9272,-1.9272,-1.9272,-1.9272,-1.9272,-1.9309,-1.9339,-1.9439,-1.9564,-1.9685,-1.9272,-1.9161,-1.9392,-1.939,-1.9193,-1.9082,-1.8965,-1.8892,-1.8937,-1.9228,-1.9463,-1.96,-1.9791,-2.011,-2.011,-2.0011,-2.0102,-2.0056,-2.0292,-2.0428,-2.0619,-2.1159,-2.1664,-2.2393,-2.2633,-2.3008,-2.3598,-2.3873,-2.4111,-2.4129,-2.3688,-2.3376,-2.3307,-2.321,-2.3057,-2.3038,-2.3165,-2.3375,-1.2096,-1.2738,-1.1932,-1.2096,-1.263,-1.1987,-1.1504,-1.1283,-1.1279,-1.1599,-1.1867,-1.1848,-1.2148,-1.2837,-1.271,-1.2877,-1.3071,-1.3125,-1.3167,-1.3457,-1.3505,-1.4472,-1.554,-1.5778,-1.5784,-1.5879,-1.5981,-1.6224,-1.6312,-1.6487,-1.6588,-1.6588,-1.6541,-1.6588,-1.6588,-1.6588,-1.6588,-1.6588,-1.6588,-1.6602,-1.6651,-1.6779,-1.6917,-1.6987,-1.7225,-1.7379,-1.7449,-1.761,-1.7732,-1.768,-1.7999,-1.8174,-1.8132,-1.8235,-1.8446,-1.8702,-1.8818,-1.8935,-1.9199,-1.9272,-1.9272,-1.9272,-1.9272,-1.9272,-1.9272,-1.9272,-1.9272,-1.9272,-1.9272,-1.9272,-1.9272,-1.9272,-1.9272,-1.9316,-1.9324,-1.9308,-1.9149,-1.8952,-1.8827,-1.8696,-1.8682,-1.863,-1.8652,-1.8641,-1.8642,-1.8683,-1.8824,-1.9012,-1.9112,-1.9196,-1.9471,-1.9417,-1.9371,-1.9637,-1.9828,-2.011,-2.0292,-2.0337,-2.0619,-2.0872,-2.1604,-2.2174,-2.2737,-2.34,-2.3252,-2.3401,-2.3608,-2.3552,-2.3328,-2.2974,-2.2903,-2.2758,-2.2444,-2.2413,-2.2617,-1.1067,-1.166,-1.0962,-1.1072,-1.1555,-1.0958,-1.0635,-1.0538,-1.0461,-1.0641,-1.1028,-1.1003,-1.1171,-1.1628,-1.1558,-1.1737,-1.2004,-1.2096,-1.2339,-1.2732,-1.278,-1.3409,-1.4274,-1.4519,-1.4717,-1.5159,-1.5302,-1.5642,-1.5974,-1.6211,-1.6251,-1.6258,-1.6258,-1.6251,-1.6258,-1.6258,-1.6333,-1.6423,-1.6498,-1.6539,-1.6642,-1.68,-1.6918,-1.7015,-1.723,-1.7356,-1.7512,-1.7782,-1.786,-1.7823,-1.8073,-1.8311,-1.8168,-1.829,-1.8433,-1.862,-1.8737,-1.8941,-1.9072,-1.9227,-1.9272,-1.9272,-1.9272,-1.9272,-1.9272,-1.9272,-1.9272,-1.9272,-1.9272,-1.9272,-1.9272,-1.9272,-1.9272,-1.9272,-1.9272,-1.9191,-1.9001,-1.9045,-1.8913,-1.8738,-1.8591,-1.8503,-1.8503,-1.852,-1.8387,-1.8359,-1.8532,-1.8582,-1.8597,-1.8666,-1.8735,-1.8819,-1.8912,-1.9142,-1.9279,-1.9517,-1.9654,-1.9745,-1.9882,-2.0147,-2.0853,-2.1561,-2.2164,-2.2635,-2.2635,-2.2705,-2.2993,-2.3128,-2.2793,-2.2554,-2.2511,-2.2439,-2.218,-2.1911,-2.2109,-1.0692,-1.0692,-1.0692,-1.0692,-1.0747,-1.0692,-1.0684,-1.0655,-1.0538,-1.0473,-1.0473,-1.0322,-1.0327,-0.9945,-1.0344,-1.0414,-1.1075,-1.1093,-1.1536,-1.1922,-1.2101,-1.2296,-1.2344,-1.2974,-1.3457,-1.4052,-1.4148,-1.458,-1.5105,-1.5397,-1.5635,-1.5655,-1.577,-1.5892,-1.6048,-1.5993,-1.6079,-1.6315,-1.6417,-1.6511,-1.6679,-1.6794,-1.6954,-1.7075,-1.7221,-1.7349,-1.7542,-1.7805,-1.784,-1.7517,-1.8086,-1.8258,-1.8154,-1.8289,-1.838,-1.844,-1.8648,-1.8833,-1.8862,-1.9011,-1.9168,-1.9116,-1.9116,-1.922,-1.9116,-1.9116,-1.9116,-1.9227,-1.9227,-1.9227,-1.9272,-1.9272,-1.9272,-1.9272,-1.9272,-1.9272,-1.9272,-1.9272,-1.9272,-1.9264,-1.9038,-1.8869,-1.876,-1.8562,-1.8304,-1.837,-1.8431,-1.8233,-1.82,-1.8194,-1.8303,-1.8404,-1.8496,-1.8689,-1.8781,-1.8827,-1.8966,-1.9058,-1.915,-1.9417,-2.0229,-2.0889,-2.1427,-2.1773,-2.1945,-2.2199,-2.2558,-2.2462,-2.225,-2.2181,-2.2142,-2.213,-2.2066,-2.183,-2.1824,-1.0692,-1.0692,-1.0692,-1.0692,-1.0692,-1.0692,-1.0692,-1.0688,-1.0655,-1.0623,-1.0595,-1.0452,-1.0351,-1.0241,-1.0152,-1.0156,-1.0289,-1.0268,-1.0258,-1.0216,-1.0261,-1.0261,-1.0708,-1.1795,-1.2743,-1.3028,-1.3028,-1.3221,-1.3565,-1.4316,-1.4592,-1.4725,-1.5457,-1.6179,-1.6053,-1.6058,-1.6533,-1.6607,-1.6557,-1.6497,-1.6673,-1.6801,-1.6894,-1.7016,-1.7196,-1.742,-1.7603,-1.7828,-1.7828,-1.7793,-1.806,-1.8289,-1.8258,-1.8321,-1.837,-1.837,-1.8422,-1.8534,-1.8534,-1.8586,-1.8579,-1.8639,-1.8684,-1.8586,-1.8586,-1.8639,-1.875,-1.8921,-1.8974,-1.9078,-1.9175,-1.9272,-1.9279,-1.9227,-1.9279,-1.9279,-1.9272,-1.9272,-1.9272,-1.925,-1.9265,-1.9214,-1.9147,-1.8877,-1.865,-1.8518,-1.8275,-1.8004,-1.7885,-1.7864,-1.7882,-1.7977,-1.8079,-1.8218,-1.8265,-1.8311,-1.8404,-1.8404,-1.845,-1.8542,-1.9309,-1.9903,-2.0348,-2.0844,-2.1329,-2.1606,-2.1721,-2.2047,-2.1911,-2.1821,-2.1811,-2.178,-2.1706,-2.157,-2.142,-1.0692,-1.0692,-1.0692,-1.0692,-1.0692,-1.0692,-1.0692,-1.0692,-1.0692,-1.0692,-1.0676,-1.0586,-1.0459,-1.0379,-1.0331,-1.0193,-1.005,-1.0065,-1.002,-0.9947,-0.9935,-0.9884,-0.9977,-1.0897,-1.1646,-1.1913,-1.2004,-1.2245,-1.2872,-1.3357,-1.3719,-1.381,-1.46,-1.4704,-1.4915,-1.5111,-1.5423,-1.5801,-1.5565,-1.5563,-1.6233,-1.5879,-1.5749,-1.5761,-1.5942,-1.618,-1.6711,-1.6929,-1.7206,-1.7523,-1.7838,-1.7996,-1.8003,-1.7996,-1.8003,-1.8055,-1.8167,-1.822,-1.822,-1.8318,-1.8422,-1.837,-1.8422,-1.8422,-1.8422,-1.8422,-1.8475,-1.8593,-1.8698,-1.875,-1.8855,-1.8855,-1.8907,-1.9078,-1.9078,-1.913,-1.9227,-1.9272,-1.9272,-1.9272,-1.9264,-1.9257,-1.9191,-1.9052,-1.8906,-1.8716,-1.8628,-1.8368,-1.7849,-1.7783,-1.7581,-1.7609,-1.7643,-1.7707,-1.7753,-1.78,-1.7893,-1.7893,-1.7846,-1.7893,-1.8156,-1.8673,-1.9088,-1.9683,-2.0266,-2.0357,-2.0565,-2.0998,-2.1426,-2.1509,-2.146,-2.1433,-2.1355,-2.1207,-2.107,-1.0692,-1.0692,-1.0692,-1.0692,-1.0692,-1.0692,-1.0692,-1.0692,-1.0692,-1.0692,-1.0692,-1.0692,-1.0599,-1.0505,-1.0427,-1.0367,-1.0233,-1.02,-1.0159,-1.0155,-1.0151,-1.0099,-1.0207,-1.0385,-1.0651,-1.0992,-1.1069,-1.1606,-1.2209,-1.2756,-1.2869,-1.3042,-1.3378,-1.3742,-1.3542,-1.3499,-1.4188,-1.4972,-1.4524,-1.4481,-1.5276,-1.4742,-1.4367,-1.4373,-1.4438,-1.4829,-1.5482,-1.5749,-1.6133,-1.7206,-1.7153,-1.7312,-1.7582,-1.7589,-1.7589,-1.7635,-1.7852,-1.7905,-1.7957,-1.8115,-1.8213,-1.8265,-1.8265,-1.8265,-1.8213,-1.8213,-1.8265,-1.8318,-1.8377,-1.8482,-1.8422,-1.8153,-1.8265,-1.8325,-1.8384,-1.8429,-1.8586,-1.8684,-1.8632,-1.9272,-1.9272,-1.9272,-1.9272,-1.9199,-1.906,-1.8928,-1.884,-1.865,-1.8182,-1.7845,-1.768,-1.7534,-1.7632,-1.7525,-1.7542,-1.752,-1.7613,-1.7567,-1.7473,-1.7466,-1.7466,-1.7792,-1.835,-1.8643,-1.905,-1.9317,-1.95,-1.9812,-2.0286,-2.0792,-2.0909,-2.0702,-2.0704,-2.082,-2.0743,-1.0692,-1.0692,-1.0692,-1.0692,-1.0692,-1.0692,-1.0692,-1.0692,-1.0692,-1.0692,-1.0692,-1.0692,-1.0676,-1.0643,-1.0647,-1.055,-1.0387,-1.0286,-1.0261,-1.0257,-1.0257,-1.0261,-1.0273,-1.0282,-1.0352,-1.0302,-1.0428,-1.0712,-1.0974,-1.1456,-1.1911,-1.2213,-1.2919,-1.3414,-1.342,-1.3794,-1.3699,-1.412,-1.3821,-1.3923,-1.4169,-1.4024,-1.3755,-1.3755,-1.3701,-1.397,-1.4239,-1.446,-1.4942,-1.5914,-1.5215,-1.5855,-1.6882,-1.7371,-1.7424,-1.7641,-1.7635,-1.7694,-1.7747,-1.7747,-1.774,-1.774,-1.7793,-1.7793,-1.7793,-1.7793,-1.7898,-1.8003,-1.816,-1.8311,-1.837,-1.745,-1.7022,-1.6863,-1.6433,-1.5949,-1.6056,-1.6486,-1.7345,-1.8415,-1.884,-1.922,-1.9108,-1.9168,-1.9191,-1.9067,-1.8979,-1.8855,-1.8555,-1.8255,-1.8072,-1.7918,-1.7757,-1.756,-1.7384,-1.7394,-1.738,-1.7426,-1.738,-1.738,-1.7372,-1.7372,-1.7652,-1.8079,-1.8411,-1.8773,-1.8866,-1.892,-1.918,-1.9741,-1.983,-1.9872,-1.9982,-2.0111,-2.0516,-1.0692,-1.0692,-1.0692,-1.0692,-1.0692,-1.0692,-1.0692,-1.0692,-1.0692,-1.0692,-1.0692,-1.0692,-1.0692,-1.0692,-1.0692,-1.0635,-1.055,-1.0489,-1.049,-1.0436,-1.049,-1.0436,-1.0424,-1.0482,-1.0436,-1.0486,-1.0486,-1.0371,-1.0363,-1.0773,-1.1133,-1.1291,-1.1916,-1.2163,-1.2178,-1.2135,-1.2733,-1.295,-1.2738,-1.2684,-1.3058,-1.2738,-1.2417,-1.2363,-1.2472,-1.263,-1.3166,-1.3221,-1.3755,-1.4615,-1.446,-1.4835,-1.5482,-1.5968,-1.6346,-1.7259,-1.7529,-1.7582,-1.7589,-1.7589,-1.7641,-1.7641,-1.7582,-1.7589,-1.7589,-1.7641,-1.7529,-1.7582,-1.7147,-1.7087,-1.7035,-1.6062,-1.553,-1.5476,-1.5049,-1.4829,-1.4984,-1.5204,-1.6009,-1.7127,-1.7772,-1.8199,-1.8624,-1.8788,-1.9168,-1.9206,-1.9059,-1.8832,-1.8585,-1.8354,-1.7967,-1.7872,-1.7581,-1.7309,-1.7115,-1.7004,-1.6925,-1.7005,-1.7044,-1.7044,-1.7185,-1.7185,-1.7326,-1.7613,-1.7939,-1.8218,-1.8357,-1.845,-1.8596,-1.8689,-1.9039,-1.9278,-1.9298,-1.9491,-1.9842,-1.0692,-1.0692,-1.0692,-1.0692,-1.0692,-1.0692,-1.0692,-1.0692,-1.0692,-1.0692,-1.0692,-1.0692,-1.0692,-1.0692,-1.0692,-1.0688,-1.0692,-1.0676,-1.0664,-1.0655,-1.0655,-1.0676,-1.0684,-1.0692,-1.066,-1.0623,-1.0639,-1.0623,-1.0513,-1.0592,-1.0566,-1.0778,-1.0731,-1.0692,-1.0848,-1.1059,-1.1391,-1.1446,-1.1282,-1.1286,-1.161,-1.1232,-1.0692,-1.0692,-1.0692,-1.1232,-1.1987,-1.2041,-1.263,-1.3329,-1.3491,-1.3593,-1.397,-1.3868,-1.4728,-1.6446,-1.6876,-1.6929,-1.6882,-1.7153,-1.6935,-1.6558,-1.7041,-1.7094,-1.6776,-1.6505,-1.6717,-1.6717,-1.618,-1.5589,-1.5476,-1.4454,-1.403,-1.3981,-1.3927,-1.3814,-1.3755,-1.3863,-1.3922,-1.5043,-1.6274,-1.6909,-1.7068,-1.7285,-1.7391,-1.7443,-1.7252,-1.756,-1.7387,-1.7612,-1.7466,-1.7481,-1.7316,-1.7009,-1.678,-1.6539,-1.6442,-1.6292,-1.6379,-1.6426,-1.6709,-1.6943,-1.7091,-1.7232,-1.7426,-1.7707,-1.7846,-1.7986,-1.8032,-1.8172,-1.845,-1.8642,-1.873,-1.8886,-1.9171,-1.0692,-1.0692,-1.0692,-1.0692,-1.0692,-1.0692,-1.0692,-1.0692,-1.0692,-1.0692,-1.0692,-1.0692,-1.0692,-1.0692,-1.0692,-1.0692,-1.0692,-1.0692,-1.0692,-1.0692,-1.0692,-1.0692,-1.0692,-1.0692,-1.0692,-1.0692,-1.0692,-1.0684,-1.0639,-1.0635,-1.0655,-1.0688,-1.0692,-1.0692,-1.0692,-1.0692,-1.0747,-1.0907,-1.0802,-1.0802,-1.0907,-1.0798,-1.0747,-1.0692,-1.0747,-1.0802,-1.1067,-1.1177,-1.161,-1.2309,-1.1664,-1.22,-1.3485,-1.3112,-1.3329,-1.4083,-1.4513,-1.4561,-1.4888,-1.5589,-1.5749,-1.5322,-1.5589,-1.5423,-1.5209,-1.4936,-1.4883,-1.4508,-1.4347,-1.4352,-1.4137,-1.328,-1.2792,-1.2417,-1.215,-1.1719,-1.161,-1.2526,-1.258,-1.2743,-1.397,-1.4609,-1.4984,-1.5251,-1.5411,-1.5464,-1.5612,-1.5966,-1.6318,-1.6531,-1.6567,-1.6477,-1.6605,-1.6384,-1.6217,-1.6027,-1.5956,-1.5756,-1.573,-1.5818,-1.6089,-1.6379,-1.6756,-1.6904,-1.7044,-1.7239,-1.752,-1.7567,-1.7466,-1.7652,-1.7978,-1.8125,-1.8164,-1.8341,-1.8501,-1.0312,-1.0472,-1.0637,-1.0692,-1.0692,-1.0692,-1.0692,-1.0692,-1.0692,-1.0692,-1.0692,-1.0692,-1.0692,-1.0692,-1.0692,-1.0692,-1.0692,-1.0692,-1.0692,-1.0692,-1.0692,-1.0692,-1.0692,-1.0692,-1.0692,-1.0692,-1.0692,-1.0692,-1.0692,-1.0692,-1.0692,-1.0692,-1.0692,-1.0692,-1.0692,-1.0692,-1.0692,-1.0747,-1.0692,-1.0692,-1.0692,-1.0692,-1.0692,-1.0692,-1.0692,-1.0692,-1.0692,-1.0747,-1.0907,-1.1341,-1.0852,-1.1067,-1.1823,-1.1728,-1.1754,-1.2165,-1.233,-1.2924,-1.4002,-1.4578,-1.4433,-1.4363,-1.4524,-1.4615,-1.4186,-1.404,-1.404,-1.4132,-1.3485,-1.3166,-1.2955,-1.2096,-1.166,-1.1232,-1.1072,-1.0907,-1.0747,-1.0857,-1.1291,-1.1455,-1.1669,-1.2467,-1.3378,-1.4073,-1.4449,-1.4609,-1.4764,-1.5026,-1.534,-1.5594,-1.5498,-1.5243,-1.5484,-1.5611,-1.5557,-1.5418,-1.5513,-1.5367,-1.5293,-1.5328,-1.5439,-1.5717,-1.6048,-1.6332,-1.652,-1.6756,-1.7138,-1.7333,-1.7372,-1.7419,-1.7512,-1.766,-1.7753,-1.7699,-1.7925,-0.9926,-1.0091,-1.0417,-1.0637,-1.0692,-1.0692,-1.0692,-1.0692,-1.0692,-1.0692,-1.0692,-1.0692,-1.0692,-1.0692,-1.0692,-1.0692,-1.0692,-1.0692,-1.0692,-1.0692,-1.0692,-1.0692,-1.0692,-1.0692,-1.0692,-1.0692,-1.0692,-1.0692,-1.0692,-1.0692,-1.0692,-1.0692,-1.0692,-1.0692,-1.0692,-1.0692,-1.0692,-1.0692,-1.0692,-1.0692,-1.0692,-1.0692,-1.0692,-1.0692,-1.0692,-1.0692,-1.0692,-1.0692,-1.0747,-1.0747,-1.0812,-1.0947,-1.1058,-1.1124,-1.1079,-1.1343,-1.1421,-1.1871,-1.2885,-1.3497,-1.3605,-1.3496,-1.3387,-1.3227,-1.3262,-1.3382,-1.3287,-1.3073,-1.2576,-1.211,-1.1837,-1.1177,-1.1017,-1.0907,-1.0747,-1.0747,-1.0747,-1.0802,-1.0857,-1.1021,-1.1126,-1.0962,-1.1873,-1.2945,-1.3485,-1.3755,-1.3965,-1.4073,-1.418,-1.4288,-1.4217,-1.3959,-1.4095,-1.4253,-1.4202,-1.4309,-1.4595,-1.4831,-1.4728,-1.4812,-1.4824,-1.4923,-1.5146,-1.5473,-1.5866,-1.6285,-1.6615,-1.6951,-1.7286,-1.738,-1.7372,-1.7333,-1.738,-1.7286,-1.738,-0.9651,-0.9489,-1.0091,-1.0472,-1.0692,-1.0692,-1.0692,-1.0692,-1.0692,-1.0692,-1.0692,-1.0692,-1.0692,-1.0692,-1.0692,-1.0692,-1.0692,-1.0692,-1.0692,-1.0692,-1.0692,-1.0692,-1.0692,-1.0692,-1.0692,-1.0692,-1.0692,-1.0692,-1.0692,-1.0692,-1.0692,-1.0692,-1.0692,-1.0692,-1.0692,-1.0692,-1.0692,-1.0692,-1.0692,-1.0692,-1.0692,-1.0692,-1.0692,-1.0696,-1.0696,-1.0696,-1.0696,-1.0737,-1.0761,-1.0769,-1.0879,-1.0944,-1.0964,-1.1045,-1.1126,-1.1191,-1.1212,-1.1532,-1.203,-1.2479,-1.2393,-1.185,-1.1604,-1.1837,-1.1929,-1.16,-1.1444,-1.1574,-1.1556,-1.1265,-1.1058,-1.0759,-1.0777,-1.0749,-1.0753,-1.072,-1.0712,-1.0747,-1.0747,-1.0747,-1.0692,-1.0692,-1.0747,-1.1819,-1.2141,-1.2358,-1.2309,-1.2413,-1.2472,-1.258,-1.2694,-1.2591,-1.2655,-1.268,-1.2515,-1.2793,-1.3431,-1.3638,-1.3568,-1.3872,-1.4173,-1.4246,-1.4334,-1.4815,-1.5265,-1.5703,-1.6096,-1.6379,-1.6709,-1.7138,-1.7286,-1.7286,-1.7286,-1.7286,-1.7286,-0.9327,-0.9434,-0.9651,-1.0036,-1.0472,-1.0637,-1.0692,-1.0692,-1.0692,-1.0692,-1.0692,-1.0692,-1.0692,-1.0692,-1.0692,-1.0692,-1.0692,-1.0692,-1.0692,-1.0692,-1.0692,-1.0692,-1.0692,-1.0692,-1.0692,-1.0692,-1.0692,-1.0692,-1.0692,-1.0692,-1.0692,-1.0692,-1.0692,-1.0692,-1.0692,-1.0692,-1.0692,-1.0692,-1.0692,-1.0692,-1.0692,-1.0692,-1.0692,-1.0692,-1.0834,-1.0854,-1.0883,-1.0976,-1.1001,-1.1029,-1.1082,-1.1114,-1.1135,-1.1216,-1.1297,-1.1378,-1.139,-1.1439,-1.1464,-1.1824,-1.1623,-1.145,-1.1216,-1.1236,-1.1265,-1.1236,-1.1204,-1.1196,-1.1122,-1.1062,-1.1041,-1.1013,-1.1013,-1.0907,-1.0842,-1.0806,-1.0769,-1.0761,-1.0733,-1.0749,-1.0716,-1.0692,-1.0692,-1.0852,-1.0907,-1.0907,-1.0802,-1.0802,-1.1126,-1.1345,-1.1564,-1.1728,-1.1782,-1.1896,-1.1805,-1.2084,-1.2418,-1.2491,-1.2555,-1.2981,-1.3393,-1.3469,-1.3632,-1.415,-1.4503,-1.4792,-1.5185,-1.5629,-1.619,-1.681,-1.7145,-1.7286,-1.7286,-1.7286,-1.7286,-0.9051,-0.9268,-0.9379,-0.9761,-1.0257,-1.0472,-1.0637,-1.0692,-1.0692,-1.0692,-1.0692,-1.0692,-1.0692,-1.0692,-1.0692,-1.0692,-1.0692,-1.0692,-1.0692,-1.0692,-1.0692,-1.0692,-1.0692,-1.0692,-1.0692,-1.0692,-1.0692,-1.0692,-1.0692,-1.0692,-1.0692,-1.0692,-1.0692,-1.0692,-1.0692,-1.0692,-1.0692,-1.0692,-1.0692,-1.0737,-1.0761,-1.0781,-1.0838,-1.0863,-1.0992,-1.1033,-1.1062,-1.1122,-1.1171,-1.1208,-1.1256,-1.1297,-1.1321,-1.1366,-1.1455,-1.1529,-1.1593,-1.165,-1.1654,-1.1577,-1.139,-1.1435,-1.1427,-1.1419,-1.1386,-1.1378,-1.1411,-1.1313,-1.1305,-1.1289,-1.1261,-1.1175,-1.1147,-1.1049,-1.1041,-1.1005,-1.0928,-1.0895,-1.0842,-1.0869,-1.0761,-1.07,-1.0696,-1.0696,-1.0696,-1.0696,-1.0692,-1.0747,-1.0802,-1.0966,-1.0911,-1.1072,-1.1181,-1.124,-1.1337,-1.1684,-1.2033,-1.2098,-1.2178,-1.2377,-1.2626,-1.2715,-1.2758,-1.2973,-1.3369,-1.3785,-1.4244,-1.4666,-1.5621,-1.6662,-1.6951,-1.7192,-1.7286,-1.7286,-1.7286,-0.8937,-0.894,-0.9268,-0.9706,-1.0202,-1.0312,-1.0421,-1.0582,-1.0637,-1.0637,-1.0637,-1.0637,-1.0692,-1.0692,-1.0692,-1.0692,-1.0692,-1.0692,-1.0692,-1.0692,-1.0692,-1.0692,-1.0692,-1.0692,-1.0692,-1.0692,-1.0692,-1.0692,-1.0692,-1.0692,-1.0692,-1.0692,-1.0692,-1.0692,-1.0692,-1.0692,-1.0692,-1.0696,-1.0712,-1.0814,-1.0928,-1.096,-1.1029,-1.1106,-1.1187,-1.122,-1.1236,-1.1297,-1.1338,-1.1346,-1.1443,-1.1488,-1.15,-1.1622,-1.1699,-1.1727,-1.1744,-1.182,-1.1824,-1.1812,-1.1771,-1.1675,-1.1634,-1.1663,-1.1719,-1.1775,-1.1646,-1.1508,-1.1492,-1.1415,-1.1321,-1.1252,-1.1265,-1.1232,-1.1224,-1.1171,-1.1094,-1.1029,-1.098,-1.096,-1.0822,-1.0708,-1.0704,-1.0704,-1.0704,-1.07,-1.0692,-1.0692,-1.0692,-1.0692,-1.0692,-1.0747,-1.0857,-1.0911,-1.1076,-1.135,-1.1583,-1.1665,-1.1814,-1.2017,-1.2106,-1.2182,-1.2151,-1.2056,-1.2328,-1.2865,-1.3298,-1.3699,-1.4491,-1.5315,-1.6669,-1.7091,-1.7239,-1.7286,-1.7286,-0.8937,-0.8937,-0.9047,-0.9323,-0.971,-0.9871,-1.0033,-1.0091,-1.0147,-1.0253,-1.0417,-1.0417,-1.0527,-1.0637,-1.0692,-1.0692,-1.0692,-1.0692,-1.0692,-1.0692,-1.0692,-1.0692,-1.0692,-1.0692,-1.0692,-1.0692,-1.0692,-1.0692,-1.0692,-1.0692,-1.0692,-1.0692,-1.0733,-1.0692,-1.0692,-1.0704,-1.0737,-1.091,-1.0951,-1.0956,-1.1114,-1.1139,-1.1171,-1.1248,-1.135,-1.1407,-1.1415,-1.1488,-1.1537,-1.1541,-1.1642,-1.1595,-1.1603,-1.1708,-1.1768,-1.1772,-1.1776,-1.1837,-1.1837,-1.1828,-1.1833,-1.1776,-1.1772,-1.1772,-1.1776,-1.1837,-1.1727,-1.1695,-1.1658,-1.1606,-1.161,-1.1598,-1.1573,-1.1439,-1.1386,-1.1309,-1.1232,-1.1179,-1.1139,-1.1135,-1.1049,-1.0944,-1.0899,-1.0858,-1.0838,-1.0757,-1.0745,-1.0704,-1.0696,-1.0692,-1.0692,-1.0692,-1.0747,-1.0747,-1.0857,-1.1076,-1.1185,-1.121,-1.142,-1.1715,-1.176,-1.1695,-1.1852,-1.1901,-1.1907,-1.1955,-1.2461,-1.2844,-1.3008,-1.3779,-1.5115,-1.6218,-1.6426,-1.681,-1.7286,-0.8937,-0.8937,-0.8937,-0.9047,-0.9268,-0.9544,-0.9706,-0.9761,-0.9816,-0.9978,-1.0257,-1.0308,-1.0472,-1.0637,-1.0692,-1.0692,-1.0692,-1.0692,-1.0692,-1.0692,-1.0692,-1.0692,-1.0692,-1.0692,-1.0692,-1.0692,-1.0692,-1.0692,-1.0692,-1.0692,-1.0737,-1.0802,-1.0846,-1.0907,-1.0887,-1.0875,-1.0887,-1.1009,-1.1066,-1.1143,-1.1265,-1.133,-1.1362,-1.1443,-1.1529,-1.1598,-1.163,-1.1695,-1.1712,-1.1647,-1.1647,-1.1587,-1.1526,-1.1466,-1.1526,-1.1587,-1.1772,-1.1712,-1.1647,-1.1587,-1.1526,-1.1405,-1.1526,-1.1587,-1.1526,-1.1526,-1.1587,-1.1635,-1.1712,-1.1768,-1.1764,-1.1776,-1.1719,-1.1581,-1.1553,-1.1413,-1.1447,-1.1399,-1.1321,-1.1317,-1.1252,-1.1163,-1.109,-1.1045,-1.1001,-1.0895,-1.0798,-1.0757,-1.0712,-1.0696,-1.0692,-1.0692,-1.0692,-1.0692,-1.0692,-1.0802,-1.0802,-1.0747,-1.1017,-1.1345,-1.1265,-1.1207,-1.1446,-1.167,-1.1574,-1.1594,-1.1742,-1.2018,-1.2229,-1.2694,-1.3596,-1.4594,-1.5356,-1.5994,-1.6567,-0.8937,-0.8937,-0.8937,-0.8937,-0.8992,-0.9268,-0.9485,-0.9761,-0.9761,-0.9923,-1.0257,-1.0257,-1.0417,-1.0637,-1.0692,-1.0692,-1.0692,-1.0692,-1.0692,-1.0692,-1.0692,-1.0692,-1.0692,-1.0692,-1.0692,-1.0696,-1.072,-1.0761,-1.0716,-1.0794,-1.0875,-1.0968,-1.1078,-1.1135,-1.1126,-1.111,-1.1114,-1.12,-1.1244,-1.1342,-1.1468,-1.1512,-1.1573,-1.165,-1.1711,-1.1723,-1.1675,-1.17,-1.1526,-1.1402,-1.1277,-1.1091,-1.097,-1.0793,-1.1031,-1.1277,-1.1587,-1.1462,-1.1337,-1.1277,-1.1091,-1.0974,-1.1091,-1.1031,-1.1091,-1.1156,-1.1277,-1.1398,-1.1462,-1.1591,-1.1716,-1.1712,-1.1704,-1.1671,-1.1671,-1.1643,-1.1695,-1.163,-1.1537,-1.1472,-1.1378,-1.1301,-1.1256,-1.1212,-1.1118,-1.1049,-1.0948,-1.0875,-1.0814,-1.07,-1.0696,-1.0692,-1.0692,-1.0692,-1.0692,-1.0692,-1.0692,-1.0692,-1.0692,-1.0962,-1.0844,-1.084,-1.1013,-1.117,-1.1156,-1.1207,-1.1278,-1.1383,-1.1489,-1.2035,-1.2464,-1.3161,-1.4021,-1.4717,-1.5324,-0.8937,-0.8937,-0.8937,-0.8937,-0.8937,-0.8992,-0.9103,-0.9158,-0.9158,-0.943,-0.9926,-0.9926,-1.0257,-1.0692,-1.0692,-1.0692,-1.0692,-1.0692,-1.0692,-1.0692,-1.0637,-1.0692,-1.07,-1.0653,-1.0696,-1.0753,-1.0814,-1.0831,-1.0923,-1.0976,-1.1009,-1.1163,-1.1125,-1.1197,-1.1308,-1.1366,-1.1382,-1.1399,-1.1356,-1.152,-1.163,-1.1671,-1.1732,-1.1816,-1.1772,-1.1708,-1.1522,-1.1462,-1.1277,-1.1035,-1.097,-1.0849,-1.0849,-1.0793,-1.091,-1.091,-1.1035,-1.1035,-1.0974,-1.0974,-1.0789,-1.0547,-1.0547,-1.0728,-1.0789,-1.0849,-1.091,-1.1031,-1.1216,-1.1341,-1.1345,-1.1345,-1.1402,-1.1462,-1.1462,-1.1458,-1.1511,-1.1547,-1.1463,-1.1443,-1.1351,-1.1311,-1.1263,-1.1294,-1.1187,-1.1166,-1.1114,-1.1033,-1.0923,-1.0814,-1.0704,-1.0696,-1.0692,-1.0692,-1.0692,-1.0692,-1.0692,-1.0692,-1.0692,-1.0692,-1.0743,-1.0743,-1.0743,-1.0769,-1.0866,-1.0828,-1.0666,-1.0856,-1.1076,-1.0902,-1.1242,-1.1883,-1.2588,-1.337,-1.3962,-0.8937,-0.8937,-0.8937,-0.8937,-0.8937,-0.8937,-0.8937,-0.8937,-0.8937,-0.9213,-0.9761,-0.9816,-1.0143,-1.0637,-1.0692,-1.0637,-1.0531,-1.0472,-1.0472,-1.0312,-1.0382,-1.0481,-1.0493,-1.0532,-1.0532,-1.0635,-1.0706,-1.0672,-1.0776,-1.0828,-1.0922,-1.0876,-1.0969,-1.1075,-1.1209,-1.1288,-1.1355,-1.1419,-1.1558,-1.1679,-1.1727,-1.1776,-1.1776,-1.1772,-1.1712,-1.1458,-1.1273,-1.1212,-1.091,-1.0671,-1.0611,-1.055,-1.049,-1.049,-1.0607,-1.0604,-1.0789,-1.0728,-1.0668,-1.0607,-1.0425,-1.0183,-1.0122,-1.0183,-1.0365,-1.0486,-1.0547,-1.0668,-1.091,-1.1031,-1.1031,-1.0974,-1.1031,-1.1091,-1.1156,-1.1156,-1.1281,-1.1345,-1.1337,-1.1337,-1.1302,-1.1259,-1.1224,-1.1252,-1.1189,-1.111,-1.1069,-1.1113,-1.1037,-1.094,-1.0794,-1.0704,-1.0696,-1.0692,-1.0692,-1.0692,-1.0692,-1.0692,-1.0692,-1.0692,-1.0692,-1.0692,-1.0692,-1.0692,-1.0735,-1.0649,-1.0621,-1.058,-1.0646,-1.0523,-1.046,-1.0996,-1.1576,-1.2074,-1.2615,-0.8937,-0.8937,-0.8937,-0.8937,-0.8937,-0.8937,-0.8937,-0.8937,-0.8937,-0.9217,-0.9651,-0.9761,-1.0036,-1.0417,-1.0472,-1.039,-1.0307,-1.026,-1.0243,-0.9861,-1.0032,-1.0208,-1.0341,-1.0258,-1.0413,-1.0467,-1.0551,-1.052,-1.0448,-1.0601,-1.0688,-1.0521,-1.0741,-1.0865,-1.0921,-1.1113,-1.1226,-1.1226,-1.1415,-1.1567,-1.1635,-1.1712,-1.1712,-1.1591,-1.1402,-1.1212,-1.1091,-1.091,-1.0607,-1.0365,-1.0247,-1.0126,-1.0065,-1.0122,-1.0243,-1.0304,-1.0486,-1.0425,-1.0304,-1.0243,-1.0122,-0.994,-0.9819,-0.9879,-1.0061,-1.0183,-1.0243,-1.0304,-1.0547,-1.0607,-1.0547,-1.0668,-1.0728,-1.0789,-1.0793,-1.0853,-1.0974,-1.1039,-1.1099,-1.1099,-1.1091,-1.1,-1.0997,-1.1019,-1.1056,-1.1015,-1.0965,-1.102,-1.1007,-1.0947,-1.09,-1.0746,-1.0777,-1.0769,-1.0692,-1.0692,-1.0692,-1.0692,-1.0696,-1.0692,-1.0692,-1.0692,-1.0692,-1.0692,-1.0692,-1.0692,-1.0706,-1.0635,-1.0599,-1.0517,-1.0473,-1.0359,-1.0693,-1.1178,-1.1406,-0.8937,-0.8937,-0.8937,-0.8937,-0.8937,-0.8937,-0.8937,-0.8937,-0.8937,-0.9106,-0.9434,-0.9544,-0.9717,-1.0056,-1.0114,-1.0053,-1.01,-1.0066,-1.0137,-1.0069,-1.0091,-1.0095,-1.0291,-1.0191,-1.0286,-1.0388,-1.0416,-1.0421,-1.0495,-1.0628,-1.0726,-1.0669,-1.0728,-1.0668,-1.0728,-1.0849,-1.091,-1.091,-1.1035,-1.122,-1.1341,-1.1156,-1.1035,-1.1035,-1.091,-1.0789,-1.0668,-1.0486,-1.0243,-1.0001,-0.9943,-0.9883,-0.9819,-0.9879,-0.994,-0.994,-1.0061,-1.0061,-1.0001,-1.0001,-0.9879,-0.9879,-0.9819,-0.9819,-0.9819,-0.9879,-0.994,-1.0061,-1.0122,-1.0122,-1.0183,-1.0304,-1.0425,-1.0425,-1.0425,-1.0547,-1.0728,-1.0728,-1.0732,-1.0732,-1.0732,-1.0732,-1.0732,-1.0785,-1.0831,-1.0812,-1.0857,-1.0861,-1.0865,-1.0833,-1.0904,-1.0875,-1.094,-1.0887,-1.0798,-1.0733,-1.0753,-1.072,-1.0712,-1.0704,-1.0692,-1.0692,-1.0692,-1.0692,-1.0692,-1.0692,-1.0692,-1.0684,-1.0643,-1.0599,-1.0574,-1.0505,-1.0448,-1.0782,-1.0719,-0.8937,-0.8937,-0.8937,-0.8937,-0.8937,-0.8937,-0.8937,-0.8937,-0.8937,-0.903,-0.929,-0.9362,-0.958,-0.9857,-0.9872,-0.9845,-0.992,-0.9885,-0.986,-0.9871,-0.9993,-1.0059,-1.0084,-1.0124,-1.0196,-1.0236,-1.0182,-1.0226,-1.0354,-1.0361,-1.0297,-1.0365,-1.0365,-1.0365,-1.0365,-1.0482,-1.0543,-1.0607,-1.0607,-1.0732,-1.091,-1.0789,-1.0789,-1.0789,-1.0607,-1.0482,-1.0365,-1.0183,-1.0001,-0.9819,-0.9822,-0.9822,-0.9819,-0.9819,-0.9819,-0.9819,-0.9819,-0.9819,-0.9819,-0.9819,-0.9819,-0.9819,-0.9819,-0.9819,-0.9819,-0.9819,-0.9819,-0.994,-0.994,-1.0001,-0.994,-1.0061,-1.0065,-1.0065,-1.0065,-1.0122,-1.0186,-1.0247,-1.0247,-1.0247,-1.0247,-1.0247,-1.0247,-1.0243,-1.0293,-1.0536,-1.0543,-1.066,-1.0692,-1.0681,-1.077,-1.0883,-1.0954,-1.1037,-1.1025,-1.0928,-1.0906,-1.0806,-1.0769,-1.072,-1.0712,-1.07,-1.0692,-1.0692,-1.0692,-1.0692,-1.0692,-1.0692,-1.0692,-1.0655,-1.0651,-1.0647,-1.0586,-1.053,-1.0556,-0.8937,-0.8937,-0.8937,-0.8937,-0.8937,-0.8937,-0.8937,-0.8937,-0.8885,-0.9018,-0.9173,-0.93,-0.9622,-0.9825,-0.9933,-0.9871,-0.9773,-0.975,-0.9655,-0.958,-0.9531,-0.9787,-0.9905,-0.9821,-0.9993,-1.0038,-0.9966,-0.9916,-0.994,-0.994,-0.994,-0.9819,-0.9819,-0.9819,-0.9879,-1.0061,-1.0243,-1.0243,-1.0243,-1.0247,-1.0365,-1.0486,-1.0547,-1.0547,-1.0425,-1.0243,-1.0122,-1.0001,-0.9819,-0.9819,-0.9819,-0.9819,-0.9819,-0.9819,-0.9819,-0.9819,-0.9819,-0.9819,-0.9819,-0.9819,-0.9819,-0.9819,-0.9819,-0.9819,-0.9819,-0.9819,-0.9819,-0.9819,-0.9822,-0.9822,-0.9822,-0.9822,-0.9822,-0.9822,-0.9822,-0.9822,-0.9822,-0.9822,-0.9822,-0.9822,-0.9822,-0.9822,-0.9822,-0.9822,-0.9943,-1.0183,-1.0304,-1.0425,-1.0528,-1.0545,-1.0576,-1.0736,-1.084,-1.0934,-1.0993,-1.0951,-1.0775,-1.0811,-1.0715,-1.0711,-1.0733,-1.072,-1.0704,-1.0692,-1.0692,-1.0692,-1.0692,-1.0692,-1.0692,-1.0692,-1.0688,-1.068,-1.0668,-1.0627,-1.0655,-0.8937,-0.8937,-0.8937,-0.8937,-0.8937,-0.8937,-0.8937,-0.8937,-0.894,-0.9018,-0.919,-0.921,-0.9365,-0.9517,-0.9514,-0.9535,-0.9721,-0.9683,-0.9712,-0.9724,-0.9676,-0.9791,-0.9818,-0.9801,-0.9849,-0.9872,-0.9879,-0.9819,-0.9819,-0.9819,-0.9819,-0.9819,-0.9819,-0.9819,-0.9819,-0.9943,-0.994,-0.994,-0.994,-0.9943,-0.9943,-1.0001,-0.9943,-0.9943,-0.994,-0.9883,-0.9883,-0.9822,-0.9822,-0.9819,-0.9819,-0.9819,-0.9819,-0.9819,-0.9819,-0.9819,-0.9819,-0.9819,-0.9819,-0.9819,-0.9819,-0.9819,-0.9819,-0.9819,-0.9819,-0.9819,-0.9819,-0.9819,-0.9819,-0.9819,-0.9819,-0.9819,-0.9819,-0.9819,-0.9819,-0.9819,-0.9822,-0.9822,-0.9822,-0.9822,-0.9822,-0.9822,-0.9822,-0.9819,-0.9822,-0.994,-0.994,-1.0061,-1.0122,-1.0236,-1.035,-1.0481,-1.0602,-1.0572,-1.0531,-1.0562,-1.0544,-1.0643,-1.0719,-1.0726,-1.0719,-1.0753,-1.0733,-1.0753,-1.0716,-1.0692,-1.0692,-1.0692,-1.0692,-1.0692,-1.0692,-1.0688,-1.0692,-1.0692,-1.0692]},{"header":{"parameterUnit":"m.s-1","parameterCategory":1,"la1":31.0,"la2":29.5877,"lo1":-88.7671,"lo2":-86.6584,"dy":0.0162,"dx":0.0185,"nx":115,"ny":88,"refTime":"2023-10-25T00:00:00:Z","depth":0,"parameterNumber":3,"parameterNumberName":"V-component_of_WINDS"},"data":[0.0,0.0,0.0,0.0,0.0,0.0,0.0,0.0,0.0,0.0,0.0,0.0,0.0,0.0,0.0,0.0,0.0,0.0,0.0,0.0,0.0,0.0,0.0,0.0,0.0,0.0,0.0,0.0,0.0,0.0,0.0,0.0,0.0,0.0,0.0,0.0,0.0,0.0,0.0,0.0,0.0,0.0,0.0,0.0,0.0,0.0,0.0,0.0,0.0,0.0,0.0,0.0,0.0,0.0,0.0,0.0,0.0,0.0,0.0,0.0,0.0,0.0,0.0,0.0,0.0,0.0,0.0,0.0,0.0,0.0,0.0,0.0,0.0,0.0,0.0,0.0,0.0,0.0,0.0,0.0,0.0,0.0,0.0,0.0,0.0,0.0,0.0,0.0,0.0,0.0,0.0,0.0,0.0,0.0,0.0,0.0,0.0,0.0,0.0,0.0,0.0,0.0,0.0,0.0,0.0,0.0,0.0,0.0,0.0,0.0,0.0,0.0,0.0,0.0,0.0,0.0,0.0,0.0,0.0,0.0,0.0,0.0,0.0,0.0,0.0,0.0,0.0,0.0,0.0,0.0,0.0,0.0,0.0,0.0,0.0,0.0,0.0,0.0,0.0,0.0,0.0,0.0,0.0,0.0,0.0,0.0,0.0,0.0,0.0,0.0,0.0,0.0,0.0,0.0,0.0,0.0,0.0,0.0,0.0,0.0,0.0,0.0,0.0,0.0,0.0,0.0,0.0,0.0,0.0,0.0,0.0,0.0,0.0,0.0,0.0,0.0,0.0,0.0,0.0,0.0,0.0,0.0,0.0,0.0,0.0,0.0,0.0,0.0,0.0,0.0,0.0,0.0,0.0,0.0,0.0,0.0,0.0,0.0,0.0,0.0,0.0,0.0,0.0,0.0,0.0,0.0,0.0,0.0,0.0,0.0,0.0,0.0,0.0,0.0,0.0,0.0,0.0,0.0,0.0,0.0,0.0,0.0,0.0,0.0,0.0,0.0,0.0,0.0,0.0,0.0,0.0,0.0,0.0,0.0,0.0,0.0,0.0,0.0,0.0,0.0,0.0,0.0,0.0,0.0,0.0,0.0,0.0,0.0,0.0,0.0,0.0,0.0,0.0,0.0,0.0,0.0,0.0,0.0,0.0,0.0,0.0,0.0,0.0,0.0,0.0,0.0,0.0,0.0,0.0,0.0,0.0,0.0,0.0,0.0,0.0,0.0,0.0,0.0,0.0,0.0,0.0,0.0,0.0,0.0,0.0,0.0,0.0,0.0,0.0,0.0,0.0,0.0,0.0,0.0,0.0,0.0,0.0,0.0,0.0,0.0,0.0,0.0,0.0,0.0,0.0,0.0,0.0,0.0,0.0,0.0,0.0,0.0,0.0,0.0,0.0,0.0,0.0,0.0,0.0,0.0,0.0,0.0,0.0,0.0,0.0,0.0,0.0,0.0,0.0,0.0,0.0,0.0,0.0,0.0,0.0,0.0,0.0,0.0,0.0,0.0,0.0,0.0,0.0,0.0,0.0,0.0,0.0,0.0,0.0,0.0,0.0,0.0,0.0,0.0,0.0,0.0,0.0,0.0,0.0,0.0,0.0,0.0,0.0,0.0,0.0,0.0,0.0,0.0,0.0,0.0,0.0,0.0,0.0,0.0,0.0,0.0,0.0,0.0,0.0,0.0,0.0,0.0,0.0,0.0,0.0,0.0,0.0,0.0,0.0,0.0,0.0,0.0,0.0,0.0,0.0,0.0,0.0,0.0,0.0,0.0,0.0,0.0,0.0,0.0,0.0,0.0,0.0,0.0,0.0,0.0,0.0,0.0,0.0,0.0,0.0,0.0,0.0,0.0,0.0,0.0,0.0,0.0,0.0,0.0,0.0,0.0,0.0,0.0,0.0,0.0,0.0,0.0,0.0,0.0,0.0,0.0,0.0,0.0,0.0,0.0,0.0,0.0,0.0,0.0,0.0,0.0,0.0,0.0,0.0,0.0,0.0,0.0,0.0,0.0,0.0,0.0,0.0,0.0,0.0,0.0,0.0,0.0,0.0,0.0,0.0,0.0,0.0,0.0,0.0,0.0,0.0,0.0,0.0,0.0,0.0,0.0,0.0,0.0,0.0,0.0,0.0,0.0,0.0,0.0,0.0,0.0,0.0,0.0,0.0,0.0,0.0,0.0,0.0,0.0,0.0,0.0,0.0,0.0,0.0,0.0,0.0,0.0,0.0,0.0,0.0,0.0,0.0,0.0,0.0,0.0,0.0,0.0,0.0,0.0,0.0,0.0,0.0,0.0,0.0,0.0,0.0,0.0,0.0,0.0,0.0,0.0,0.0,0.0,0.0,0.0,0.0,0.0,0.0,0.0,0.0,0.0,0.0,0.0,0.0,0.0,0.0,0.0,0.0,0.0,0.0,0.0,0.0,0.0,0.0,0.0,0.0,0.0,0.0,0.0,0.0,0.0,0.0,0.0,0.0,0.0,0.0,0.0,0.0,0.0,0.0,0.0,0.0,0.0,0.0,0.0,0.0,0.0,0.0,0.0,0.0,0.0,0.0,0.0,0.0,0.0,0.0,0.0,0.0,0.0,0.0,0.0,0.0,0.0,0.0,0.0,0.0,0.0,0.0,0.0,0.0,0.0,0.0,0.0,0.0,0.0,0.0,0.0,0.0,0.0,0.0,0.0,0.0,0.0,0.0,0.0,0.0,0.0,0.0,0.0,0.0,0.0,0.0,0.0,0.0,0.0,0.0,0.0,0.0,0.0,0.0,0.0,0.0,0.0,0.0,0.0,0.0,0.0,0.0,0.0,0.0,0.0,0.0,0.0,0.0,0.0,0.0,0.0,0.0,0.0,0.0,0.0,0.0,0.0,0.0,0.0,0.0,0.0,0.0,0.0,0.0,0.0,0.0,0.0,0.0,0.0,0.0,0.0,0.0,0.0,0.0,0.0,0.0,0.0,0.0,0.0,0.0,0.0,0.0,0.0,0.0,0.0,0.0,0.0,0.0,0.0,0.0,0.0,0.0,0.0,0.0,0.0,0.0,0.0,0.0,0.0,0.0,0.0,0.0,0.0,0.0,0.0,0.0,0.0,0.0,0.0,0.0,0.0,0.0,0.0,0.0,0.0,0.0,0.0,0.0,0.0,0.0,0.0,0.0,0.0,0.0,0.0,0.0,0.0,0.0,0.0,0.0,0.0,0.0,0.0,0.0,0.0,0.0,0.0,0.0,0.0,0.0,0.0,0.0,0.0,0.0,0.0,0.0,0.0,0.0,0.0,0.0,0.0,0.0,0.0,0.0,0.0,0.0,0.0,0.0,0.0,0.0,0.0,0.0,0.0,0.0,0.0,0.0,0.0,0.0,0.0,0.0,0.0,0.0,0.0,0.0,0.0,0.0,0.0,0.0,0.0,0.0,0.0,0.0,0.0,0.0,0.0,0.0,0.0,0.0,0.0,0.0,0.0,0.0,0.0,0.0,0.0,0.0,0.0,0.0,0.0,0.0,0.0,0.0,0.0,0.0,0.0,0.0,0.0,0.0,0.0,0.0,0.0,0.0,0.0,0.0,0.0,0.0,0.0,0.0,0.0,0.0,0.0,0.0,0.0,0.0,0.0,0.0,0.0,0.0,0.0,0.0,0.0,0.0,0.0,0.0,0.0,0.0,0.0,0.0,0.0,0.0,0.0,0.0,0.0,0.0,0.0,0.0,0.0,0.0,0.0,0.0,0.0,0.0,0.0,0.0,0.0,0.0,0.0,0.0,0.0,0.0,0.0,0.0,0.0,0.0,0.0,0.0,0.0,0.0,0.0,0.0,0.0,0.0,0.0,0.0,0.0,0.0,0.0,0.0,0.0,0.0,0.0,0.0,0.0,0.0,0.0,0.0,0.0,0.0,0.0,0.0,0.0,0.0,0.0,0.0,0.0,0.0,0.0,0.0,0.0,0.0,0.0,0.0,0.0,0.0,0.0,0.0,0.0,0.0,0.0,0.0,0.0,0.0,0.0,0.0,0.0,0.0,0.0,0.0,0.0,0.0,0.0,0.0,0.0,0.0,0.0,0.0,0.0,0.0,0.0,0.0,0.0,0.0,0.0,0.0,0.0,0.0,0.0,0.0,0.0,0.0,0.0,0.0,0.0,0.0,0.0,0.0,0.0,0.0,0.0,0.0,0.0,0.0,0.0,0.0,0.0,0.0,0.0,0.0,0.0,0.0,0.0,0.0,0.0,0.0,0.0,0.0,0.0,0.0,0.0,0.0,0.0,0.0,0.0,0.0,0.0,0.6637,0.0,0.0,0.0,0.0,0.0,0.0,0.0,0.0,0.0,0.0,0.0,0.0,0.0,0.0,0.0,0.0,0.0,0.0,0.0,0.0,0.0,0.0,0.0,0.0,0.0,0.0,0.0,0.0,0.0,0.0,0.0,0.0,0.0,0.0,0.0,0.0,0.0,0.0,0.0,0.0,0.0,0.0,0.0,0.0,0.0,0.0,0.0,0.0,0.0,0.0,0.0,0.0,0.0,0.0,0.0,0.0,0.0,0.0,0.0,0.0,0.0,0.0,0.0,0.0,0.0,0.0,0.0,0.0,0.0,0.0,0.0,0.0,0.0,0.0,0.0,0.0,0.0,0.0,0.0,0.0,0.0,0.0,0.0,0.0,0.0,0.0,0.0,0.0,0.0,0.0,0.0,0.0,0.0,0.0,0.0,0.0,0.0,0.0,0.0,0.0,0.0,0.0,0.0,0.0,0.0,0.0,0.0,0.0,0.0,0.0,0.8888,0.8199,0.7192,0.6702,0.6736,0.0,0.0,0.0,0.0,0.0,0.0,0.0,0.0,0.0,0.0,0.0,0.0,0.0,0.0,0.0,0.0,0.0,0.0,0.0,0.0,0.0,0.0,0.0,0.0,0.0,0.0,0.0,0.0,0.0,0.0,0.0,0.0,0.0,0.0,0.0,0.0,0.0,0.0,0.0,0.0,0.0,0.0,0.0,0.0,0.0,0.0,0.0,0.0,0.0,0.0,0.0,0.0,0.0,0.0,0.0,0.0,0.0,0.0,0.0,0.0,0.0,0.0,0.0,0.0,0.0,0.0,0.0,0.0,0.0,0.0,0.0,0.0,0.0,0.0,0.0,0.0,0.0,0.0,0.0,0.0,0.0,0.0,0.0,0.0,0.0,0.0,0.0,0.0,0.0,0.0,0.0,0.0,0.0,0.0,0.0,0.0,0.0,0.0,0.0,0.0,0.0,0.0,0.0,0.0,0.0,0.0,0.0,0.0,0.0,0.0,0.0,0.0,0.7044,0.682,0.6749,0.0,0.0,0.0,0.0,0.0,0.0,0.0,0.0,0.0,0.0,0.0,0.0,0.0,0.0,0.0,0.0,0.0,0.0,0.0,0.0,0.0,0.0,0.0,0.0,0.0,0.0,0.0,0.0,0.0,0.0,0.0,0.0,0.0,0.0,0.0,0.0,0.0,0.0,0.0,0.0,0.0,0.0,0.0,0.0,0.0,0.0,0.0,0.0,0.0,0.0,0.0,0.0,0.0,0.0,0.0,0.0,0.0,0.0,0.0,0.0,0.0,0.0,0.0,0.0,0.0,0.0,0.0,0.0,0.0,0.0,0.0,0.0,0.0,0.0,0.0,0.0,0.0,0.0,0.0,0.0,0.0,0.0,0.0,0.0,0.0,0.0,0.0,0.0,0.0,0.0,0.0,0.0,0.0,0.0,0.0,0.0,0.0,0.0,0.0,0.0,0.0,0.0,0.0,0.0,0.0,0.0,0.0,0.0,0.0,0.0,0.91,0.8726,0.7802,0.0,0.6889,0.0,0.0,0.0,0.0,0.0,0.0,0.0,0.0,0.0,0.0,0.0,0.0,0.0,0.0,0.0,0.0,0.0,0.0,0.0,0.0,0.0,0.0,0.0,0.0,0.0,0.0,0.0,0.0,0.0,0.0,0.0,0.0,0.0,0.0,0.0,0.0,0.0,0.0,0.0,0.0,0.0,0.0,0.0,0.0,0.0,0.0,0.0,0.0,0.0,0.0,0.0,0.0,0.0,0.0,0.0,0.0,0.0,0.0,0.0,0.0,0.0,0.0,0.0,0.0,0.0,0.0,0.0,0.0,0.0,0.0,0.0,0.0,0.0,0.0,0.0,0.0,0.0,0.0,0.0,0.0,0.0,0.0,0.0,0.0,0.0,0.0,0.0,0.0,0.0,0.0,0.0,0.0,0.0,0.0,0.0,0.0,0.0,0.0,0.0,0.0,0.0,0.0,0.0,0.0,0.0,0.0,0.0,0.0,0.0,0.0,0.8372,0.8151,0.7556,0.7136,0.0,0.0,0.0,0.0,0.0,0.0,0.0,0.0,0.0,0.0,0.0,0.0,0.0,0.0,0.0,0.0,0.0,0.0,0.0,0.0,0.0,0.0,0.0,0.0,0.0,0.0,0.0,0.0,0.0,0.0,0.0,0.0,0.0,0.0,0.0,0.0,0.0,0.0,0.0,0.0,0.0,0.0,0.0,0.0,0.0,0.0,0.0,0.0,0.0,0.0,0.0,0.0,0.0,0.0,0.0,0.0,0.0,0.0,0.0,0.0,0.0,0.0,0.0,0.0,0.0,0.0,0.0,0.0,0.0,0.0,0.0,0.0,0.0,0.0,0.0,0.0,0.0,0.0,0.0,0.0,0.0,0.0,0.0,0.0,0.0,0.0,0.0,0.0,0.0,0.0,0.0,0.0,0.0,0.0,0.0,0.0,0.0,0.0,0.0,0.0,0.0,0.0,0.0,0.0,0.0,0.0,0.0,0.0,0.0,0.0,0.8396,0.7746,0.755,0.7025,0.6888,0.7159,0.0,0.0,0.0,0.0,0.0,0.0,0.0,0.0,0.0,0.0,0.0,0.0,0.0,0.0,0.0,0.0,0.0,0.0,0.0,0.0,0.0,0.0,0.0,0.0,0.0,0.0,0.0,0.0,0.0,0.0,0.0,0.0,0.0,0.0,0.0,0.0,0.0,0.0,0.0,0.0,0.0,0.0,0.0,0.0,0.0,0.0,0.0,0.0,0.0,0.0,0.0,0.0,0.0,0.0,0.0,0.0,0.0,0.0,0.0,0.0,0.0,0.0,0.0,0.0,0.0,0.0,0.0,0.0,0.0,0.0,0.0,0.0,0.0,0.0,0.0,0.0,0.0,0.0,0.0,0.0,0.0,0.0,0.0,0.0,0.0,0.0,0.0,0.0,0.0,0.0,0.0,0.0,0.0,0.0,0.0,0.0,0.0,0.0,0.0,0.0,0.0,0.0,0.0,0.0,0.0,0.0,0.0,0.0,0.9408,0.8342,0.7743,0.7557,0.647,0.635,0.0,0.0,0.0,0.0,0.0,0.0,0.0,0.0,0.0,0.0,0.0,0.0,0.0,0.0,0.0,0.0,0.0,0.0,0.0,0.0,0.0,0.0,0.0,0.0,0.0,0.0,0.0,0.0,0.0,0.0,0.0,0.0,0.0,0.0,0.0,0.0,0.0,0.0,0.0,0.0,0.0,0.0,0.0,0.0,0.0,0.0,0.0,0.0,0.0,0.0,0.0,0.0,0.0,0.0,0.0,0.0,0.0,0.0,0.0,0.0,0.0,0.0,0.0,0.0,0.0,0.0,0.0,0.0,0.0,0.0,0.0,0.0,0.0,0.0,0.0,0.0,0.0,0.0,0.0,0.0,0.0,0.0,0.0,0.0,0.0,0.0,0.0,0.0,0.0,0.0,0.0,0.0,0.0,0.0,0.0,0.0,0.0,0.0,0.0,0.0,0.0,0.0,0.0,0.0,0.0,0.0,0.0,0.0,0.0,0.849,0.7368,0.6726,0.6555,0.6125,0.6357,0.0,0.0,0.0,0.0,0.0,0.0,0.0,0.0,0.0,0.0,0.0,0.0,0.0,0.0,0.0,0.0,0.0,0.0,0.0,0.0,0.0,0.0,0.0,0.0,0.0,0.0,0.0,0.0,0.0,0.0,0.0,0.0,0.0,0.0,0.0,0.0,0.0,0.0,0.0,0.0,0.0,0.0,0.0,0.0,0.0,0.0,0.0,0.0,0.0,0.0,0.0,0.0,0.0,0.0,0.0,0.0,0.0,0.0,0.0,0.0,0.0,0.0,0.0,0.0,0.0,0.0,0.0,0.0,0.0,0.0,0.0,0.0,0.0,0.0,0.0,0.0,0.0,0.0,0.0,0.0,0.0,0.0,0.0,0.0,0.0,0.0,0.0,0.0,0.0,0.0,0.0,0.0,0.0,0.0,0.0,0.0,0.0,0.0,0.0,0.0,0.0,0.0,0.0,0.0,0.0,0.0,0.0,0.0,0.0,0.7914,0.0,0.5861,0.604,0.5749,0.5941,0.0,0.0,0.0,0.0,0.0,0.0,0.0,0.0,0.0,0.0,0.0,0.0,0.0,0.0,0.0,0.0,0.0,0.0,0.0,0.0,0.0,0.0,0.0,0.0,0.0,0.0,0.0,0.0,0.0,0.0,0.0,0.0,0.0,0.0,0.0,0.0,0.0,0.0,0.0,0.0,0.0,0.0,0.0,0.0,0.0,0.0,0.0,0.0,0.0,0.0,0.0,0.0,0.0,0.0,0.0,0.0,0.0,0.0,0.0,0.0,0.0,0.0,0.0,0.0,0.0,0.0,0.0,0.0,0.0,0.0,0.0,0.0,0.0,0.0,0.0,0.0,0.0,0.0,0.0,0.0,0.0,0.0,0.0,0.0,0.0,0.0,0.0,0.0,0.0,0.0,0.0,0.0,0.0,0.0,0.0,0.0,0.0,0.0,0.0,0.0,0.0,0.0,0.0,0.0,0.0,0.0,0.0,0.0,0.8988,0.7731,0.5872,0.532,0.6109,0.5229,0.5135,0.0,0.0,0.0,0.0,0.0,0.0,0.0,0.0,0.0,0.0,0.0,0.0,0.0,0.0,0.0,0.0,0.0,0.0,0.0,0.0,0.0,0.0,0.0,0.0,0.0,0.0,0.0,0.0,0.0,0.0,0.0,0.0,0.0,0.0,0.0,0.0,0.0,0.0,0.0,0.0,0.0,0.0,0.0,0.0,0.0,0.0,0.0,0.0,0.0,0.0,0.0,0.0,0.0,0.0,0.0,0.0,0.0,0.0,0.0,0.0,0.0,0.0,0.0,0.0,0.0,0.0,0.0,0.0,0.0,0.0,0.0,0.0,0.0,0.0,0.0,0.0,0.0,0.0,0.0,0.0,0.0,0.0,0.0,0.0,0.0,0.0,0.0,0.0,0.0,0.0,0.0,0.0,0.0,0.0,0.0,0.0,0.0,0.0,0.0,0.0,0.0,0.0,0.0,0.0,0.0,0.0,0.0,0.0,0.0,0.5778,0.6006,0.5787,0.5045,0.5508,0.6195,0.0,0.0,0.0,0.0,0.0,0.0,0.0,0.0,0.0,0.0,0.0,0.0,0.0,0.0,0.0,0.0,0.0,0.0,0.0,0.0,0.0,0.0,0.0,0.0,0.0,0.0,0.0,0.0,0.0,0.0,0.0,0.0,0.0,0.0,0.0,0.0,0.0,0.0,0.0,0.0,0.0,0.0,0.0,0.0,0.0,0.0,0.0,0.0,0.0,0.0,0.0,0.0,0.0,0.0,0.0,0.0,0.0,0.0,0.0,0.0,0.0,0.0,0.0,0.0,0.0,0.0,0.0,0.0,0.0,0.0,0.0,0.0,0.0,0.0,0.0,0.0,0.0,0.0,0.0,0.0,0.0,0.0,0.0,0.0,0.0,0.0,0.0,0.0,0.0,0.0,0.0,0.0,0.0,0.0,0.0,0.0,0.0,0.0,0.0,0.0,0.0,0.0,0.0,0.0,0.0,0.0,0.0,0.0,0.0,0.5824,0.6526,0.6503,0.548,0.6155,0.6746,0.7219,0.0,0.0,0.0,0.0,0.0,0.0,0.0,0.0,0.0,0.0,0.0,0.0,0.0,0.0,0.0,0.0,0.0,0.0,0.0,0.0,0.0,0.0,0.0,0.0,0.0,0.0,0.0,0.0,0.0,0.0,0.0,0.0,0.0,0.0,0.0,0.0,0.0,0.0,0.0,0.0,0.0,0.0,0.0,0.0,0.0,0.0,0.0,0.0,0.0,0.0,0.0,0.0,0.0,0.0,0.0,0.0,0.0,0.0,0.0,0.0,0.0,0.0,0.0,0.0,0.0,0.0,0.0,0.0,0.0,0.0,0.0,0.0,0.0,0.0,0.0,0.0,0.0,0.0,0.0,0.0,0.0,0.0,0.0,0.0,0.0,0.0,0.0,0.0,0.0,0.0,0.0,0.0,0.0,0.0,0.0,0.0,0.0,0.0,0.0,0.0,0.0,0.0,0.0,0.0,0.0,0.0,0.0,0.0,0.7322,0.7322,0.7266,0.7155,0.7021,0.6964,0.0,0.0,0.0,0.0,0.0,0.0,0.0,0.0,0.0,0.0,0.0,0.0,0.0,0.0,0.0,0.0,0.0,0.0,0.0,0.0,0.0,0.0,0.0,0.0,0.0,0.0,0.0,0.0,0.0,0.0,0.0,0.0,0.0,0.0,0.0,0.0,0.0,0.0,0.0,0.0,0.0,0.0,0.0,0.0,0.0,0.0,0.0,0.0,0.0,0.0,0.0,0.0,0.0,0.0,0.0,0.0,0.0,0.0,0.0,0.0,0.0,0.0,0.0,0.0,0.0,0.0,0.0,0.0,0.0,0.0,0.0,0.0,0.0,0.0,0.0,0.0,0.0,0.0,0.0,0.0,0.0,0.0,0.0,0.0,0.0,0.0,0.0,0.0,0.0,0.0,0.0,0.0,0.0,0.0,0.0,0.0,0.0,0.0,0.0,0.0,0.0,0.0,0.0,0.0,0.0,0.0,0.0,0.0,0.0,0.8684,0.8878,0.8368,0.7128,0.7868,0.8255,0.0,0.0,0.0,0.0,0.0,0.0,0.0,0.0,0.0,0.0,0.0,0.0,0.0,0.0,0.0,0.0,0.0,0.0,0.0,0.0,0.0,0.0,0.0,0.0,0.0,0.0,0.0,0.0,0.0,0.0,0.0,0.0,0.0,0.0,0.0,0.0,0.0,0.0,0.0,0.0,0.0,0.0,0.0,0.0,0.0,0.0,0.0,0.0,0.0,0.0,0.0,0.0,0.0,0.0,0.0,0.0,0.0,0.0,0.0,0.0,0.0,0.0,0.0,0.0,0.0,0.0,0.0,0.0,0.0,0.0,0.0,0.0,0.0,0.0,0.0,0.0,0.0,0.0,0.0,0.0,0.0,0.0,0.0,0.0,0.0,0.0,0.0,0.0,0.0,0.0,0.0,0.0,0.0,0.0,0.0,0.0,0.0,0.0,0.0,0.0,0.0,0.0,0.0,0.0,0.0,0.0,0.0,0.0,0.9575,1.001,0.9772,0.9125,0.814,0.8674,0.8985,0.0,0.0,0.0,0.0,0.0,0.0,0.0,0.0,0.0,0.0,0.0,0.0,0.0,0.0,0.0,0.0,0.0,0.0,0.0,0.0,0.0,0.0,0.0,0.0,0.0,0.0,0.0,0.0,0.0,0.0,0.0,0.0,0.0,0.0,0.0,0.0,0.0,0.0,0.0,0.0,0.0,0.0,0.0,0.0,0.0,0.0,0.0,0.0,0.0,0.0,0.0,0.0,0.0,0.0,0.0,0.0,0.0,0.0,0.0,0.0,0.0,0.0,0.0,0.0,0.0,0.0,0.0,0.0,0.0,0.0,0.0,0.0,0.0,0.0,0.0,0.0,0.0,0.0,0.0,0.0,0.0,0.0,0.0,0.0,0.0,0.0,0.0,0.0,0.0,0.0,0.0,0.0,0.0,0.0,0.0,0.0,0.0,0.0,0.0,0.0,0.0,0.0,0.0,0.0,0.0,0.0,0.0,0.0,1.0207,1.117,1.0158,0.9677,0.9772,0.943,0.9381,0.0,0.0,0.0,0.0,0.0,0.0,0.0,0.0,0.0,0.0,0.0,0.0,0.0,0.0,0.0,0.0,0.0,0.0,0.0,0.0,0.0,0.0,0.0,0.0,0.0,0.0,0.0,0.0,0.0,0.0,0.0,0.0,0.0,0.0,0.0,0.0,0.0,0.0,0.0,0.0,0.0,0.0,0.0,0.0,0.0,0.0,0.0,0.0,0.0,0.0,0.0,0.0,0.0,0.0,0.0,0.0,0.0,0.0,0.0,0.0,0.0,0.0,0.0,0.0,0.0,0.0,0.0,0.0,0.0,0.0,0.0,0.0,0.0,0.0,0.0,0.0,0.0,0.0,0.0,0.0,0.0,0.0,0.0,0.0,0.0,0.0,0.0,0.0,0.0,0.0,0.0,0.0,0.0,0.0,0.0,0.0,0.0,0.0,0.0,0.0,0.0,0.0,0.0,0.0,0.0,0.0,0.0,0.0,1.0979,1.117,1.0158,1.001,1.0832,0.9965,0.9529,0.0,0.0,0.0,0.0,0.0,0.0,0.0,0.0,0.0,0.0,0.0,0.0,0.0,0.0,0.0,0.0,0.0,0.0,0.0,0.0,0.0,0.0,0.0,0.0,0.0,0.0,0.0,0.0,0.0,0.0,0.0,0.0,0.0,0.0,0.0,0.0,0.0,0.0,0.0,0.0,0.0,0.0,0.0,0.0,0.0,0.0,0.0,0.0,1.1155,0.0,0.0,0.0,0.0,0.0,0.0,0.0,0.0,0.0,0.0,0.0,0.0,0.0,0.0,0.0,0.0,0.0,0.0,0.0,0.0,0.0,0.0,0.0,0.0,0.0,0.0,0.0,0.0,0.0,0.0,0.0,0.0,0.0,0.0,0.0,0.0,0.0,0.0,0.0,0.0,0.0,0.0,0.0,0.0,0.0,0.0,0.0,0.0,0.0,0.0,0.0,0.0,0.0,0.0,0.0,0.0,0.0,0.0,0.0,1.2285,1.2242,1.1228,1.093,1.1463,1.0979,1.0596,0.0,0.0,0.0,0.0,0.0,0.0,0.0,0.0,0.0,0.0,0.0,0.0,0.0,0.0,0.0,0.0,0.0,0.0,0.0,0.0,0.0,0.0,0.0,0.0,0.0,0.0,0.0,0.0,0.0,0.0,0.0,0.0,0.0,0.0,0.0,0.0,0.0,0.0,0.0,0.0,0.0,0.0,0.0,0.0,0.0,0.0,0.0,0.0,0.0,0.0,0.0,0.0,0.0,0.0,0.0,0.0,0.0,0.0,0.0,0.0,0.0,0.0,0.0,0.0,0.0,0.0,0.0,0.0,0.0,0.0,0.0,0.0,0.0,0.0,0.0,0.0,0.0,0.0,0.0,0.0,0.0,0.0,0.0,0.0,0.0,0.0,0.0,0.0,0.0,0.0,0.0,0.0,0.0,0.0,0.0,0.0,0.0,0.0,0.0,0.0,0.0,0.0,0.0,0.0,0.0,0.0,0.0,1.4555,1.3686,1.3698,1.2721,1.2237,1.2382,1.2382,1.2193,1.175,0.0,0.0,0.0,0.0,0.0,0.0,0.0,0.0,0.0,0.0,0.0,0.0,0.0,0.0,0.0,0.0,0.0,0.0,0.0,0.0,0.0,0.0,0.0,0.0,0.0,0.0,0.0,0.0,0.0,0.0,0.0,0.0,0.0,0.0,0.0,0.0,0.0,0.0,1.7894,1.7497,0.0,0.0,0.0,0.0,0.0,0.0,0.0,0.0,1.169,0.0,0.0,0.0,0.0,0.0,0.0,0.0,0.0,0.0,0.0,0.0,0.0,0.0,0.0,0.0,0.0,0.0,0.0,0.0,0.0,0.0,0.0,0.0,0.0,0.0,0.0,0.0,0.0,0.0,0.0,0.0,0.0,0.0,0.0,0.0,0.0,0.0,0.0,0.0,0.0,0.0,0.0,0.0,0.0,0.0,0.0,0.0,0.0,0.0,0.0,0.0,0.0,0.0,0.0,0.0,0.0,1.6494,1.5188,1.4561,1.4704,1.3776,1.3632,1.4459,1.4513,1.4364,1.4124,0.0,0.0,0.0,0.0,0.0,0.0,0.0,0.0,0.0,0.0,0.0,0.0,0.0,0.0,0.0,0.0,0.0,0.0,0.0,0.0,0.0,0.0,0.0,0.0,0.0,0.0,0.0,0.0,0.0,0.0,0.0,0.0,0.0,0.0,0.0,0.0,0.0,0.0,0.0,1.7635,1.685,0.0,0.0,0.0,0.0,0.0,0.0,0.0,0.0,1.27,0.0,0.0,0.0,0.0,0.0,0.0,0.0,0.0,0.0,0.0,0.0,0.0,0.0,0.0,0.0,0.0,0.0,0.0,0.0,0.0,0.0,0.0,0.0,0.0,0.0,0.0,0.0,0.0,0.0,0.0,0.0,0.0,0.0,0.0,0.0,0.0,0.0,0.0,0.0,0.0,0.0,0.0,0.0,0.0,0.0,0.0,0.0,0.0,0.0,0.0,0.0,0.0,0.0,0.0,0.0,1.6824,1.6796,1.6398,1.5466,1.4937,1.493,1.5365,1.5419,1.5568,0.0,0.0,0.0,0.0,0.0,0.0,0.0,0.0,0.0,0.0,0.0,0.0,0.0,0.0,0.0,0.0,0.0,0.0,0.0,0.0,0.0,0.0,0.0,0.0,0.0,0.0,0.0,0.0,0.0,0.0,0.0,0.0,0.0,0.0,0.0,0.0,0.0,0.0,0.0,0.0,1.7989,1.7514,1.675,0.0,0.0,0.0,0.0,0.0,0.0,1.3494,1.2869,0.0,0.0,0.0,0.0,0.0,0.0,0.0,0.0,0.0,0.0,0.0,0.0,0.0,0.0,0.0,0.0,0.0,0.0,0.0,0.0,0.0,0.0,0.0,0.0,0.0,0.0,0.0,0.0,0.0,0.0,0.0,0.0,0.0,0.0,0.0,0.0,0.0,0.0,0.0,0.0,0.0,0.0,0.0,0.0,0.0,0.0,0.0,0.0,0.0,0.0,0.0,0.0,0.0,0.0,0.0,1.716,1.8156,1.7863,1.6177,1.6089,1.6082,1.6129,1.6318,1.6615,0.0,0.0,0.0,0.0,0.0,0.0,0.0,0.0,0.0,0.0,0.0,0.0,0.0,0.0,0.0,0.0,0.0,0.0,0.0,0.0,0.0,0.0,0.0,0.0,0.0,0.0,0.0,0.0,0.0,0.0,0.0,0.0,0.0,0.0,0.0,0.0,0.0,0.0,0.0,0.0,0.0,1.8105,1.7502,1.7073,0.0,0.0,0.0,0.0,1.4741,1.4065,0.0,0.0,0.0,0.0,0.0,0.0,0.0,0.0,0.0,0.0,0.0,0.0,0.0,0.0,0.0,0.0,0.0,0.0,0.0,0.0,0.0,0.0,0.0,0.0,0.0,0.0,0.0,0.0,0.0,0.0,0.0,0.0,0.0,0.0,0.0,0.0,0.0,0.0,0.0,0.0,0.0,0.0,0.0,0.0,0.0,0.0,0.0,0.0,0.0,0.0,0.0,0.0,0.0,0.0,0.0,0.0,1.7372,1.8017,1.8017,1.7185,1.7138,1.7138,1.7138,1.801,1.8017,0.0,0.0,0.0,0.0,0.0,0.0,0.0,0.0,0.0,0.0,0.0,0.0,0.0,0.0,0.0,0.0,0.0,0.0,0.0,0.0,0.0,0.0,0.0,0.0,0.0,0.0,0.0,0.0,0.0,0.0,0.0,0.0,0.0,0.0,0.0,0.0,0.0,0.0,0.0,0.0,0.0,1.8221,1.7803,1.7461,1.71,0.0,0.0,1.6809,1.6177,1.6073,0.0,0.0,0.0,0.0,0.0,0.0,0.0,0.0,0.0,0.0,0.0,0.0,0.0,0.0,0.0,0.0,0.0,0.0,0.0,0.0,0.0,0.0,0.0,0.0,0.0,0.0,0.0,0.0,0.0,0.0,0.0,0.0,0.0,0.0,0.0,0.0,0.0,0.0,0.0,0.0,0.0,0.0,0.0,0.0,0.0,0.0,0.0,0.0,0.0,0.0,0.0,0.0,0.0,0.0,0.0,2.0376,1.9055,1.9914,1.996,1.8964,1.8956,1.8964,1.8964,1.9376,1.933,0.0,0.0,0.0,0.0,0.0,0.0,0.0,0.0,0.0,0.0,0.0,0.0,0.0,0.0,0.0,0.0,0.0,0.0,0.0,0.0,0.0,0.0,0.0,0.0,0.0,0.0,0.0,0.0,0.0,0.0,0.0,0.0,0.0,0.0,0.0,0.0,0.0,0.0,0.0,0.0,0.0,0.0,1.8364,1.8183,0.0,0.0,0.0,1.7167,1.6565,0.0,0.0,0.0,0.0,0.0,0.0,0.0,0.0,0.0,0.0,0.0,0.0,0.0,0.0,0.0,0.0,0.0,0.0,0.0,0.0,0.0,0.0,0.0,0.0,0.0,0.0,0.0,0.0,0.0,0.0,0.0,0.0,0.0,0.0,0.0,0.0,0.0,0.0,0.0,0.0,0.0,0.0,0.0,0.0,0.0,0.0,0.0,0.0,0.0,0.0,0.0,0.0,0.0,0.0,0.0,0.0,0.0,2.023,2.1453,2.1534,2.0404,2.0359,2.0367,2.0367,2.0638,0.0,0.0,0.0,0.0,0.0,0.0,0.0,0.0,0.0,0.0,0.0,0.0,0.0,0.0,0.0,0.0,0.0,0.0,0.0,0.0,0.0,0.0,0.0,0.0,0.0,0.0,0.0,2.4189,0.0,0.0,0.0,0.0,0.0,0.0,0.0,0.0,0.0,0.0,0.0,0.0,0.0,0.0,1.9931,1.9303,1.9208,1.916,0.0,0.0,1.776,1.7225,1.7144,1.6696,0.0,0.0,0.0,0.0,0.0,0.0,0.0,0.0,0.0,0.0,0.0,0.0,0.0,0.0,0.0,0.0,0.0,0.0,0.0,0.0,0.0,0.0,0.0,0.0,0.0,0.0,0.0,0.0,0.0,0.0,0.0,0.0,0.0,0.0,0.0,0.0,0.0,0.0,0.0,0.0,0.0,0.0,0.0,0.0,0.0,0.0,0.0,0.0,0.0,0.0,0.0,0.0,0.0,0.0,2.1931,2.0123,2.1581,2.1889,2.089,2.0845,2.0845,2.089,2.1756,2.1721,0.0,0.0,0.0,0.0,0.0,0.0,0.0,0.0,0.0,0.0,0.0,0.0,0.0,0.0,0.0,0.0,0.0,0.0,0.0,0.0,0.0,0.0,0.0,0.0,0.0,0.0,0.0,0.0,0.0,0.0,0.0,0.0,0.0,0.0,0.0,0.0,0.0,0.0,0.0,0.0,0.0,2.0939,2.0832,2.0604,2.0313,0.0,0.0,1.9244,1.8656,1.8567,1.8157,1.6942,0.0,0.0,0.0,0.0,0.0,0.0,0.0,0.0,0.0,0.0,0.0,0.0,0.0,0.0,0.0,0.0,0.0,0.0,0.0,0.0,0.0,0.0,0.0,0.0,0.0,0.0,0.0,0.0,0.0,0.0,0.0,0.0,0.0,0.0,0.0,0.0,0.0,0.0,0.0,0.0,0.0,0.0,0.0,0.0,0.0,0.0,0.0,0.0,0.0,0.0,0.0,0.0,0.0,2.2839,2.2012,2.2997,2.3246,2.2711,2.2702,2.2692,2.2702,2.3587,2.3715,0.0,0.0,0.0,0.0,0.0,0.0,0.0,0.0,0.0,0.0,0.0,0.0,0.0,0.0,0.0,0.0,0.0,0.0,0.0,0.0,0.0,0.0,0.0,0.0,0.0,0.0,0.0,0.0,2.594,2.524,2.4407,0.0,0.0,0.0,0.0,0.0,0.0,0.0,0.0,0.0,0.0,2.1382,2.0781,2.0916,0.0,0.0,2.045,2.0012,1.9696,1.9429,1.885,1.7763,1.7186,0.0,0.0,0.0,0.0,0.0,0.0,0.0,0.0,0.0,0.0,0.0,0.0,0.0,0.0,0.0,0.0,0.0,0.0,0.0,0.0,0.0,0.0,0.0,0.0,0.0,0.0,0.0,0.0,0.0,0.0,0.0,0.0,0.0,0.0,0.0,0.0,0.0,0.0,0.0,0.0,0.0,0.0,0.0,0.0,0.0,0.0,0.0,0.0,0.0,0.0,0.0,0.0,2.3629,2.3474,2.4546,2.4967,2.4787,2.4797,2.4797,2.4829,2.5389,2.5467,0.0,0.0,0.0,0.0,0.0,0.0,0.0,0.0,0.0,0.0,0.0,0.0,0.0,0.0,0.0,0.0,0.0,0.0,0.0,0.0,0.0,0.0,0.0,0.0,0.0,0.0,0.0,0.0,2.7516,2.6594,2.5409,0.0,0.0,0.0,0.0,0.0,0.0,0.0,0.0,0.0,0.0,2.2234,2.1548,2.1707,2.1756,2.151,2.1193,2.0865,2.0547,2.0274,1.9795,1.8886,0.0,0.0,0.0,0.0,0.0,0.0,0.0,0.0,0.0,0.0,0.0,0.0,0.0,0.0,0.0,0.0,0.0,0.0,0.0,0.0,0.0,0.0,0.0,0.0,0.0,0.0,0.0,0.0,0.0,0.0,2.8938,0.0,0.0,0.0,0.0,0.0,0.0,0.0,0.0,0.0,0.0,0.0,0.0,0.0,0.0,0.0,0.0,0.0,0.0,0.0,0.0,0.0,0.0,2.4194,2.4234,2.6053,2.6987,2.6976,2.7017,2.6976,2.6976,2.7058,2.6976,2.6726,0.0,0.0,0.0,0.0,0.0,0.0,0.0,0.0,0.0,0.0,0.0,0.0,0.0,0.0,0.0,0.0,0.0,0.0,0.0,0.0,0.0,0.0,0.0,0.0,0.0,0.0,2.8769,2.8685,2.8224,0.0,0.0,0.0,0.0,0.0,0.0,0.0,0.0,0.0,0.0,2.4439,2.3578,2.3519,2.3176,2.274,2.2176,2.2063,2.1835,2.1242,2.1165,2.1001,0.0,0.0,0.0,0.0,0.0,0.0,0.0,0.0,0.0,0.0,0.0,0.0,0.0,0.0,0.0,0.0,0.0,0.0,0.0,0.0,0.0,0.0,0.0,0.0,0.0,0.0,0.0,3.0766,3.1079,0.0,0.0,0.0,0.0,0.0,0.0,0.0,0.0,0.0,0.0,0.0,3.2642,3.3241,0.0,0.0,0.0,0.0,0.0,0.0,0.0,0.0,0.0,0.0,0.0,0.0,2.5707,2.5792,2.6605,2.7098,2.7098,2.7098,2.7098,2.7098,2.773,2.7845,2.749,0.0,0.0,0.0,0.0,0.0,0.0,0.0,0.0,0.0,0.0,0.0,0.0,0.0,0.0,0.0,0.0,0.0,0.0,0.0,0.0,0.0,0.0,0.0,0.0,0.0,2.9688,0.0,0.0,0.0,0.0,0.0,0.0,0.0,0.0,0.0,0.0,0.0,2.5756,2.5742,2.5028,2.4551,2.4515,2.3875,2.3335,0.0,0.0,0.0,0.0,0.0,0.0,0.0,0.0,0.0,0.0,0.0,0.0,0.0,0.0,1.8638,1.6917,1.5997,1.5394,1.5153,0.0,0.0,0.0,0.0,0.0,0.0,0.0,0.0,0.0,0.0,0.0,0.0,0.0,0.0,3.2269,0.0,3.2593,0.0,0.0,0.0,0.0,0.0,0.0,0.0,0.0,3.4041,3.4192,3.365,3.4211,3.4211,0.0,3.3271,3.2137,0.0,0.0,0.0,0.0,0.0,0.0,0.0,0.0,2.6968,2.707,2.7723,2.8051,2.8051,2.8063,2.8063,2.8063,2.8633,2.879,2.8513,2.8175,2.789,0.0,0.0,0.0,0.0,0.0,0.0,0.0,0.0,0.0,0.0,0.0,0.0,0.0,0.0,0.0,0.0,0.0,0.0,0.0,0.0,0.0,0.0,0.0,3.1129,0.0,0.0,0.0,0.0,0.0,0.0,0.0,0.0,0.0,2.6293,2.6351,2.6536,2.6747,2.6225,2.5874,2.6092,0.0,0.0,0.0,0.0,0.0,0.0,0.0,2.2237,2.1849,2.1469,2.1068,2.0731,2.1058,2.1148,2.0488,0.0,0.0,1.8099,1.7289,1.6769,1.6291,1.586,1.5527,1.5284,1.4847,1.434,0.0,0.0,0.0,0.0,0.0,0.0,0.0,0.0,3.2827,3.2848,0.0,3.2862,0.0,0.0,0.0,0.0,0.0,3.3725,0.0,0.0,3.5118,3.5537,3.5489,3.5489,3.5504,3.5489,3.5457,3.4924,3.3926,3.2092,0.0,0.0,0.0,0.0,0.0,0.0,2.8001,2.8293,2.926,2.983,2.983,2.983,2.9856,2.9895,2.9895,2.9882,2.9908,3.0078,3.0243,3.0408,2.921,0.0,0.0,0.0,0.0,0.0,0.0,0.0,0.0,0.0,0.0,0.0,0.0,0.0,0.0,0.0,0.0,0.0,0.0,0.0,0.0,3.329,0.0,0.0,0.0,0.0,0.0,0.0,0.0,0.0,0.0,0.0,2.7475,2.6884,2.705,2.8547,0.0,0.0,0.0,0.0,2.6528,2.6033,2.5421,2.4862,2.4322,2.4225,2.42,2.4189,0.0,0.0,2.2327,2.2665,2.2654,2.151,2.1804,2.1507,1.9536,1.8832,1.8323,1.7691,1.7495,1.7532,1.7488,1.7213,1.6809,3.5991,0.0,0.0,0.0,0.0,3.522,3.5682,3.6027,3.6152,3.6121,3.6043,3.6027,0.0,0.0,0.0,0.0,0.0,0.0,3.6213,3.6229,3.6661,3.66,3.6148,3.6133,3.5894,3.5504,3.5489,3.5359,3.5052,3.4504,3.2842,3.0183,0.0,0.0,0.0,0.0,3.0732,3.1232,3.0618,3.047,3.1009,3.1009,3.1244,3.1806,3.1792,3.1792,3.1806,3.1848,3.1741,3.1424,3.102,0.0,0.0,0.0,0.0,0.0,0.0,0.0,0.0,0.0,0.0,0.0,0.0,0.0,0.0,0.0,0.0,0.0,0.0,0.0,3.3304,3.3152,3.286,0.0,0.0,0.0,0.0,0.0,0.0,0.0,0.0,0.0,2.9787,2.9107,2.8925,0.0,0.0,2.903,2.9187,2.839,2.7562,2.696,2.65,0.0,2.543,2.5016,2.4767,2.4767,2.4358,2.3934,2.3629,2.3751,2.374,2.3361,2.3482,2.3261,2.2262,2.0762,1.964,1.908,1.8665,1.8288,1.7978,1.7509,1.6851,3.823,3.6487,3.5878,3.5887,3.6322,3.6811,3.7217,3.756,3.7663,3.7648,3.756,3.756,3.756,3.756,3.7383,0.0,0.0,0.0,3.7221,3.7221,3.7324,3.7191,3.6814,3.6523,3.618,3.5861,3.5587,3.5489,3.5489,3.5489,3.4268,3.1934,0.0,0.0,3.1451,3.1739,3.2191,3.2678,3.1769,3.1489,3.1915,3.1951,3.2169,3.2558,3.2593,3.2593,3.2607,3.2904,3.2933,3.2672,3.2384,3.2123,0.0,0.0,0.0,0.0,0.0,0.0,0.0,0.0,0.0,0.0,0.0,3.295,3.3739,0.0,0.0,0.0,3.4942,3.4491,3.4085,3.4108,0.0,0.0,0.0,0.0,0.0,0.0,0.0,3.2254,3.176,3.16,3.2201,3.1678,3.1146,3.0807,3.0465,3.037,3.061,0.0,2.9139,2.8335,2.7828,2.7227,2.6408,2.601,2.5674,2.5288,2.4981,2.4611,2.4261,2.4189,2.4189,2.4189,2.4189,2.408,2.3728,2.2435,2.1141,2.0348,1.9726,1.917,1.8756,1.8163,1.7421,4.0234,4.0089,3.8698,3.8126,3.8069,3.8062,3.8046,3.803,3.7982,3.795,3.7966,3.795,3.7921,3.7966,3.7822,0.0,3.7764,3.7634,3.7589,3.7605,3.756,3.7546,3.7458,3.6875,3.6508,3.6446,3.591,3.5651,3.5683,3.5651,3.5169,3.4216,3.4182,3.3794,3.3017,3.282,3.2855,3.3101,3.2784,3.2678,3.2735,3.2735,3.277,3.2855,3.282,3.2855,3.2841,3.3561,3.3988,3.4081,3.348,3.3196,3.3347,0.0,0.0,0.0,0.0,0.0,0.0,0.0,0.0,0.0,0.0,0.0,0.0,0.0,0.0,0.0,3.6053,0.0,3.5299,3.5686,0.0,0.0,0.0,3.4233,3.3311,3.3469,3.3652,3.3697,0.0,0.0,3.4399,3.4205,3.3398,3.1784,3.151,3.1665,3.2137,3.1658,3.0961,2.975,2.9172,2.842,2.7359,2.7061,2.6722,2.5906,2.5697,2.5429,2.4718,2.4442,2.4406,2.4442,2.4334,2.4298,2.4309,2.3765,2.2984,2.1638,2.075,2.0148,1.9788,1.9184,1.8502,4.2267,4.1715,4.1364,4.0857,4.0242,4.0249,4.017,4.0055,3.9588,3.9355,3.9249,3.9259,3.9249,3.9259,3.9206,3.9206,3.9195,3.9077,3.9061,3.9152,3.8969,3.8634,3.8222,3.7966,3.7589,3.7191,3.7027,3.6951,3.6966,3.692,3.6585,3.5866,3.5834,3.5112,3.3808,3.3842,3.4211,3.4887,3.3679,3.3339,3.3891,3.3891,3.4177,3.4773,3.482,3.482,3.482,3.4986,3.51,3.5133,3.4984,3.4896,3.4928,3.4617,0.0,0.0,0.0,0.0,0.0,0.0,0.0,0.0,0.0,3.5499,3.5499,0.0,3.5753,0.0,3.748,3.711,3.5878,3.6334,0.0,0.0,3.559,3.5483,3.5238,3.4894,3.4804,3.5272,3.466,3.4429,3.5085,3.4839,3.4413,3.3859,3.3328,3.2771,3.23,3.211,3.1563,3.0483,3.0036,2.9558,2.8398,2.7855,2.741,2.679,2.6654,2.6586,2.638,2.5978,2.5699,2.5664,2.5347,2.5064,2.5028,2.4707,2.419,2.3452,2.2065,2.0875,2.0769,2.0149,1.9229,4.369,4.3301,4.3345,4.3037,4.2527,4.1849,4.1546,4.1449,4.1124,4.0744,4.0329,4.0035,3.9884,3.9884,3.9833,3.9798,3.9798,3.9642,3.9625,3.9703,3.9547,3.9319,3.9001,3.8601,3.8222,3.7879,3.756,3.7383,3.7383,3.7383,3.7221,3.6829,3.6829,3.6244,3.5094,3.4909,3.5052,3.5472,3.4654,3.4423,3.4791,3.4824,3.5052,3.5457,3.5489,3.5489,3.5489,3.5765,3.5797,3.5537,3.578,3.591,3.591,3.5799,3.5894,0.0,0.0,0.0,0.0,0.0,0.0,0.0,0.0,0.0,0.0,0.0,3.6523,3.7189,3.7882,3.7826,3.6769,3.7095,3.7235,3.6846,3.6677,3.6616,3.6631,3.6337,3.6244,3.6554,3.6122,3.5938,3.6275,3.6118,3.5819,3.5355,3.4916,3.4283,3.3304,3.2659,3.1902,3.1054,3.0398,2.9686,2.8722,2.8346,2.7954,2.7477,2.7343,2.731,2.704,2.6756,2.6564,2.653,2.6082,2.5699,2.5711,2.5324,2.4933,2.4528,2.3478,2.2403,2.1849,2.1058,2.013,4.4803,4.4803,4.4803,4.4803,4.4701,4.3357,4.2666,4.2439,4.232,4.188,4.1153,4.0417,4.0113,4.0113,3.9986,3.9926,3.9926,3.9781,3.9729,3.9755,3.9729,3.9703,3.9687,3.9001,3.864,3.8629,3.7994,3.7677,3.7693,3.7693,3.7648,3.756,3.756,3.7205,3.6554,3.6022,3.5716,3.5619,3.5619,3.5569,3.5489,3.5569,3.5619,3.5619,3.5716,3.5733,3.5765,3.6258,3.629,3.5797,3.6258,3.6523,3.6523,3.6523,3.6723,0.0,3.7131,0.0,0.0,0.0,0.0,0.0,0.0,0.0,0.0,3.778,3.7589,3.707,3.7966,3.8359,3.7738,3.7934,3.8069,3.7943,3.7698,3.7553,3.7553,3.7539,3.751,3.751,3.751,3.751,3.745,3.751,3.7164,3.6368,3.6044,3.5607,3.464,3.3384,3.2325,3.1627,3.0358,2.934,2.8741,2.8587,2.8411,2.802,2.7908,2.7743,2.7343,2.7162,2.7108,2.7074,2.6667,2.6289,2.622,2.5769,2.5418,2.5229,2.4636,2.3891,2.2962,2.2038,2.1306,4.5817,4.5817,4.5817,4.5835,4.58,4.5503,4.4527,4.3166,4.2557,4.1897,4.117,4.0409,4.0113,4.0113,4.0087,4.0062,4.0062,3.991,3.9935,4.002,3.979,3.9755,3.9833,3.9609,3.9478,3.9478,3.9329,3.9259,3.9276,3.9276,3.8984,3.8469,3.8346,3.7994,3.7399,0.0,0.0,0.0,3.6242,3.6005,3.5537,3.6005,3.6227,3.6243,3.6753,0.0,3.7041,3.7177,3.7161,3.7057,3.7161,0.0,0.0,0.0,0.0,0.0,0.0,0.0,0.0,0.0,0.0,0.0,3.7942,3.7978,3.8023,3.859,3.8722,3.8205,3.9024,3.9223,3.8371,3.8779,3.8904,3.8371,3.8017,3.7844,3.7815,3.7626,3.751,3.751,3.751,3.751,3.751,3.751,3.7359,3.6981,3.6513,3.6052,3.5645,3.4317,3.3051,3.1782,3.0424,2.9323,2.8665,2.8651,2.867,2.8457,2.8457,2.8392,2.8249,2.7875,2.7676,2.7643,2.7196,2.6701,2.6336,2.6117,2.5873,2.5406,2.5158,2.4826,2.4,2.3195,2.228,4.6116,4.6116,4.6116,4.6116,0.0,4.6116,4.5591,4.469,4.4068,4.301,4.1694,4.0967,4.0451,4.0113,4.0113,4.0113,4.0113,4.0037,4.0037,4.0096,3.9944,3.9935,3.9986,3.9875,3.9781,3.9824,3.9729,3.9703,3.9703,3.9703,3.9513,3.9189,3.9135,3.8767,3.8177,3.8007,3.7589,3.689,3.6906,3.6738,3.6461,3.6723,3.6906,3.689,3.7221,0.0,0.0,0.0,0.0,0.0,0.0,0.0,0.0,3.7851,0.0,3.8327,3.8355,3.8339,3.8339,3.8355,3.8451,3.8788,3.8799,3.8772,3.8706,3.9067,3.9164,3.8892,3.932,3.9413,3.8914,3.8993,3.8974,3.8621,3.8347,3.8132,3.8103,3.7889,3.7685,3.7685,3.7583,3.751,3.751,3.751,3.7464,3.7359,3.7062,3.6528,3.5678,3.4331,3.2839,3.1484,3.0728,3.0027,2.9577,2.9467,2.9324,2.9149,2.894,2.8844,2.8844,2.849,2.8183,2.8164,2.7743,2.7276,2.704,2.6803,2.6427,2.5896,2.5734,2.5523,2.4814,2.4084,2.336,4.6382,4.6382,4.6382,4.6382,4.6382,4.6382,4.6334,4.6196,0.0,0.0,0.0,4.1801,4.1052,4.0353,4.0353,4.0336,4.0336,4.0336,4.0336,4.0336,4.0254,4.0204,4.0221,4.0037,3.9952,3.9926,3.9833,3.9781,3.9781,3.9781,3.9781,3.9781,3.9755,3.9418,3.8914,3.875,3.8435,3.7822,3.7634,3.7517,3.7429,3.7517,3.756,3.7589,3.7722,3.778,3.7796,3.8238,3.8266,3.778,3.821,3.8463,3.8479,3.8463,3.8701,3.9245,3.9415,3.9431,3.9315,3.9415,3.9431,3.9315,3.9315,3.9315,3.9315,3.9315,3.9315,3.9315,3.9315,3.9315,3.9315,3.9067,3.8887,3.8903,3.8628,3.8476,3.8448,3.8205,3.7988,3.796,3.7743,3.7583,3.7583,3.7539,3.751,3.7478,3.7291,3.6814,3.5373,3.3932,3.2573,3.1468,3.1115,3.0896,3.051,3.0375,3.0208,2.9761,2.9481,2.9306,2.9162,2.8972,2.878,2.878,2.8411,2.8137,2.7973,2.7643,2.7162,2.662,2.638,2.6173,2.5652,2.4909,2.4289,4.7468,4.749,4.749,4.749,4.7472,4.7468,4.7196,4.6699,4.5534,4.448,4.3552,4.2806,4.2037,4.1321,4.1303,4.1303,4.1303,4.1303,4.1303,4.1281,4.0896,4.0683,4.0683,4.0271,4.0087,4.0062,4.0045,4.0062,4.0062,4.0062,4.0045,4.002,3.9935,3.9755,3.9566,3.953,3.9461,3.9355,3.8574,3.7908,3.7413,3.7924,3.8238,3.8379,3.8898,3.9202,3.9202,3.9282,3.9228,3.9023,3.9121,3.9148,3.9148,3.9148,3.9202,3.9332,3.9895,3.9978,3.9365,3.9879,3.9978,3.9381,3.9315,3.9315,3.9315,3.9315,3.9315,3.9315,3.9315,3.9315,3.9299,3.9245,3.9218,3.9191,3.8931,3.875,3.8722,3.8488,3.8319,3.8335,3.8062,3.7828,3.7844,3.7671,3.7539,3.7415,3.7051,3.6121,3.4908,3.3689,3.2811,3.213,3.1847,3.1519,3.1057,3.0837,3.0704,3.0254,3.0178,3.0009,2.9634,2.9509,2.9446,2.9446,2.9289,2.9103,2.8739,2.8597,2.8274,2.7769,2.7271,2.6833,2.665,2.5953,2.5146,4.7699,4.7699,4.7699,4.7699,4.7699,4.7699,4.7554,4.7248,4.6243,4.5022,4.3799,4.343,4.2627,4.1556,4.1503,4.1503,4.1503,4.1503,4.1503,4.1481,4.1276,4.1185,4.1162,4.0955,4.0861,4.0855,4.0879,4.0737,4.0483,4.05,4.0353,4.0138,4.0037,3.9986,3.991,3.9833,3.9824,3.9781,3.9329,3.892,3.8673,3.892,3.9082,3.9135,3.9451,3.9599,3.9616,3.9599,3.959,3.952,3.9537,3.952,3.9494,3.9511,3.9494,3.9554,4.0194,4.045,4.0037,4.0237,4.0078,3.9381,3.9315,3.9315,3.9315,3.9315,3.9315,3.9315,3.9315,3.9315,3.9315,3.9315,3.9315,3.9315,3.9148,3.9067,3.9023,3.8794,3.8628,3.86,3.8331,3.816,3.8177,3.8062,3.7905,3.7695,3.6965,3.6153,3.5505,3.4802,3.3967,3.3006,3.2695,3.2449,3.1931,3.1819,3.1635,3.1247,3.1028,3.0748,3.0328,3.0115,2.9915,2.9665,2.9602,2.9509,2.9261,2.9243,2.9008,2.8565,2.8228,2.7855,2.7524,2.6867,2.5836,4.7741,4.7699,4.772,4.7738,4.7699,4.7699,4.7699,4.7627,4.6827,4.5602,4.4258,4.3961,4.3094,4.1878,4.1807,4.1807,4.1807,4.1807,4.1825,4.1807,4.17,4.1635,4.1635,4.1565,4.1503,4.1503,4.1503,4.1321,4.0995,4.0966,4.0761,4.0451,4.0303,4.0303,4.0427,4.0204,4.0096,4.007,3.9893,3.9755,3.9703,3.9703,3.9687,3.9729,3.9729,3.9729,3.9729,3.9755,3.9729,3.9703,3.9703,3.9703,3.9703,3.9703,3.9703,3.977,4.0531,4.108,4.1105,4.0832,4.0425,3.9857,3.9728,3.9722,3.9705,3.9661,3.952,3.9335,3.9379,3.9432,3.9458,3.9458,3.9484,3.9504,3.9556,3.9556,3.953,3.9265,3.905,3.9023,3.8722,3.8516,3.8572,3.8504,3.829,3.7937,3.7323,3.6845,3.6537,3.6045,3.5237,3.4205,3.3656,3.3291,3.2881,3.2738,3.2504,3.2132,3.1849,3.1507,3.1131,3.0807,3.0614,3.0297,3.0113,3.0083,2.9991,2.9913,2.9713,2.9328,2.9075,2.8744,2.8084,2.7425,2.6445,4.7868,4.772,4.7822,4.7819,4.7699,4.7717,4.7699,4.7591,4.6848,4.6011,4.5075,4.4375,4.3561,4.2841,4.2731,4.2731,4.2749,4.275,4.2731,4.2692,4.2338,4.2136,4.2095,4.17,4.1503,4.1525,4.1547,4.1525,4.1437,4.1415,4.1393,4.1326,4.0932,4.0949,4.1253,4.0926,4.0707,4.0724,4.0279,3.9944,3.9729,3.9703,3.9772,3.9875,3.9875,3.9875,3.991,3.9875,3.9807,3.972,3.9755,3.9729,3.9729,3.9729,3.9729,3.978,4.1027,4.2088,4.2629,4.1924,4.1401,4.1281,4.1068,4.0984,4.0966,4.0778,4.0286,3.9728,3.9728,3.9849,3.9833,3.9849,3.9944,4.017,4.022,4.0302,4.022,4.0003,3.9781,3.9798,3.9239,3.8898,3.9189,3.8871,3.8476,3.8432,3.8189,3.779,3.7102,3.6837,3.637,3.5352,3.4695,3.4004,3.3439,3.3256,3.3058,3.266,3.2504,3.2256,3.1892,3.1722,3.1665,3.1291,3.1248,3.1029,3.0925,3.0836,3.0492,3.019,2.9808,2.9265,2.8409,2.7756,2.6888,4.7951,4.7888,4.7947,4.7909,4.7868,4.7842,4.7819,4.771,4.6461,4.5677,4.5164,4.3951,4.3209,4.2919,4.2919,4.2919,4.2919,4.2919,4.2919,4.2882,4.2692,4.2614,4.2595,4.2438,4.2322,4.234,4.232,4.2177,4.1909,4.1635,4.1503,4.1481,4.1281,4.1321,4.1481,4.1321,4.119,4.1208,4.1024,4.0879,4.072,4.0212,3.9944,4.0011,4.0011,4.0171,4.0402,4.0451,4.0556,4.0726,4.075,4.075,4.0767,4.075,4.0767,4.0853,4.2117,4.303,4.3348,4.3327,4.315,4.2725,4.2588,4.2515,4.2556,4.2643,4.2473,4.1812,4.0847,4.0187,4.0204,4.0204,4.0245,4.0392,4.04,4.0417,4.0417,4.0269,4.0187,4.0162,3.9944,3.9774,3.9902,3.962,3.9269,3.9044,3.8854,3.8427,3.787,3.7628,3.7153,3.6437,3.5867,3.5094,3.4178,3.3893,3.3639,3.3206,3.3011,3.285,3.2465,3.2312,3.2244,3.1992,3.1809,3.1552,3.1248,3.119,3.0955,3.0717,3.0477,2.9931,2.917,2.8807,2.8214,4.8052,4.8012,4.7992,4.7992,4.7992,4.7947,4.7797,4.7452,4.6124,4.534,4.4917,4.3574,4.2994,4.2957,4.292,4.2919,4.2919,4.2919,4.2919,4.2919,4.2919,4.2919,4.2919,4.2919,4.2919,4.2919,4.29,4.2711,4.2378,4.1909,4.1743,4.1846,4.176,4.1743,4.1867,4.1782,4.1696,4.1696,4.1569,4.1503,4.1393,4.0832,4.0466,4.0466,4.0483,4.0635,4.0972,4.0995,4.1139,4.1481,4.1503,4.1503,4.1503,4.1503,4.1569,4.1868,4.2952,4.3739,4.392,4.4552,4.467,4.4173,4.4038,4.3989,4.4052,4.4205,4.4205,4.3832,4.2463,4.1572,4.0982,4.0714,4.0611,4.0707,4.0713,4.0731,4.0754,4.0659,4.058,4.0563,4.04,4.04,4.0375,4.0277,4.0103,3.9749,3.9482,3.9193,3.8925,3.864,3.8235,3.7579,3.7215,3.6414,3.4987,3.4589,3.4288,3.383,3.3582,3.3412,3.2924,3.2807,3.278,3.2563,3.2272,3.2048,3.1851,3.1667,3.1336,3.0955,3.0687,3.0477,2.9931,2.9747,2.9421,4.817,4.8012,4.7992,4.8012,4.7992,4.7992,4.7554,4.686,4.5968,4.5165,4.4435,4.3561,4.3178,4.3178,4.2976,4.2901,4.2919,4.2919,4.2919,4.2919,4.2919,4.2919,4.2919,4.2919,4.2919,4.2919,4.2919,4.2863,4.2806,4.2398,4.2398,4.2768,4.2378,4.238,4.2653,4.2358,4.2157,4.2136,4.1803,4.1565,4.1547,4.1481,4.1437,4.1437,4.1415,4.141,4.1459,4.1459,4.1503,4.1503,4.1569,4.1547,4.1525,4.1547,4.1846,4.2522,4.3365,4.4132,4.4765,4.5361,4.5664,4.5566,4.5383,4.5224,4.5284,4.5201,4.5117,4.4959,4.4589,4.3798,4.2654,4.1708,4.1267,4.1541,4.1533,4.1475,4.1498,4.114,4.0984,4.0913,4.0707,4.0563,4.0473,4.0748,4.0707,4.0449,4.0326,4.0178,3.9876,3.9825,3.9432,3.8933,3.8532,3.7987,3.5955,3.5415,3.5098,3.4533,3.4184,3.402,3.3609,3.3266,3.3214,3.3107,3.278,3.2574,3.2449,3.216,3.1724,3.1321,3.0896,3.0628,3.0538,2.9993,2.9732,4.8267,4.819,4.8168,4.8149,4.819,4.8149,4.7653,4.6886,4.6082,4.524,4.4381,4.3543,4.3214,4.3178,4.3142,4.3087,4.3105,4.305,4.3012,4.303,4.2938,4.2919,4.2919,4.2919,4.2919,4.2919,4.2919,4.2919,4.2882,4.2729,4.2711,4.2826,4.2731,4.2749,4.2844,4.2749,4.2653,4.2634,4.246,4.24,4.236,4.238,4.24,4.236,4.1807,4.1635,4.1948,4.1952,4.2077,4.238,4.24,4.24,4.24,4.2418,4.2488,4.2862,4.4047,4.4889,4.5247,4.6331,4.6975,4.6978,4.6889,4.6794,4.6827,4.6765,4.6726,4.6594,4.6014,4.5366,4.4741,4.3359,4.2401,4.2454,4.1996,4.1639,4.1582,4.1471,4.1386,4.1363,4.1232,4.1186,4.1146,4.1277,4.1209,4.0866,4.0795,4.0635,4.0326,4.0128,3.9952,3.9664,3.9397,3.902,3.8358,3.6964,3.6115,3.5375,3.4859,3.4433,3.4042,3.3609,3.3462,3.3419,3.3186,3.2915,3.2753,3.2299,3.1908,3.1737,3.135,3.1073,3.1058,3.0598,3.0463,4.8324,4.8305,4.8247,4.8267,4.8287,4.8247,4.7642,4.6634,4.6066,4.5187,4.4145,4.3524,4.3304,4.3304,4.3304,4.3286,4.3286,4.3196,4.3123,4.3123,4.305,4.2995,4.2995,4.2995,4.3013,4.2994,4.2994,4.2938,4.2919,4.2919,4.2919,4.2919,4.2919,4.2919,4.2919,4.2919,4.2919,4.2919,4.2919,4.29,4.2919,4.2919,4.2919,4.2825,4.2279,4.2115,4.2418,4.2418,4.2557,4.2844,4.2919,4.2919,4.2919,4.2919,4.3028,4.3408,4.4548,4.5436,4.578,4.6957,4.7678,4.7717,4.7699,4.7699,4.7699,4.7699,4.7699,4.753,4.716,4.6675,4.6359,4.5115,4.3999,4.3592,4.2701,4.2146,4.2176,4.1833,4.1622,4.1582,4.1542,4.1582,4.1604,4.1582,4.1453,4.1209,4.1203,4.1071,4.0843,4.0659,4.0424,4.0343,4.0161,3.9952,3.948,3.8602,3.7552,3.6766,3.6158,3.5514,3.4792,3.4298,3.3884,3.3768,3.3535,3.3277,3.2904,3.2453,3.2244,3.2145,3.1779,3.1495,3.1408,3.1263,3.1117,4.8325,4.8326,4.8325,4.8345,4.8363,4.8383,4.7426,4.6194,4.5993,4.5128,4.3788,4.3515,4.3515,4.3479,4.3462,4.3479,4.3427,4.3304,4.3214,4.3214,4.3196,4.3196,4.3178,4.3178,4.3178,4.316,4.3123,4.3012,4.2938,4.2919,4.2919,4.2919,4.2919,4.2919,4.2919,4.2919,4.2919,4.2919,4.2919,4.2919,4.2919,4.2919,4.2919,4.2919,4.2825,4.2806,4.2863,4.2863,4.2844,4.29,4.2919,4.2919,4.2919,4.2919,4.3245,4.3987,4.4838,4.5635,4.6395,4.7189,4.7699,4.7699,4.7699,4.7699,4.7699,4.7699,4.7699,4.766,4.7624,4.7606,4.7437,4.6657,4.5692,4.4779,4.3756,4.3251,4.3191,4.2404,4.1626,4.1666,4.1653,4.1626,4.1626,4.1648,4.1604,4.1565,4.1538,4.1515,4.1431,4.1363,4.134,4.1094,4.0866,4.0689,4.0431,4.0068,3.9168,3.8323,3.7791,3.7203,3.6279,3.5629,3.51,3.486,3.4264,3.3947,3.3747,3.3311,3.2915,3.2722,3.2312,3.2033,3.2018,3.1962,3.1652,4.8849,4.8676,4.89,4.8849,4.8712,4.89,4.8084,4.6666,4.6592,4.5552,4.4064,4.3828,4.3716,4.3531,4.3479,4.3496,4.3479,4.3427,4.3375,4.334,4.3251,4.3214,4.3214,4.3214,4.3214,4.3196,4.3123,4.3086,4.303,4.2957,4.2919,4.2919,4.2919,4.2919,4.2919,4.2919,4.2919,4.2919,4.2919,4.2919,4.2919,4.2919,4.2919,4.2919,4.2919,4.2919,4.2919,4.2919,4.2919,4.2919,4.2919,4.2919,4.2919,4.2919,4.3281,4.4041,4.4856,4.5653,4.6468,4.7207,4.7699,4.7699,4.7699,4.7699,4.7699,4.7699,4.7699,4.7699,4.7699,4.7699,4.7642,4.7476,4.6768,4.5839,4.4836,4.4224,4.4143,4.3465,4.2704,4.2168,4.2061,4.2079,4.2037,4.1991,4.1805,4.1784,4.1697,4.1604,4.1604,4.1604,4.1582,4.1431,4.1386,4.1323,4.1053,4.0849,4.0371,3.9585,3.9068,3.8588,3.7713,3.6875,3.6375,3.5707,3.5091,3.4703,3.4513,3.4142,3.3736,3.3424,3.3102,3.2953,3.2879,3.2664,3.2379,4.9193,4.9034,4.9224,4.9193,4.8999,4.9224,4.8566,4.7402,4.7007,4.6027,4.4778,4.4263,4.4045,4.3873,4.3841,4.3761,4.3681,4.3701,4.36,4.3446,4.3339,4.3304,4.3322,4.3304,4.3286,4.3269,4.3215,4.3178,4.3142,4.3068,4.2995,4.3013,4.3013,4.3013,4.3013,4.3013,4.3013,4.3013,4.3031,4.2995,4.3013,4.2995,4.2994,4.2975,4.2957,4.2938,4.2919,4.2919,4.2919,4.2973,4.3173,4.3335,4.3353,4.3643,4.415,4.4892,4.5454,4.6106,4.6902,4.7446,4.7699,4.7699,4.7699,4.7699,4.7699,4.7699,4.7699,4.7699,4.7699,4.7699,4.7699,4.7699,4.7401,4.6843,4.5857,4.5151,4.4782,4.4321,4.387,4.3346,4.2965,4.2807,4.2695,4.2294,4.2076,4.2019,4.1849,4.1697,4.1714,4.1648,4.1626,4.1604,4.1542,4.152,4.1582,4.1498,4.1453,4.0822,4.0199,3.9685,3.9017,3.8145,3.7484,3.6525,3.5808,3.5613,3.5378,3.4872,3.443,3.4185,3.3931,3.3668,3.3491,3.3371,3.3108,4.9363,4.9329,4.9345,4.9378,4.9329,4.9375,4.893,4.8092,4.7447,4.6662,4.5754,4.497,4.4533,4.4496,4.4393,4.4173,4.4064,4.4017,4.3857,4.3681,4.3597,4.358,4.3479,4.3444,4.3445,4.3394,4.3376,4.3323,4.3214,4.3178,4.3196,4.3178,4.3178,4.3196,4.3178,4.3196,4.3196,4.3178,4.3196,4.3196,4.3215,4.3306,4.3287,4.325,4.3359,4.3395,4.3338,4.3338,4.3173,4.31,4.3751,4.4168,4.4277,4.4892,4.549,4.6214,4.6468,4.6827,4.7464,4.7645,4.7699,4.7699,4.7699,4.7699,4.7699,4.7699,4.7699,4.7699,4.7699,4.7699,4.7699,4.7699,4.7642,4.7567,4.6786,4.595,4.5004,4.4991,4.4869,4.4599,4.4067,4.362,4.3626,4.2974,4.2557,4.2409,4.2192,4.1977,4.1913,4.1845,4.1692,4.1692,4.1719,4.1675,4.1697,4.1604,4.1538,4.1356,4.0863,4.053,4.0088,3.93,3.8673,3.7673,3.6849,3.66,3.6283,3.5873,3.54,3.5047,3.4737,3.4345,3.4075,3.3942,3.3774,4.9903,4.9702,4.9942,4.9903,4.973,4.9929,4.9581,4.8871,4.8611,4.7853,4.6941,4.6019,4.5536,4.5327,4.4693,4.436,4.4303,4.4308,4.4275,4.4188,4.4173,4.3886,4.3582,4.3496,4.3515,4.348,4.3464,4.3394,4.334,4.3232,4.3214,4.3214,4.3233,4.3214,4.3214,4.3214,4.3214,4.3214,4.3214,4.3251,4.3379,4.3853,4.4071,4.4108,4.4581,4.4835,4.4871,4.485,4.4445,4.3897,4.4548,4.4983,4.5021,4.5274,4.58,4.6434,4.6576,4.6866,4.7518,4.7699,4.7699,4.7699,4.7699,4.7699,4.7699,4.7699,4.7699,4.7699,4.7699,4.7699,4.7699,4.7699,4.7699,4.766,4.7383,4.6904,4.623,4.6037,4.5877,4.5276,4.4965,4.4838,4.4617,4.405,4.3391,4.3225,4.278,4.2205,4.2181,4.2121,4.1995,4.1998,4.2019,4.1874,4.1805,4.1692,4.1604,4.1582,4.1356,4.1185,4.0739,4.0209,3.9781,3.9235,3.8413,3.8001,3.7597,3.7147,3.6618,3.6149,3.5522,3.5128,3.4726,3.4513,3.4333,5.0181,5.0006,5.0224,5.02,5.0051,5.0205,5.0034,4.9576,4.9213,4.8754,4.8007,4.7191,4.6529,4.5994,4.5508,4.4978,4.4604,4.4559,4.4493,4.4402,4.4388,4.4202,4.3931,4.3871,4.3825,4.3716,4.3666,4.3566,4.3445,4.3358,4.3322,4.334,4.334,4.3322,4.334,4.334,4.3541,4.3779,4.3834,4.3944,4.4364,4.4785,4.4949,4.5058,4.5478,4.566,4.5621,4.5873,4.5633,4.5102,4.5444,4.5896,4.5974,4.6283,4.6646,4.7118,4.7114,4.7327,4.7653,4.7738,4.7699,4.7699,4.7699,4.7699,4.7699,4.7699,4.7699,4.7699,4.7699,4.7699,4.7699,4.7699,4.7699,4.7699,4.7699,4.75,4.7029,4.699,4.6812,4.6377,4.6015,4.5798,4.5798,4.4989,4.4389,4.3915,4.3396,4.2864,4.2517,4.2422,4.2328,4.2269,4.2228,4.2124,4.2061,4.1973,4.1909,4.1866,4.1801,4.1653,4.126,4.0873,4.0504,4.0109,3.9704,3.9326,3.8841,3.8397,3.8028,3.7443,3.6646,3.5909,3.5495,3.5065,3.4871,5.0302,5.0302,5.0302,5.0302,5.029,5.0302,5.0264,5.013,4.9576,4.927,4.9011,4.8304,4.7564,4.6787,4.666,4.6024,4.5045,4.5121,4.4808,4.4687,4.4578,4.4525,4.4511,4.4332,4.4188,4.4064,4.4033,4.3892,4.3714,4.3632,4.3548,4.3603,4.3624,4.3663,4.3793,4.3792,4.4176,4.4673,4.4801,4.5058,4.5517,4.5828,4.5957,4.5974,4.6212,4.6247,4.63,4.6534,4.6625,4.5933,4.6509,4.6799,4.6986,4.7645,4.7882,4.7881,4.78,4.7811,4.7884,4.7804,4.7741,4.7762,4.7762,4.772,4.7762,4.7762,4.7762,4.7738,4.7738,4.7738,4.7699,4.7699,4.7699,4.7699,4.7699,4.7699,4.7699,4.7699,4.7699,4.7681,4.6972,4.6703,4.6432,4.5943,4.5162,4.4903,4.4223,4.348,4.3007,4.2733,4.2602,4.2452,4.2412,4.2348,4.2308,4.2287,4.2225,4.2184,4.2142,4.1998,4.1591,4.122,4.0943,4.0627,4.0312,4.0151,3.9973,3.96,3.9227,3.8614,3.7778,3.6922,3.6185,3.5711,3.544,5.0302,5.0302,5.0302,5.0302,5.0302,5.0302,5.0302,5.0283,5.013,4.9977,4.9843,4.9175,4.8697,4.8441,4.7761,4.7021,4.6172,4.6077,4.5799,4.5148,4.5117,4.5117,4.5033,4.4801,4.4439,4.4336,4.4336,4.4279,4.4196,4.4061,4.3929,4.4008,4.4418,4.4452,4.456,4.5035,4.5424,4.5626,4.5644,4.5791,4.6122,4.6636,4.6893,4.6911,4.7407,4.77,4.7716,4.7841,4.7841,4.7749,4.767,4.7645,4.772,4.7884,4.8012,4.8012,4.7992,4.797,4.797,4.7949,4.7931,4.7929,4.7891,4.7949,4.7949,4.7929,4.7907,4.7881,4.7861,4.7819,4.7759,4.7699,4.7717,4.7738,4.7717,4.7717,4.7699,4.7699,4.7699,4.7645,4.7533,4.7407,4.7391,4.6721,4.616,4.5834,4.509,4.4145,4.3582,4.3126,4.2907,4.274,4.2591,4.2532,4.2512,4.2492,4.2452,4.2452,4.2432,4.2391,4.2005,4.1727,4.149,4.1243,4.0972,4.0849,4.0744,4.0501,4.0042,3.9467,3.8847,3.8011,3.7219,3.6619,3.6004,5.0302,5.0302,5.0302,5.0302,5.0302,5.0302,5.0302,5.0302,5.0302,5.0302,5.0225,4.9805,4.9473,4.9091,4.8602,4.7952,4.7283,4.7101,4.689,4.6547,4.6489,4.65,4.644,4.6052,4.5647,4.4851,4.4604,4.4721,4.489,4.4911,4.5047,4.5346,4.5611,4.5762,4.5735,4.6164,4.6431,4.6716,4.6857,4.7023,4.7312,4.7803,4.8113,4.815,4.8522,4.8711,4.8532,4.8477,4.842,4.8307,4.8191,4.8132,4.8151,4.8132,4.8151,4.8131,4.811,4.809,4.809,4.8032,4.7992,4.8012,4.7992,4.7992,4.7992,4.7992,4.7972,4.7968,4.7927,4.7907,4.7866,4.7866,4.7845,4.7819,4.7819,4.7798,4.7738,4.7699,4.7699,4.7699,4.7681,4.7663,4.75,4.7156,4.6794,4.6323,4.6106,4.5178,4.404,4.3603,4.3242,4.3041,4.2858,4.2747,4.2728,4.2709,4.267,4.267,4.2689,4.267,4.2516,4.2313,4.2127,4.1852,4.1552,4.1507,4.1361,4.1099,4.0833,4.0347,3.9731,3.8967,3.8229,3.7483,3.6864,5.0302,5.0302,5.0302,5.0302,5.0302,5.0302,5.0302,5.0302,5.0302,5.0302,5.0302,5.0302,4.9862,4.9423,4.932,4.8774,4.8143,4.7731,4.754,4.7521,4.7502,4.7513,4.751,4.7331,4.6831,4.5347,4.5449,4.5698,4.5965,4.5998,4.621,4.6831,4.7041,4.6956,4.7034,4.727,4.7517,4.7849,4.8068,4.8306,4.8634,4.8982,4.9093,4.9112,4.9134,4.9078,4.8917,4.8832,4.8747,4.842,4.8439,4.8383,4.8306,4.8324,4.8324,4.8287,4.8228,4.8208,4.8189,4.813,4.8072,4.8052,4.8052,4.8052,4.8072,4.8072,4.8052,4.8032,4.803,4.799,4.7992,4.8073,4.8052,4.805,4.8048,4.801,4.7949,4.7891,4.7911,4.7699,4.7699,4.7699,4.7699,4.7518,4.7174,4.6848,4.6631,4.616,4.5001,4.4168,4.3897,4.3535,4.3369,4.297,4.2878,4.2824,4.2786,4.2805,4.2843,4.2825,4.2825,4.2691,4.2454,4.2369,4.2166,4.2023,4.1938,4.177,4.1477,4.1138,4.0706,4.0087,3.9249,3.8345,3.7809,5.0302,5.0302,5.0302,5.0302,5.0302,5.0302,5.0302,5.0302,5.0302,5.0302,5.0302,5.0302,5.0225,5.0073,5.0092,4.9633,4.8869,4.8391,4.8017,4.7998,4.7998,4.8017,4.8075,4.8113,4.7678,4.7449,4.7282,4.7338,4.7298,4.7264,4.7333,4.7437,4.7796,4.7964,4.8186,4.8506,4.8777,4.884,4.9006,4.916,4.9212,4.9314,4.939,4.939,4.9405,4.9329,4.9252,4.9209,4.9064,4.8799,4.9001,4.8797,4.8514,4.8382,4.8363,4.8305,4.8287,4.8286,4.8267,4.8267,4.8248,4.8248,4.8229,4.8229,4.8229,4.8229,4.819,4.8151,4.8092,4.8014,4.8012,4.8271,4.8403,4.8458,4.8585,4.8725,4.8691,4.8567,4.8309,4.7974,4.7829,4.772,4.7744,4.7741,4.75,4.7192,4.6975,4.6667,4.5924,4.5182,4.4729,4.4349,4.3951,4.3462,4.3027,4.2918,4.2881,4.2862,4.2881,4.2881,4.2863,4.2863,4.2749,4.2591,4.247,4.229,4.2249,4.2246,4.2086,4.1739,4.1458,4.12,4.0407,3.9578,3.8995,5.0302,5.0302,5.0302,5.0302,5.0302,5.0302,5.0302,5.0302,5.0302,5.0302,5.0302,5.0302,5.0302,5.0302,5.0302,5.0034,4.9633,4.9347,4.9087,4.9098,4.9087,4.9098,4.9041,4.9049,4.9098,4.9068,4.9068,4.8793,4.8495,4.8345,4.8464,4.8909,4.9162,4.9243,4.9299,4.9591,4.9683,4.9627,4.9702,4.9716,4.9599,4.9702,4.9803,4.9817,4.979,4.973,4.957,4.9556,4.939,4.9142,4.9209,4.9097,4.8917,4.8781,4.8676,4.8402,4.8325,4.8306,4.8324,4.8324,4.8305,4.8305,4.8306,4.8324,4.8324,4.8305,4.8325,4.8306,4.8421,4.8421,4.844,4.8709,4.8881,4.8898,4.9031,4.9078,4.9011,4.8963,4.8727,4.8365,4.8174,4.8035,4.7893,4.785,4.7741,4.7536,4.7322,4.7055,4.6733,4.6299,4.5759,4.5083,4.4631,4.394,4.345,4.3305,4.3105,4.3031,4.2995,4.2995,4.2939,4.2939,4.2882,4.2786,4.265,4.2532,4.2472,4.2432,4.2389,4.2348,4.2021,4.1697,4.1386,4.0863,4.0237,5.0302,5.0302,5.0302,5.0302,5.0302,5.0302,5.0302,5.0302,5.0302,5.0302,5.0302,5.0302,5.0302,5.0302,5.0302,5.0283,5.0302,5.0225,5.0168,5.013,5.013,5.0225,5.0264,5.0302,5.0149,4.9977,5.0054,4.9977,4.9461,4.9305,4.971,4.9904,5.0214,5.0302,5.0228,5.0142,5.0088,5.0076,5.0113,5.0132,5.0038,5.0144,5.0302,5.0302,5.0302,5.0144,4.9929,4.9916,4.973,4.9527,4.9483,4.9435,4.9329,4.9378,4.9129,4.8622,4.8495,4.8477,4.8514,4.8439,4.8495,4.8604,4.8458,4.8439,4.855,4.8623,4.855,4.855,4.8711,4.8883,4.8898,4.919,4.9333,4.9367,4.9382,4.9394,4.939,4.936,4.9363,4.9013,4.8639,4.8421,4.8366,4.8309,4.8271,4.8252,4.8051,4.7919,4.7608,4.7421,4.6871,4.5989,4.5257,4.4455,4.3999,4.3798,4.3542,4.3286,4.3232,4.3214,4.3105,4.3014,4.2976,4.292,4.2862,4.2747,4.2689,4.2631,4.2611,4.2552,4.2432,4.2241,4.1945,4.1683,4.123,5.0302,5.0302,5.0302,5.0302,5.0302,5.0302,5.0302,5.0302,5.0302,5.0302,5.0302,5.0302,5.0302,5.0302,5.0302,5.0302,5.0302,5.0302,5.0302,5.0302,5.0302,5.0302,5.0302,5.0302,5.0302,5.0302,5.0302,5.0264,5.0054,5.0034,5.013,5.0283,5.0302,5.0302,5.0302,5.0302,5.029,5.0236,5.0278,5.0278,5.0236,5.0259,5.029,5.0302,5.029,5.0278,5.0181,5.0156,5.0038,4.983,5.0025,4.9857,4.9464,4.9584,4.9527,4.9317,4.9193,4.9158,4.908,4.8883,4.8832,4.8967,4.8883,4.8915,4.8982,4.9046,4.9062,4.9174,4.9221,4.924,4.9302,4.956,4.9688,4.9803,4.9889,5.0012,5.0038,4.9776,4.9762,4.9721,4.9329,4.9123,4.9011,4.8928,4.8878,4.8861,4.8773,4.8597,4.8418,4.818,4.7775,4.6855,4.625,4.5478,4.4708,4.4486,4.4138,4.3733,4.3513,4.3461,4.332,4.3232,4.3087,4.305,4.2995,4.2938,4.2824,4.2805,4.2825,4.2749,4.2613,4.2571,4.2534,4.2309,4.2047,5.0401,5.0348,5.0314,5.0302,5.0302,5.0302,5.0302,5.0302,5.0302,5.0302,5.0302,5.0302,5.0302,5.0302,5.0302,5.0302,5.0302,5.0302,5.0302,5.0302,5.0302,5.0302,5.0302,5.0302,5.0302,5.0302,5.0302,5.0302,5.0302,5.0302,5.0302,5.0302,5.0302,5.0302,5.0302,5.0302,5.0302,5.029,5.0302,5.0302,5.0302,5.0302,5.0302,5.0302,5.0302,5.0302,5.0302,5.029,5.0236,5.012,5.0248,5.0181,4.9968,5.005,5.0165,5.0669,5.0629,5.0199,4.9442,4.9214,4.9318,4.9277,4.923,4.9142,4.9268,4.937,4.937,4.9283,4.9464,4.957,4.9646,4.9903,5.0006,5.0144,5.02,5.0236,5.029,5.0267,5.0151,5.0114,5.0044,4.9771,4.9493,4.928,4.9171,4.9123,4.9057,4.8957,4.8839,4.8717,4.8235,4.762,4.7131,4.6657,4.583,4.5258,4.4895,4.4471,4.3793,4.374,4.3597,4.3477,4.3355,4.3249,4.3178,4.3087,4.2957,4.29,4.2863,4.2844,4.2806,4.2767,4.2728,4.2729,4.2487,5.0478,5.0446,5.0359,5.0314,5.0302,5.0302,5.0302,5.0302,5.0302,5.0302,5.0302,5.0302,5.0302,5.0302,5.0302,5.0302,5.0302,5.0302,5.0302,5.0302,5.0302,5.0302,5.0302,5.0302,5.0302,5.0302,5.0302,5.0302,5.0302,5.0302,5.0302,5.0302,5.0302,5.0302,5.0302,5.0302,5.0302,5.0302,5.0302,5.0302,5.0302,5.0302,5.0302,5.0302,5.0302,5.0302,5.0302,5.0302,5.029,5.029,5.0596,5.0687,5.0663,5.0968,5.1298,5.17,5.1783,5.1421,5.0733,5.0371,5.012,5.0149,5.0179,5.0463,5.0373,5.016,5.0023,5.01,5.0207,5.02,5.0025,5.0156,5.0212,5.0236,5.029,5.029,5.029,5.0278,5.0267,5.0231,5.0188,5.0224,4.9936,4.9608,4.9464,4.939,4.9311,4.928,4.9249,4.9218,4.8974,4.848,4.8359,4.7925,4.7186,4.6439,4.594,4.531,4.4665,4.4267,4.4304,4.3962,4.3679,4.3543,4.3443,4.3267,4.3142,4.3032,4.2919,4.2881,4.2863,4.29,4.2881,4.2919,4.2881,5.0532,5.0582,5.0446,5.0348,5.0302,5.0302,5.0302,5.0302,5.0302,5.0302,5.0302,5.0302,5.0302,5.0302,5.0302,5.0302,5.0302,5.0302,5.0302,5.0302,5.0302,5.0302,5.0302,5.0302,5.0302,5.0302,5.0302,5.0302,5.0302,5.0302,5.0302,5.0302,5.0302,5.0302,5.0302,5.0302,5.0302,5.0302,5.0302,5.0302,5.0302,5.0302,5.0302,5.0321,5.0321,5.0321,5.0321,5.0512,5.0627,5.0665,5.1181,5.1486,5.1582,5.1964,5.2346,5.2652,5.2747,5.2558,5.2366,5.198,5.2121,5.2367,5.2342,5.205,5.1929,5.2323,5.2158,5.1409,5.1332,5.1077,5.0663,5.0347,5.0703,5.0569,5.0588,5.0436,5.0397,5.029,5.029,5.029,5.0302,5.0302,5.029,4.9949,4.9851,4.9798,4.983,4.9784,4.979,4.9762,4.9754,4.9578,4.9602,4.9253,4.861,4.7952,4.7229,4.66,4.5989,4.5552,4.5295,4.4842,4.4281,4.3957,4.3865,4.3586,4.3338,4.3232,4.3105,4.2957,4.2919,4.2919,4.2919,4.2919,4.2919,5.0632,5.0593,5.0532,5.0457,5.0348,5.0314,5.0302,5.0302,5.0302,5.0302,5.0302,5.0302,5.0302,5.0302,5.0302,5.0302,5.0302,5.0302,5.0302,5.0302,5.0302,5.0302,5.0302,5.0302,5.0302,5.0302,5.0302,5.0302,5.0302,5.0302,5.0302,5.0302,5.0302,5.0302,5.0302,5.0302,5.0302,5.0302,5.0302,5.0302,5.0302,5.0302,5.0302,5.0302,5.0971,5.1066,5.12,5.1639,5.1754,5.1888,5.2136,5.2289,5.2384,5.2766,5.3148,5.3531,5.3588,5.3817,5.3932,5.3334,5.2698,5.2736,5.2766,5.2862,5.2996,5.2862,5.2709,5.2391,5.2327,5.204,5.1945,5.1811,5.1811,5.1314,5.1009,5.0837,5.0665,5.0627,5.0493,5.0569,5.0417,5.0302,5.0302,5.0248,5.0236,5.0236,5.0278,5.0278,5.0188,5.0139,5.0089,5.005,5.0038,5.0031,4.941,4.892,4.8453,4.787,4.7267,4.6807,4.6325,4.5652,4.5114,4.4709,4.4308,4.4047,4.3789,4.3529,4.3303,4.3087,4.2975,4.2919,4.2919,4.2919,4.2919,5.0682,5.0623,5.0603,5.0511,5.0412,5.0348,5.0314,5.0302,5.0302,5.0302,5.0302,5.0302,5.0302,5.0302,5.0302,5.0302,5.0302,5.0302,5.0302,5.0302,5.0302,5.0302,5.0302,5.0302,5.0302,5.0302,5.0302,5.0302,5.0302,5.0302,5.0302,5.0302,5.0302,5.0302,5.0302,5.0302,5.0302,5.0302,5.0302,5.0512,5.0627,5.0722,5.099,5.1104,5.1716,5.1907,5.204,5.2327,5.2556,5.2728,5.2957,5.3148,5.3263,5.3473,5.3894,5.4237,5.4543,5.4811,5.483,5.4467,5.3588,5.3798,5.376,5.3722,5.3569,5.3531,5.3683,5.3225,5.3187,5.311,5.2977,5.2575,5.2442,5.1983,5.1945,5.1773,5.141,5.1257,5.1009,5.0863,5.0627,5.034,5.0321,5.0321,5.0321,5.0321,5.0302,5.029,5.0278,5.0243,5.0255,5.02,5.0175,5.0182,5.01,4.9619,4.9174,4.8977,4.8393,4.7859,4.7329,4.6638,4.62,4.5998,4.5498,4.4741,4.433,4.4151,4.3657,4.3124,4.3032,4.2957,4.2919,4.2919,4.2919,5.0683,5.0702,5.0623,5.0521,5.0424,5.0401,5.0379,5.0325,5.0314,5.0314,5.0314,5.0314,5.0302,5.0302,5.0302,5.0302,5.0302,5.0302,5.0302,5.0302,5.0302,5.0302,5.0302,5.0302,5.0302,5.0302,5.0302,5.0302,5.0302,5.0302,5.0302,5.0302,5.0302,5.0302,5.0302,5.0302,5.0302,5.0321,5.0397,5.0875,5.141,5.1563,5.1888,5.2251,5.2633,5.2785,5.2862,5.3148,5.3339,5.3378,5.3836,5.4046,5.4104,5.4677,5.504,5.5174,5.525,5.5313,5.5333,5.5275,5.5084,5.4925,5.4734,5.4868,5.5135,5.5103,5.4791,5.4142,5.4065,5.3702,5.3263,5.2938,5.2996,5.2843,5.2805,5.2556,5.2193,5.1888,5.1658,5.1563,5.0913,5.0378,5.0359,5.0359,5.0359,5.034,5.0302,5.0302,5.0302,5.0302,5.0302,5.029,5.0267,5.0255,5.0219,5.0158,4.9924,4.9784,4.9448,4.8876,4.8331,4.7748,4.7413,4.7256,4.662,4.5806,4.5255,4.4808,4.4271,4.3703,4.3142,4.2976,4.2938,4.2919,4.2919,5.0683,5.0683,5.0663,5.0613,5.054,5.0489,5.0438,5.0446,5.0435,5.0393,5.0359,5.0359,5.0337,5.0314,5.0302,5.0302,5.0302,5.0302,5.0302,5.0302,5.0302,5.0302,5.0302,5.0302,5.0302,5.0302,5.0302,5.0302,5.0302,5.0302,5.0302,5.0302,5.0493,5.0302,5.0302,5.0359,5.0512,5.1054,5.1245,5.1544,5.2289,5.2403,5.2556,5.2919,5.3397,5.3664,5.3702,5.4046,5.4276,5.4295,5.4772,5.4842,5.4881,5.5377,5.5365,5.5384,5.5403,5.539,5.539,5.5352,5.5371,5.5403,5.5384,5.5384,5.5403,5.539,5.5174,5.5021,5.4849,5.46,5.4619,5.4562,5.4448,5.3817,5.3569,5.3206,5.2843,5.2594,5.2403,5.2384,5.1983,5.1486,5.1276,5.1085,5.099,5.0608,5.055,5.0359,5.0321,5.0302,5.0302,5.0302,5.029,5.029,5.0267,5.0219,5.0194,5.0049,4.9961,4.9752,4.922,4.8713,4.8434,4.8181,4.7535,4.6858,4.6302,4.5731,4.4993,4.4375,4.3896,4.3376,4.3214,4.3087,4.2919,5.0683,5.0683,5.0683,5.0663,5.0623,5.0572,5.0521,5.0511,5.05,5.0448,5.0412,5.0382,5.0348,5.0314,5.0302,5.0302,5.0302,5.0302,5.0302,5.0302,5.0302,5.0302,5.0302,5.0302,5.0302,5.0302,5.0302,5.0302,5.0302,5.0302,5.0512,5.0818,5.1028,5.1314,5.1219,5.1162,5.1219,5.1792,5.2059,5.2422,5.2996,5.3301,5.3454,5.3836,5.4237,5.4562,5.4715,5.5021,5.5396,5.539,5.539,5.5403,5.5415,5.5428,5.5415,5.5403,5.5384,5.5396,5.539,5.5403,5.5415,5.544,5.5415,5.5403,5.5415,5.5415,5.5403,5.5333,5.5396,5.5365,5.5345,5.5403,5.5135,5.4486,5.4352,5.3982,5.3855,5.3626,5.3263,5.3244,5.2938,5.2518,5.2174,5.1964,5.1754,5.1257,5.0799,5.0608,5.0397,5.0321,5.0302,5.0302,5.0302,5.0302,5.0302,5.0278,5.0278,5.029,5.0212,5.0139,5.0037,4.9529,4.9334,4.9081,4.8441,4.7834,4.7315,4.6681,4.604,4.5387,4.4819,4.4257,4.3667,4.3355,4.316,5.0683,5.0683,5.0683,5.0683,5.0673,5.0623,5.0563,5.0511,5.0511,5.0459,5.0412,5.0412,5.0359,5.0314,5.0302,5.0302,5.0302,5.0302,5.0302,5.0302,5.0302,5.0302,5.0302,5.0302,5.0302,5.0321,5.0436,5.0627,5.0417,5.0779,5.1162,5.1601,5.2117,5.2384,5.2346,5.227,5.2289,5.269,5.29,5.3359,5.3951,5.4161,5.4448,5.4811,5.5097,5.5154,5.5224,5.5339,5.5415,5.5421,5.5427,5.5444,5.5468,5.5523,5.5456,5.5427,5.5403,5.5409,5.5415,5.5427,5.5444,5.5488,5.5444,5.5456,5.5444,5.5451,5.5427,5.5402,5.5409,5.5422,5.5416,5.5396,5.5358,5.5205,5.5205,5.5072,5.5021,5.4715,5.4276,5.397,5.3531,5.3168,5.2957,5.2747,5.2587,5.1983,5.1505,5.1162,5.0875,5.034,5.0321,5.0302,5.0302,5.0302,5.0302,5.0302,5.0302,5.0302,5.0302,5.0224,5.0209,5.019,4.9933,4.9617,4.93,4.8788,4.813,4.7643,4.7176,4.6535,4.5916,4.4969,4.4299,4.3825,4.3575,5.0683,5.0683,5.0683,5.0683,5.0683,5.0673,5.0653,5.0643,5.0643,5.0573,5.0478,5.0478,5.0412,5.0302,5.0302,5.0302,5.0302,5.0302,5.0302,5.0302,5.0314,5.0302,5.034,5.039,5.0321,5.0588,5.0875,5.1231,5.1391,5.1639,5.2072,5.2518,5.2905,5.3249,5.3486,5.3473,5.355,5.3626,5.3715,5.4199,5.4715,5.4906,5.5193,5.5294,5.5384,5.5377,5.5396,5.5409,5.5427,5.5476,5.5468,5.5492,5.5492,5.5523,5.548,5.548,5.5476,5.5476,5.5488,5.5488,5.5504,5.5551,5.5551,5.5516,5.5504,5.5492,5.548,5.5456,5.5439,5.5434,5.5453,5.5453,5.5421,5.5409,5.5409,5.539,5.5339,5.5212,5.481,5.4715,5.4275,5.4084,5.3854,5.3708,5.3491,5.2817,5.2289,5.1907,5.1391,5.0875,5.0359,5.0321,5.0302,5.0302,5.0302,5.0302,5.0302,5.0302,5.0302,5.0302,5.0271,5.0271,5.0271,5.0126,4.9785,4.9353,4.8869,4.8467,4.8217,4.7696,4.7054,4.5949,4.5011,4.4601,4.4113,5.0683,5.0683,5.0683,5.0683,5.0683,5.0683,5.0683,5.0683,5.0683,5.0633,5.0511,5.05,5.0416,5.0314,5.0302,5.0314,5.0356,5.0348,5.0348,5.0401,5.0466,5.0665,5.0723,5.0914,5.1193,5.1411,5.1756,5.2162,5.2379,5.2927,5.3386,5.3456,5.3616,5.4132,5.4484,5.4567,5.4593,5.46,5.467,5.4944,5.5174,5.5403,5.5403,5.5384,5.5396,5.539,5.5408,5.542,5.548,5.5547,5.5558,5.557,5.5581,5.5581,5.5539,5.552,5.5504,5.5516,5.5527,5.5539,5.5573,5.5618,5.5629,5.5618,5.5585,5.5562,5.5551,5.5527,5.548,5.5456,5.5456,5.5488,5.5456,5.5444,5.5451,5.5451,5.5446,5.5453,5.5415,5.5415,5.5242,5.5032,5.486,5.4694,5.4388,5.3707,5.3216,5.2848,5.2205,5.1467,5.0779,5.0359,5.0321,5.0302,5.0302,5.0302,5.0302,5.0302,5.0302,5.0302,5.0302,5.0302,5.0302,5.0302,5.0233,4.9832,4.9438,4.9507,4.9293,4.872,4.8174,4.7393,4.643,4.5657,4.5105,5.0683,5.0683,5.0683,5.0683,5.0683,5.0683,5.0683,5.0683,5.0683,5.0653,5.0532,5.0511,5.0457,5.0359,5.0348,5.0505,5.0661,5.0711,5.0913,5.073,5.1015,5.1319,5.1691,5.1866,5.2054,5.2621,5.3043,5.3188,5.3441,5.3909,5.435,5.4442,5.4936,5.525,5.5219,5.5241,5.5178,5.5178,5.5179,5.5307,5.5333,5.5396,5.5396,5.5422,5.5421,5.542,5.5444,5.548,5.5539,5.5585,5.5626,5.5649,5.566,5.5629,5.5607,5.5596,5.5562,5.5573,5.5596,5.5607,5.5629,5.5662,5.5684,5.5673,5.564,5.5618,5.5607,5.5596,5.5551,5.5539,5.5551,5.5527,5.5516,5.5504,5.5523,5.5511,5.5488,5.5495,5.5483,5.5483,5.5444,5.5303,5.5284,5.508,5.4953,5.4444,5.4195,5.3865,5.3209,5.2344,5.1556,5.0829,5.0703,5.0665,5.0302,5.0302,5.0302,5.0302,5.0321,5.0302,5.0302,5.0302,5.0302,5.0302,5.0302,5.0302,5.0099,5.0034,4.9862,4.948,4.9011,4.8735,4.7983,4.701,4.6392,5.0683,5.0683,5.0683,5.0683,5.0683,5.0683,5.0683,5.0683,5.0683,5.0673,5.0593,5.0572,5.0579,5.0552,5.0561,5.0832,5.136,5.1486,5.185,5.2102,5.2217,5.2237,5.2636,5.2735,5.2916,5.3134,5.3587,5.4242,5.4626,5.4998,5.5178,5.5209,5.5516,5.5527,5.5516,5.5492,5.548,5.548,5.5476,5.5458,5.5434,5.5451,5.5476,5.5476,5.548,5.5504,5.5527,5.5562,5.5607,5.5651,5.5682,5.5692,5.5684,5.5673,5.5662,5.5662,5.564,5.564,5.5651,5.5651,5.5673,5.5673,5.5684,5.5684,5.5684,5.5673,5.5662,5.564,5.5629,5.5629,5.5618,5.5596,5.5573,5.5573,5.5573,5.5551,5.5516,5.5516,5.5535,5.5535,5.5535,5.5535,5.5535,5.5485,5.5396,5.5301,5.5212,5.4913,5.4314,5.3544,5.2712,5.2,5.1467,5.1219,5.0799,5.0493,5.0588,5.0436,5.0397,5.0359,5.0302,5.0302,5.0302,5.0302,5.0302,5.0302,5.0302,5.0264,5.0073,4.9862,4.9748,4.9423,4.9156,4.8383,4.7857,5.0683,5.0683,5.0683,5.0683,5.0683,5.0683,5.0683,5.0683,5.0683,5.0885,5.1056,5.0824,5.0764,5.1009,5.1086,5.1549,5.225,5.2376,5.256,5.2935,5.327,5.3297,5.3432,5.3643,5.4027,5.4238,5.4606,5.5174,5.5527,5.5566,5.5558,5.5585,5.5585,5.5585,5.5585,5.5543,5.5531,5.5539,5.5539,5.5535,5.548,5.5504,5.5504,5.5504,5.5539,5.5543,5.5585,5.5618,5.5651,5.5684,5.5703,5.5703,5.5684,5.5684,5.5684,5.5684,5.5684,5.5684,5.5684,5.5684,5.5684,5.5684,5.5684,5.5684,5.5684,5.5684,5.5684,5.5662,5.5662,5.5651,5.5662,5.564,5.566,5.566,5.566,5.5629,5.5638,5.5626,5.5626,5.5626,5.5626,5.5626,5.5626,5.5607,5.5538,5.5493,5.5531,5.5489,5.5006,5.463,5.3836,5.3195,5.2662,5.2205,5.1868,5.141,5.1035,5.0837,5.0665,5.0436,5.0397,5.034,5.0302,5.0302,5.0302,5.0302,5.0302,5.0302,5.0302,5.013,5.0111,5.0092,4.9805,4.9538,4.9133,5.0683,5.0683,5.0683,5.0683,5.0683,5.0683,5.0683,5.0683,5.0712,5.1144,5.1692,5.1114,5.1293,5.1751,5.2009,5.2617,5.3053,5.3255,5.3392,5.3643,5.3712,5.4122,5.4438,5.4652,5.4918,5.5168,5.5459,5.5528,5.5662,5.5662,5.5662,5.5684,5.5684,5.5684,5.5673,5.564,5.5607,5.5607,5.5607,5.5626,5.5585,5.5562,5.5551,5.5551,5.5573,5.5607,5.5629,5.5651,5.5684,5.5684,5.5684,5.5684,5.5684,5.5684,5.5684,5.5684,5.5684,5.5684,5.5684,5.5684,5.5684,5.5684,5.5684,5.5684,5.5684,5.5684,5.5684,5.5684,5.5703,5.5703,5.5703,5.5703,5.5703,5.5703,5.5703,5.5703,5.5703,5.5703,5.5703,5.5703,5.5703,5.5703,5.5703,5.5703,5.5682,5.5618,5.5596,5.5573,5.5455,5.5213,5.4729,5.428,5.3881,5.3444,5.2853,5.2363,5.1801,5.1694,5.1514,5.0937,5.0493,5.0436,5.0359,5.0302,5.0302,5.0302,5.0302,5.0302,5.0302,5.0302,5.0283,5.0245,5.0187,4.9996,5.013,5.0683,5.0683,5.0683,5.0683,5.0683,5.0683,5.0683,5.0683,5.0702,5.1144,5.1788,5.1904,5.2114,5.296,5.2941,5.3393,5.4094,5.422,5.4731,5.5145,5.4876,5.5173,5.5327,5.5231,5.55,5.5635,5.5673,5.5684,5.5684,5.5684,5.5684,5.5684,5.5684,5.5684,5.5684,5.5682,5.5662,5.5662,5.5662,5.5682,5.5682,5.5651,5.5682,5.5682,5.5662,5.5692,5.5692,5.5703,5.5703,5.5684,5.5684,5.5684,5.5684,5.5684,5.5684,5.5684,5.5684,5.5684,5.5684,5.5684,5.5684,5.5684,5.5684,5.5684,5.5684,5.5684,5.5684,5.5684,5.5684,5.5684,5.5684,5.5684,5.5684,5.5684,5.5684,5.5684,5.5703,5.5703,5.5703,5.5703,5.5703,5.5703,5.5703,5.5684,5.5703,5.5662,5.5662,5.564,5.5629,5.5569,5.5508,5.5205,5.4864,5.4074,5.3246,5.31,5.2706,5.2606,5.2391,5.1851,5.1254,5.0588,5.0493,5.0588,5.0417,5.0302,5.0302,5.0302,5.0302,5.0302,5.0302,5.0283,5.0302,5.0302,5.0302]}]]